[[{"header":{"parameterUnit":"m.s-1","parameterCategory":1,"la1":30.6,"la2":29.2853,"lo1":-89.7004,"lo2":-87.6739,"dy":0.0162,"dx":0.0183,"nx":112,"ny":82,"refTime":"2023-03-25T00:00:00:Z","depth":0,"parameterNumber":2,"parameterNumberName":"U-component_of_WINDS"},"data":[0.0,0.0,0.0,0.0,0.0,0.0,0.0,0.0,0.0,0.0,0.0,0.0,0.0,0.0,0.0,0.0,0.0,0.0,0.0,0.0,0.0,0.0,0.0,0.0,0.0,0.0,0.0,0.0,0.0,0.0,0.0,0.0,0.0,0.0,0.0,0.0,0.0,0.0,0.0,0.0,0.0,0.0,0.0,0.0,0.0,0.0,0.0,0.0,0.0,0.0,0.0,0.0,0.0,0.0,0.0,0.0,0.0,0.0,0.0,0.0,0.0,0.0,0.0,0.0,0.0,0.0,0.0,0.0,0.0,0.0,0.0,0.0,0.0,0.0,0.0,0.0,0.0,0.0,0.0,0.0,0.0,0.0,0.0,0.0,0.0,0.0,0.0,0.0,0.0,0.0,-4.012,-4.1168,-4.2598,-4.3515,-4.3515,-4.3404,-4.2671,-4.1187,0.0,0.0,0.0,0.0,0.0,0.0,0.0,0.0,0.0,0.0,0.0,0.0,0.0,0.0,0.0,0.0,0.0,0.0,0.0,0.0,0.0,0.0,0.0,0.0,0.0,0.0,0.0,0.0,0.0,0.0,0.0,0.0,0.0,0.0,0.0,0.0,0.0,0.0,0.0,0.0,0.0,0.0,0.0,0.0,0.0,0.0,0.0,0.0,0.0,0.0,0.0,0.0,0.0,0.0,0.0,0.0,0.0,0.0,0.0,0.0,0.0,0.0,0.0,0.0,0.0,0.0,0.0,0.0,0.0,0.0,0.0,0.0,0.0,0.0,0.0,0.0,0.0,0.0,0.0,0.0,0.0,0.0,0.0,0.0,0.0,0.0,0.0,0.0,0.0,0.0,0.0,0.0,0.0,0.0,0.0,0.0,0.0,0.0,0.0,0.0,0.0,0.0,0.0,0.0,-3.9717,-4.1882,-4.2947,-4.3515,-4.3515,-4.2873,-4.2084,-4.115,0.0,0.0,0.0,0.0,0.0,0.0,0.0,0.0,0.0,0.0,0.0,0.0,0.0,0.0,0.0,0.0,0.0,0.0,0.0,0.0,0.0,0.0,0.0,0.0,0.0,0.0,0.0,0.0,0.0,0.0,0.0,0.0,0.0,0.0,0.0,0.0,0.0,0.0,0.0,0.0,0.0,0.0,0.0,0.0,0.0,0.0,0.0,0.0,0.0,0.0,0.0,0.0,0.0,0.0,0.0,0.0,0.0,0.0,0.0,0.0,0.0,0.0,0.0,0.0,0.0,0.0,0.0,0.0,0.0,0.0,0.0,0.0,0.0,0.0,0.0,0.0,0.0,0.0,0.0,0.0,0.0,0.0,0.0,0.0,0.0,0.0,0.0,0.0,0.0,0.0,0.0,0.0,0.0,0.0,0.0,0.0,0.0,0.0,0.0,0.0,0.0,0.0,0.0,-3.9111,-4.0286,-4.269,-4.3277,-4.3515,-4.3515,-4.3149,-4.2415,-4.1168,-4.1444,0.0,0.0,0.0,0.0,0.0,0.0,0.0,0.0,0.0,0.0,0.0,0.0,0.0,0.0,0.0,0.0,0.0,0.0,0.0,0.0,0.0,0.0,0.0,0.0,0.0,0.0,0.0,0.0,0.0,0.0,0.0,0.0,0.0,0.0,0.0,0.0,0.0,0.0,0.0,0.0,0.0,0.0,0.0,0.0,0.0,0.0,0.0,0.0,0.0,0.0,0.0,0.0,0.0,0.0,0.0,0.0,0.0,0.0,0.0,0.0,0.0,0.0,0.0,0.0,0.0,0.0,0.0,0.0,0.0,0.0,0.0,0.0,0.0,0.0,0.0,0.0,0.0,0.0,0.0,0.0,0.0,0.0,0.0,0.0,0.0,0.0,0.0,0.0,0.0,0.0,0.0,0.0,0.0,0.0,0.0,0.0,0.0,0.0,0.0,0.0,0.0,0.0,-3.9955,-4.102,-4.3259,-4.3515,-4.3515,-4.3515,-4.3331,-4.2598,-4.1187,-4.0912,0.0,0.0,0.0,0.0,0.0,0.0,0.0,0.0,0.0,0.0,0.0,0.0,0.0,0.0,0.0,0.0,0.0,0.0,0.0,0.0,0.0,0.0,0.0,0.0,0.0,0.0,0.0,0.0,0.0,0.0,0.0,0.0,0.0,0.0,0.0,0.0,0.0,0.0,0.0,0.0,0.0,0.0,0.0,0.0,0.0,0.0,0.0,0.0,0.0,0.0,0.0,0.0,0.0,0.0,0.0,0.0,0.0,0.0,0.0,0.0,0.0,0.0,0.0,0.0,0.0,0.0,0.0,0.0,0.0,0.0,0.0,0.0,0.0,0.0,0.0,0.0,0.0,0.0,0.0,0.0,0.0,0.0,0.0,0.0,0.0,0.0,0.0,0.0,0.0,0.0,0.0,0.0,0.0,0.0,0.0,0.0,0.0,0.0,0.0,0.0,0.0,0.0,-4.0086,-4.1662,-4.3331,-4.3515,-4.3515,-4.3515,-4.28,-4.2029,-4.115,-4.0396,0.0,0.0,0.0,0.0,0.0,0.0,0.0,0.0,0.0,0.0,0.0,0.0,0.0,0.0,0.0,0.0,0.0,0.0,0.0,0.0,0.0,0.0,0.0,0.0,0.0,0.0,0.0,0.0,0.0,0.0,0.0,0.0,0.0,0.0,0.0,0.0,0.0,0.0,0.0,0.0,0.0,0.0,0.0,0.0,0.0,0.0,0.0,0.0,0.0,0.0,0.0,0.0,0.0,0.0,0.0,0.0,0.0,0.0,0.0,0.0,0.0,0.0,0.0,0.0,0.0,0.0,0.0,0.0,0.0,0.0,0.0,0.0,0.0,0.0,0.0,0.0,0.0,0.0,0.0,0.0,0.0,0.0,0.0,0.0,0.0,0.0,0.0,0.0,0.0,0.0,0.0,0.0,0.0,0.0,0.0,0.0,0.0,0.0,0.0,0.0,0.0,0.0,-3.9662,-4.1148,-4.3276,-4.3515,-4.3515,-4.3515,-4.2763,-4.1974,-4.115,0.0,0.0,0.0,0.0,0.0,0.0,0.0,0.0,0.0,0.0,0.0,0.0,0.0,0.0,0.0,0.0,0.0,0.0,0.0,0.0,0.0,0.0,0.0,0.0,0.0,0.0,0.0,0.0,0.0,0.0,0.0,0.0,0.0,0.0,0.0,0.0,0.0,0.0,0.0,0.0,0.0,0.0,0.0,0.0,0.0,0.0,0.0,0.0,0.0,0.0,0.0,0.0,0.0,0.0,0.0,0.0,0.0,0.0,0.0,0.0,0.0,0.0,0.0,0.0,0.0,0.0,0.0,0.0,0.0,0.0,0.0,0.0,0.0,0.0,0.0,0.0,0.0,0.0,0.0,0.0,0.0,0.0,0.0,0.0,0.0,0.0,0.0,0.0,0.0,0.0,0.0,0.0,0.0,0.0,0.0,0.0,0.0,0.0,0.0,0.0,0.0,0.0,-3.8432,-3.9625,-4.1111,-4.3276,-4.3515,-4.3387,-4.313,-4.2378,-4.1589,-4.0781,0.0,0.0,0.0,0.0,0.0,0.0,0.0,0.0,0.0,0.0,0.0,0.0,0.0,0.0,0.0,0.0,0.0,0.0,0.0,0.0,0.0,0.0,0.0,0.0,0.0,0.0,0.0,0.0,0.0,0.0,0.0,0.0,0.0,0.0,0.0,0.0,0.0,0.0,0.0,0.0,0.0,0.0,0.0,0.0,0.0,0.0,0.0,0.0,0.0,0.0,0.0,0.0,0.0,0.0,0.0,0.0,0.0,0.0,0.0,0.0,0.0,0.0,0.0,0.0,0.0,0.0,0.0,0.0,0.0,0.0,0.0,0.0,0.0,0.0,0.0,0.0,0.0,0.0,0.0,0.0,0.0,0.0,0.0,0.0,0.0,0.0,0.0,0.0,0.0,0.0,0.0,0.0,0.0,0.0,0.0,0.0,0.0,0.0,0.0,0.0,0.0,0.0,-3.8487,-4.0086,-4.1735,-4.3331,-4.3515,-4.3167,-4.2378,-4.157,-4.0763,0.0,0.0,0.0,0.0,0.0,0.0,0.0,0.0,0.0,0.0,0.0,0.0,0.0,0.0,0.0,0.0,0.0,0.0,0.0,0.0,0.0,0.0,0.0,0.0,0.0,0.0,0.0,0.0,0.0,0.0,0.0,0.0,0.0,0.0,0.0,0.0,0.0,0.0,0.0,0.0,0.0,0.0,0.0,0.0,0.0,0.0,0.0,0.0,0.0,0.0,0.0,0.0,0.0,0.0,0.0,0.0,0.0,0.0,0.0,0.0,0.0,0.0,0.0,0.0,0.0,0.0,0.0,0.0,0.0,0.0,0.0,0.0,0.0,0.0,0.0,0.0,0.0,0.0,0.0,0.0,0.0,0.0,0.0,0.0,0.0,0.0,0.0,0.0,0.0,0.0,0.0,0.0,0.0,0.0,0.0,0.0,0.0,0.0,0.0,0.0,0.0,0.0,0.0,-3.8487,-4.0086,-4.1735,-4.3331,-4.3515,-4.3167,-4.2378,-4.157,-4.0763,-3.9937,0.0,0.0,0.0,0.0,0.0,0.0,0.0,0.0,0.0,0.0,0.0,0.0,0.0,0.0,0.0,0.0,0.0,0.0,0.0,0.0,0.0,0.0,0.0,0.0,0.0,0.0,0.0,0.0,0.0,0.0,0.0,0.0,0.0,0.0,0.0,0.0,0.0,0.0,0.0,0.0,0.0,0.0,0.0,0.0,0.0,0.0,0.0,0.0,0.0,0.0,0.0,0.0,0.0,0.0,0.0,0.0,0.0,0.0,0.0,0.0,0.0,0.0,0.0,0.0,0.0,0.0,0.0,0.0,0.0,0.0,0.0,0.0,0.0,0.0,0.0,0.0,0.0,0.0,0.0,0.0,0.0,0.0,0.0,0.0,0.0,0.0,0.0,0.0,0.0,0.0,0.0,0.0,0.0,0.0,0.0,0.0,0.0,0.0,0.0,0.0,0.0,0.0,-3.8487,-4.0086,-4.1735,-4.3331,-4.3515,-4.3039,-4.1919,-4.137,-4.0618,-3.9496,0.0,0.0,0.0,0.0,0.0,0.0,0.0,0.0,0.0,0.0,0.0,0.0,0.0,0.0,0.0,0.0,0.0,0.0,0.0,0.0,0.0,0.0,0.0,0.0,0.0,0.0,0.0,0.0,0.0,0.0,0.0,0.0,0.0,0.0,0.0,0.0,0.0,0.0,0.0,0.0,0.0,0.0,0.0,0.0,0.0,0.0,0.0,0.0,0.0,0.0,0.0,0.0,0.0,0.0,0.0,0.0,0.0,0.0,0.0,0.0,0.0,0.0,0.0,0.0,0.0,0.0,0.0,0.0,0.0,0.0,0.0,0.0,0.0,0.0,0.0,0.0,0.0,0.0,0.0,0.0,0.0,0.0,0.0,0.0,0.0,0.0,0.0,0.0,0.0,0.0,0.0,0.0,0.0,0.0,0.0,0.0,0.0,0.0,0.0,0.0,0.0,0.0,-3.8487,-4.0086,-4.1735,-4.3331,-4.3441,-4.2763,-4.1224,-4.0948,-4.0251,-3.8799,0.0,0.0,0.0,0.0,0.0,0.0,0.0,0.0,0.0,0.0,0.0,0.0,0.0,0.0,0.0,0.0,0.0,0.0,0.0,0.0,0.0,0.0,0.0,0.0,0.0,0.0,0.0,0.0,0.0,0.0,0.0,0.0,0.0,0.0,0.0,0.0,0.0,0.0,0.0,0.0,0.0,0.0,0.0,0.0,0.0,0.0,0.0,0.0,0.0,0.0,0.0,0.0,0.0,0.0,0.0,0.0,0.0,0.0,0.0,0.0,-3.7909,-3.8247,0.0,0.0,0.0,0.0,0.0,0.0,0.0,0.0,0.0,0.0,0.0,0.0,0.0,0.0,0.0,0.0,0.0,0.0,0.0,0.0,0.0,0.0,0.0,0.0,0.0,0.0,0.0,0.0,0.0,0.0,0.0,0.0,0.0,0.0,0.0,0.0,0.0,0.0,0.0,0.0,-3.8487,-4.0086,-4.1735,-4.3331,-4.2928,-4.2158,-4.1168,-3.9955,-3.9074,-3.8726,-3.8102,0.0,0.0,0.0,0.0,0.0,0.0,0.0,0.0,0.0,0.0,0.0,0.0,0.0,0.0,0.0,0.0,0.0,0.0,0.0,0.0,0.0,0.0,0.0,0.0,0.0,0.0,0.0,0.0,0.0,0.0,0.0,0.0,0.0,0.0,0.0,0.0,0.0,0.0,0.0,0.0,0.0,0.0,0.0,0.0,0.0,0.0,0.0,0.0,0.0,0.0,0.0,0.0,0.0,0.0,0.0,0.0,0.0,0.0,0.0,-3.8169,-3.8522,0.0,0.0,0.0,0.0,0.0,0.0,0.0,0.0,0.0,0.0,0.0,0.0,0.0,0.0,0.0,0.0,0.0,0.0,0.0,0.0,0.0,0.0,0.0,0.0,0.0,0.0,0.0,0.0,0.0,0.0,0.0,0.0,0.0,0.0,0.0,0.0,0.0,0.0,0.0,0.0,-3.8487,-4.0086,-4.1735,-4.3331,-4.313,-4.2396,-4.1187,-4.0325,-3.9517,-3.8762,-3.8303,0.0,0.0,0.0,0.0,0.0,0.0,0.0,0.0,0.0,0.0,0.0,0.0,0.0,0.0,0.0,0.0,0.0,0.0,0.0,0.0,0.0,0.0,0.0,0.0,0.0,0.0,0.0,0.0,0.0,0.0,0.0,0.0,0.0,0.0,0.0,0.0,0.0,0.0,0.0,0.0,0.0,0.0,0.0,0.0,0.0,0.0,0.0,0.0,0.0,0.0,0.0,0.0,0.0,-3.7262,-3.7634,-3.7132,-3.7801,-3.8098,-3.8135,-3.8697,-3.895,-3.8923,-3.8014,0.0,0.0,0.0,0.0,0.0,0.0,0.0,0.0,0.0,0.0,0.0,0.0,0.0,0.0,0.0,0.0,0.0,0.0,0.0,0.0,0.0,0.0,-3.7827,-3.8637,-3.8822,-3.8822,-3.8837,0.0,0.0,0.0,0.0,0.0,0.0,0.0,0.0,0.0,0.0,0.0,-3.8505,-4.023,-4.1881,-4.3349,-4.3368,-4.2707,-4.1224,-4.0838,-4.0104,-3.8781,-3.8579,-3.856,0.0,0.0,0.0,0.0,0.0,0.0,0.0,0.0,0.0,0.0,0.0,0.0,0.0,0.0,0.0,0.0,0.0,0.0,0.0,0.0,0.0,0.0,0.0,0.0,0.0,0.0,0.0,0.0,0.0,0.0,0.0,0.0,-3.7449,-3.8041,0.0,0.0,0.0,0.0,0.0,0.0,0.0,0.0,0.0,0.0,0.0,0.0,0.0,-3.5709,-3.6365,-3.6495,-3.6904,-3.7578,-3.7801,-3.8209,-3.8785,-3.8897,-3.8934,-3.8952,-3.905,0.0,-3.8937,-3.8095,0.0,0.0,0.0,0.0,0.0,0.0,0.0,0.0,0.0,0.0,0.0,0.0,0.0,0.0,0.0,0.0,0.0,0.0,0.0,0.0,0.0,0.0,-3.7899,-3.8711,-3.8896,-3.8892,-3.895,-3.8327,-3.7514,-3.6648,-3.591,-3.5108,0.0,0.0,0.0,0.0,0.0,0.0,-3.8579,-4.0772,-4.2553,-4.3404,-4.2939,-4.2149,-4.1185,-3.9811,-3.8927,-3.8726,-3.8028,-3.7955,-3.867,-3.8707,0.0,0.0,0.0,0.0,0.0,0.0,0.0,0.0,0.0,0.0,0.0,0.0,0.0,0.0,0.0,0.0,0.0,0.0,0.0,0.0,0.0,0.0,0.0,0.0,0.0,0.0,0.0,0.0,0.0,-3.7727,-3.7819,-3.7717,-3.72,-3.6654,0.0,0.0,0.0,0.0,0.0,0.0,0.0,0.0,0.0,-3.5762,-3.6208,-3.6834,-3.7647,-3.7617,-3.8004,-3.8808,-3.9141,-3.9491,-3.9844,-4.029,-4.0513,-4.0476,-4.003,-3.9811,-3.9676,-3.8354,-3.7294,-3.6505,0.0,0.0,0.0,0.0,-3.5993,-3.6307,-3.6334,-3.6883,-3.7474,-3.7013,0.0,0.0,0.0,0.0,0.0,0.0,0.0,-3.5984,-3.686,-3.7429,-3.7965,-3.8765,-3.8968,-3.895,-3.8979,-3.8321,-3.7484,-3.6712,-3.6281,-3.5589,-3.4212,-3.3959,0.0,0.0,0.0,-3.8011,-3.9265,-4.1169,-4.2697,-4.3456,-4.3338,-4.2636,-4.1284,-4.0496,-3.969,-3.8762,-3.8377,-3.8322,-3.8689,-3.8707,-3.8707,0.0,0.0,0.0,0.0,0.0,0.0,0.0,0.0,0.0,0.0,0.0,0.0,0.0,0.0,0.0,0.0,0.0,0.0,0.0,0.0,0.0,0.0,0.0,0.0,0.0,0.0,0.0,0.0,-3.7528,-3.7888,-3.7499,-3.7572,-3.7324,0.0,0.0,0.0,0.0,0.0,0.0,-3.5433,-3.5864,-3.6377,-3.6961,-3.7564,-3.8375,-3.9403,-3.9303,-3.9551,-4.014,-4.0519,-4.0713,-4.0717,-4.133,-4.159,-4.1571,-4.0958,-4.0471,-3.9955,-3.8447,-3.746,-3.6891,-3.6633,-3.6162,-3.5599,-3.5626,-3.5774,-3.5945,-3.5959,-3.6361,-3.6767,-3.6157,-3.5682,-3.5206,-3.4541,0.0,0.0,0.0,0.0,-3.5837,-3.6719,-3.7381,-3.803,-3.8832,-3.9021,-3.9021,-3.9021,-3.8558,-3.7891,-3.7103,-3.6769,-3.6205,-3.4899,-3.4683,0.0,-3.5784,-3.7243,-3.8748,-4.0185,-4.1767,-4.3002,-4.3577,-4.3753,-4.3213,-4.1694,-4.1346,-4.0596,-3.9139,-3.8848,-3.8723,-3.8707,-3.8707,-3.8707,-3.8707,0.0,0.0,0.0,0.0,0.0,0.0,0.0,0.0,0.0,0.0,0.0,0.0,0.0,0.0,0.0,0.0,0.0,0.0,0.0,0.0,0.0,0.0,0.0,0.0,0.0,0.0,0.0,0.0,0.0,-3.7506,-3.7753,0.0,0.0,0.0,0.0,-3.5778,-3.6377,-3.6748,-3.6622,-3.6647,-3.7651,-3.9824,-3.9929,-4.0681,-4.2183,-4.1942,-4.1839,-4.1869,-4.1637,-4.1534,-4.1534,-4.1571,-4.159,-4.159,-4.1553,-4.0643,-3.9101,-3.8247,-3.7835,-3.7669,-3.6891,-3.6535,-3.6444,-3.6512,-3.702,-3.7669,-3.7755,-3.7801,-3.7819,-3.7769,-3.6689,-3.5377,-3.5353,-3.5282,0.0,0.0,-3.6501,-3.6737,-3.762,-3.7856,-3.8098,-3.8915,-3.9101,-3.9101,-3.9101,-3.9064,-3.8804,-3.7986,-3.7225,-3.6655,-3.6496,0.0,-3.6716,-3.7461,-3.8962,-4.0295,-4.1216,-4.2778,-4.3812,-4.3786,-4.3851,-4.3532,-4.2601,-4.1773,-4.0911,-3.9986,-3.923,-3.878,-3.8707,-3.8707,-3.8707,-3.8707,-3.8707,0.0,0.0,0.0,0.0,0.0,0.0,0.0,0.0,0.0,0.0,0.0,0.0,0.0,0.0,0.0,0.0,0.0,0.0,0.0,0.0,0.0,0.0,0.0,0.0,0.0,0.0,0.0,0.0,-3.7763,-3.8469,0.0,-3.8498,-3.8304,-3.7941,-3.7348,-3.8083,-3.8554,-3.8492,-3.9401,-4.0292,-4.1102,-4.1641,-4.244,-4.3551,-4.2857,-4.2773,-4.327,-4.3032,-4.279,-4.2651,-4.3175,-4.3322,-4.3113,-4.2593,-4.2036,-4.1386,-4.0048,-3.8846,-3.7885,-3.8126,-3.789,-3.7399,-3.7426,-3.7291,-3.7106,-3.7113,-3.7145,-3.7145,-3.7145,-3.671,-3.6233,-3.6233,-3.622,-3.6281,-3.6573,-3.705,-3.7514,-3.7819,-3.8284,-3.8729,-3.9027,-3.9101,-3.9101,-3.9101,-3.9101,-3.9027,-3.8729,-3.8024,-3.7299,-3.6753,-3.7087,-3.7705,-3.8475,-3.9956,-4.1295,-4.2128,-4.3214,-4.3899,-4.3867,-4.3929,-4.3611,-4.2733,-4.1903,-4.0821,-3.9379,-3.9179,-3.8809,-3.8099,-3.8799,-3.9141,-3.9021,-3.9156,-3.9272,0.0,0.0,0.0,0.0,0.0,0.0,0.0,0.0,0.0,0.0,0.0,0.0,0.0,0.0,0.0,0.0,0.0,0.0,0.0,0.0,0.0,0.0,0.0,0.0,0.0,0.0,-3.846,-3.846,-3.9347,-3.9937,-3.9944,-3.9687,-3.9385,-3.9108,-3.9862,-4.0332,-4.0332,-4.1265,-4.2082,-4.2661,-4.3196,-4.3877,-4.4731,-4.4009,-4.3905,-4.4449,-4.4144,-4.39,-4.3755,-4.4194,-4.4303,-4.4099,-4.3475,-4.3039,-4.2723,-4.1646,-4.0401,-3.9138,-3.9101,-3.8952,-3.8711,-3.8414,-3.8321,-3.8279,-3.7708,-3.7318,-3.7058,-3.6792,-3.6699,-3.6742,-3.7021,-3.7108,-3.7164,-3.7429,-3.7894,-3.8302,-3.8302,-3.8692,-3.9101,-3.9101,-3.9101,-3.9101,-3.9101,-3.9101,-3.9101,-3.9101,-3.8674,-3.8228,-3.8,-3.839,-3.9101,-4.0178,-4.1267,-4.2239,-4.3055,-4.3595,-4.3929,-4.3929,-4.3974,-4.3686,-4.2943,-4.2299,-4.1152,-3.929,-3.9253,-3.888,-3.7942,-3.8664,-3.9182,-3.9326,-3.9439,-3.9564,-3.9677,0.0,0.0,0.0,0.0,0.0,0.0,0.0,0.0,0.0,0.0,0.0,0.0,0.0,0.0,0.0,0.0,0.0,0.0,0.0,0.0,0.0,0.0,0.0,-3.6897,-3.8479,-3.9649,-3.9668,-4.0386,-4.0873,-4.0889,-4.1633,-4.1789,-4.0932,-4.1622,-4.2086,-4.2086,-4.2106,-4.2899,-4.4574,-4.4632,-4.5005,-4.5788,-4.5481,-4.5314,-4.5312,-4.4985,-4.4812,-4.48,-4.4546,-4.4411,-4.4402,-4.4121,-4.3574,-4.285,-4.2813,-4.2348,-4.1475,-3.9788,-3.9672,-4.0304,-3.9417,-4.0123,-4.1293,-3.9658,-3.8581,-3.7801,-3.7021,-3.6773,-3.6922,-3.7689,-3.7931,-3.8098,-3.8878,-3.9101,-3.9101,-3.9101,-3.9101,-3.9101,-3.9101,-3.9101,-3.9101,-3.9115,-3.9115,-3.9115,-3.9129,-3.9147,-3.9426,-4.0281,-4.0448,-4.1025,-4.2571,-4.2831,0.0,-4.3909,-4.4036,-4.4017,-4.4017,-4.4017,-4.3804,-4.3253,-4.2934,-4.1876,-3.9822,-3.9432,-3.8989,-3.8339,-3.8362,-3.875,-3.9603,-3.9552,-3.9931,-4.0834,0.0,0.0,0.0,0.0,0.0,0.0,0.0,0.0,0.0,0.0,0.0,0.0,0.0,0.0,0.0,0.0,0.0,0.0,0.0,0.0,0.0,0.0,-3.8833,-3.8831,-3.9782,-4.0696,-4.1336,-4.2169,-4.2695,-4.2685,-4.2892,-4.2918,-4.2628,-4.3401,-4.3885,-4.3885,-4.4446,-4.4968,-4.5452,-4.5471,-4.5573,-4.5807,-4.5708,-4.5643,-4.5586,-4.5495,-4.5322,-4.5085,-4.5,-4.4872,-4.4676,-4.4416,-4.4158,-4.3915,-4.3334,-4.296,-4.2571,-4.0742,-4.0281,-4.0486,-3.9481,-3.938,-3.9714,-3.925,-3.8952,-3.8729,-3.8507,-3.8432,-3.8469,-3.8692,-3.8767,-3.8822,-3.9045,-3.9101,-3.9101,-3.9101,-3.9101,-3.9101,-3.9101,-3.9101,-3.9137,-3.935,-3.9401,-3.9433,-3.959,-4.0116,-4.0577,-4.0665,-4.1657,-4.258,-4.3016,-4.3596,-4.4046,-4.427,-4.4471,-4.4572,-4.4572,-4.4572,-4.4259,-4.3473,-4.2278,-4.1045,-3.9859,-3.9281,-3.8855,-3.8534,-3.9395,-3.9985,-4.0177,-3.9982,-4.0298,0.0,0.0,0.0,0.0,0.0,0.0,0.0,0.0,0.0,0.0,0.0,0.0,0.0,0.0,0.0,0.0,0.0,0.0,0.0,0.0,0.0,0.0,-3.9296,-4.0534,-4.1625,-4.2188,-4.2648,-4.3178,-4.3677,-4.4112,-4.4451,-4.4155,-4.4078,-4.4376,-4.486,-4.5137,-4.5104,-4.5548,-4.5807,-4.5807,-4.5807,-4.5793,-4.5791,-4.5795,-4.5785,-4.5738,-4.5717,-4.5594,-4.541,-4.5253,-4.5107,-4.4943,-4.4688,-4.4352,-4.3981,-4.3522,-4.3127,-4.2718,0.0,0.0,0.0,0.0,-4.0387,-3.9794,-3.9677,-3.9398,-3.9101,-3.9101,-3.9101,-3.9101,-3.9101,-3.9101,-3.9101,-3.9101,-3.9361,-3.964,-3.964,-3.9881,-4.0184,-4.0285,-4.0037,-3.9842,-4.0113,-3.9878,-3.966,-3.9775,-4.087,0.0,-4.1616,-4.2578,-4.3473,-4.3818,-4.4271,-4.4572,-4.4572,-4.4701,-4.4788,-4.4788,-4.4466,-4.3964,-4.324,-4.22,0.0,0.0,0.0,-3.926,-3.8907,-3.9925,0.0,0.0,0.0,-4.1323,-4.2565,-4.284,0.0,0.0,-4.4505,-4.463,0.0,0.0,0.0,0.0,0.0,0.0,0.0,0.0,0.0,0.0,0.0,0.0,0.0,0.0,0.0,0.0,-4.0597,-4.2034,-4.4462,-4.487,-4.4948,-4.4948,-4.4948,-4.5209,-4.5919,-4.5293,-4.5134,-4.5848,-4.59,-4.5867,-4.5814,-4.5807,0.0,0.0,0.0,-4.5807,-4.5807,-4.5791,-4.5788,-4.5807,-4.573,-4.5709,-4.5682,-4.5381,-4.5253,-4.5232,-4.4954,-4.4407,-4.3694,-4.3694,-4.3289,-4.2659,-4.25,-4.28,-4.3291,-4.319,-4.2159,-4.0791,-4.0555,0.0,0.0,-3.9156,-3.9184,-3.925,-3.925,-3.925,-3.925,-3.925,-3.9788,-4.0416,-4.044,-4.1035,-4.1698,-4.1862,-4.1312,-4.0778,-4.0972,-4.039,-3.9851,-3.9872,-4.1359,-4.2632,-4.2728,-4.3327,-4.4014,-4.4742,-4.4856,-4.4856,-4.4856,-4.4861,-4.4884,-4.4884,-4.4201,0.0,-4.2928,-4.2591,-4.1596,-3.9704,-3.994,-3.9923,-3.9469,-4.0131,-4.0912,-4.1769,-4.1736,-4.2565,-4.4294,-4.4229,-4.4652,-4.5504,-4.5201,-4.5085,0.0,0.0,0.0,0.0,0.0,0.0,0.0,0.0,0.0,0.0,0.0,0.0,0.0,0.0,0.0,-4.0519,-4.1976,-4.3413,-4.4637,-4.5356,-4.5769,-4.5769,-4.5769,-4.5836,-4.5978,-4.5861,-4.5786,-4.5886,-4.5893,-4.5893,-4.5886,-4.5821,-4.5807,-4.5807,-4.5807,-4.5807,-4.5807,-4.58,-4.5798,-4.5807,-4.5792,0.0,-4.5692,-4.5629,-4.5594,-4.5586,-4.5253,-4.5042,-4.4859,-4.4859,-4.4917,-4.4815,-4.3252,-4.2218,-4.1688,-4.2495,-4.205,-4.1029,-4.0972,-4.0289,-3.9408,-3.9408,-3.9738,-4.0155,-4.0155,-4.0155,0.0,-4.0155,-4.0285,-4.0454,-4.0656,-4.1321,-4.1805,-4.1387,-4.1162,-4.0896,-4.0462,-4.0244,-4.0177,-4.0328,-4.1242,-4.2208,-4.29,-4.4058,-4.4946,-4.5099,-4.5118,-4.5118,-4.5118,-4.5312,-4.5457,-4.5457,-4.5285,-4.4881,-4.4063,-4.3345,-4.249,-4.1385,-4.0745,-4.038,-4.0265,-4.0419,-4.0912,-4.1769,-4.1788,-4.2607,-4.4308,-4.4299,-4.4722,-4.5577,-4.5467,-4.5438,0.0,0.0,0.0,0.0,0.0,0.0,0.0,0.0,0.0,0.0,0.0,-3.9762,0.0,0.0,-4.1238,-4.2053,-4.3297,-4.4443,-4.5278,-4.5749,-4.6002,-4.6002,-4.6002,-4.5997,-4.6,-4.6,-4.5989,-4.5955,-4.5925,-4.5899,-4.59,-4.5847,-4.5807,-4.5807,-4.5807,-4.5807,-4.5807,-4.5807,-4.5793,-4.5798,-4.5795,-4.5773,-4.5758,-4.5711,-4.5695,-4.5687,-4.5531,-4.5189,-4.4767,-4.4336,-4.4228,-4.4288,-4.373,-4.3446,-4.3349,-4.3349,-4.2744,-4.1829,-4.1293,-4.0672,-4.0103,-4.0103,-4.0507,-4.0996,-4.0996,-4.0996,-4.1039,-4.1171,-4.1492,-4.186,-4.2128,-4.2793,-4.3365,-4.3194,-4.2514,-4.1968,-4.22,-4.1594,-4.1025,-4.1127,-4.2181,-4.3066,-4.3085,-4.4372,-4.541,-4.541,-4.541,-4.541,-4.541,-4.5513,-4.5594,-4.5594,-4.521,-4.4759,-4.4335,-4.3162,-4.2085,-4.12,-4.0746,-4.0496,-4.0496,-4.0912,-4.1566,-4.2431,-4.2854,-4.3682,-4.496,-4.496,-4.5171,-4.5594,-4.5568,-4.5568,0.0,0.0,0.0,0.0,0.0,0.0,0.0,0.0,-4.0616,-4.2131,-4.1374,-4.0849,-4.2189,-4.2583,-4.2947,-4.3646,-4.4462,-4.5258,-4.5905,-4.6002,-4.6002,-4.6002,-4.6002,-4.6002,-4.6002,-4.6002,-4.5991,-4.6008,-4.5955,-4.5905,-4.5893,-4.5854,-4.5814,-4.5807,-4.5807,-4.5807,-4.5807,-4.5807,-4.5807,-4.5807,-4.5791,-4.5795,-4.5795,-4.5739,-4.5715,-4.5715,-4.5706,-4.5296,-4.4595,-4.388,-4.3585,-4.3643,-4.4297,-4.4979,-4.55,-4.4624,-4.3752,-4.2881,-4.2023,-4.1321,-4.0853,-4.1022,-4.1351,-4.1692,-4.1931,-4.194,-4.1969,-4.2245,-4.278,-4.3334,-4.3611,-4.4277,-4.4893,-4.5001,-4.3876,-4.3015,-4.3878,-4.2874,-4.1846,-4.2019,-4.3143,-4.3912,-4.3412,-4.4451,-4.5402,-4.5575,-4.5594,-4.5594,-4.5594,-4.5594,-4.5594,-4.5594,-4.4979,-4.447,-4.4316,-4.2912,-4.1758,-4.1054,-4.0862,-4.0823,-4.0997,-4.1681,-4.247,-4.3316,-4.397,-4.472,-4.5594,-4.5594,-4.5594,-4.5594,-4.5594,-4.5594,-3.7584,-3.725,-3.7597,-3.8456,-3.9256,-4.0228,0.0,0.0,-4.2189,-4.3161,-4.3214,-4.3136,-4.3316,-4.3996,-4.454,-4.4637,-4.5336,-4.5905,-4.5982,-4.6002,-4.6002,-4.6002,-4.6002,-4.6002,-4.6002,-4.6002,-4.5997,-4.5997,-4.5989,-4.596,-4.5905,-4.5893,-4.586,-4.5807,-4.5807,-4.5807,-4.5807,-4.5807,-4.5807,-4.5807,-4.58,-4.58,-4.58,-4.5795,-4.5781,-4.5792,-4.5734,-4.5643,-4.5539,-4.5381,-4.5325,-4.5325,-4.5421,-4.5518,-4.5594,-4.5472,-4.4867,-4.4098,-4.3976,-4.2794,-4.1445,-4.2218,-4.22,-4.2061,-4.3064,-4.3202,-4.309,-4.3359,-4.3488,-4.3623,-4.3887,-4.455,-4.5031,-4.4525,-4.3705,-4.3099,-4.3212,-4.2489,-4.2019,-4.2797,-4.3104,-4.3431,-4.4066,-4.4316,-4.4701,-4.5479,-4.5594,-4.5594,-4.5594,-4.5594,-4.5594,-4.5594,-4.5518,-4.5152,-4.4374,-4.347,-4.2912,-4.2816,-4.2085,-4.2008,-4.2777,-4.2893,-4.3335,-4.4143,-4.4239,-4.472,-4.5594,-4.5594,-4.5594,-4.5594,-4.5594,-4.5594,-3.7263,-3.7456,-3.8169,0.0,-4.0499,-4.1471,-4.2675,-4.2966,-4.3199,-4.4074,-4.4268,-4.4404,-4.487,-4.5239,-4.5491,0.0,-4.5788,-4.6002,-4.6002,-4.6002,-4.6002,-4.6002,-4.6002,-4.6002,-4.6002,-4.6002,-4.6002,-4.6002,-4.5994,-4.596,-4.5892,-4.5899,-4.586,-4.5807,-4.5807,-4.5807,-4.5807,-4.5807,-4.5807,-4.5807,-4.5807,-4.5807,-4.5807,-4.5805,-4.581,-4.5807,-4.577,-4.575,-4.5701,-4.5657,-4.564,-4.5594,-4.5594,-4.5594,-4.5594,-4.5594,-4.5056,-4.4297,-4.4297,-4.3674,-4.2899,-4.3291,-4.3487,-4.3687,-4.4139,-4.4215,-4.4191,-4.446,-4.4538,-4.4592,-4.4854,-4.5189,-4.5371,-4.5107,-4.4412,-4.3797,-4.3797,-4.3508,-4.322,-4.3124,-4.3893,-4.4489,-4.4335,-4.472,-4.519,-4.5556,-4.5594,-4.5594,-4.5594,-4.5594,-4.5594,-4.5594,-4.5152,-4.4701,-4.4335,-4.3989,-4.3605,-4.3124,-4.2758,-4.272,-4.3085,-4.3547,-4.3951,-4.4297,-4.4797,-4.5248,-4.5594,-4.5594,-4.5594,-4.5594,-4.5594,-4.5594,-3.7029,0.0,0.0,-4.0538,-4.1743,-4.2772,-4.3636,-4.3825,-4.4078,-4.4957,-4.5131,-4.5311,-4.588,-4.6002,-4.6002,-4.6002,-4.6002,-4.6002,-4.6002,-4.6002,-4.6002,-4.6002,-4.6002,-4.6002,-4.6002,-4.6002,-4.6002,-4.6002,-4.6,-4.5978,-4.5923,-4.5912,-4.588,-4.5821,-4.5814,-4.5807,-4.5807,-4.5807,-4.5807,-4.5807,-4.5807,-4.5807,-4.5807,-4.5807,-4.5812,-4.5803,-4.5795,-4.577,-4.5734,-4.5706,-4.5673,-4.5631,-4.5631,-4.5622,-4.5594,-4.5594,-4.521,-4.4662,-4.4662,-4.4382,-4.4058,-4.4288,-4.444,-4.4604,-4.492,-4.4973,-4.4973,-4.5232,-4.5312,-4.5371,-4.5559,-4.5594,-4.5594,-4.5594,-4.4932,-4.4374,-4.4605,-4.4297,-4.3932,-4.3816,-4.4566,-4.5133,-4.472,-4.519,-4.5594,-4.5594,-4.5594,-4.5594,-4.5594,-4.5594,-4.5594,-4.5594,-4.5037,-4.4566,-4.4316,-4.4297,-4.4047,-4.347,-4.3431,-4.3547,-4.3778,-4.4355,-4.4662,-4.4662,-4.5287,-4.5594,-4.5594,-4.5594,-4.5594,-4.5594,-4.5594,-4.5594,0.0,0.0,-3.9858,-4.0694,-4.2189,-4.3675,-4.4483,-4.4652,-4.4905,-4.5784,-4.5958,-4.5969,-4.5997,-4.6002,-4.6002,-4.6002,-4.6002,-4.6002,-4.6002,-4.6002,-4.6002,-4.6002,-4.6002,-4.6002,0.0,-4.6002,-4.6002,-4.6002,-4.6002,-4.6005,-4.5997,-4.5943,-4.5893,-4.59,-4.5821,-4.5807,-4.5807,-4.5807,-4.5807,-4.5807,-4.5807,-4.5807,-4.5807,-4.5807,-4.5807,-4.58,-4.5803,-4.5807,-4.5781,-4.5723,-4.5695,-4.5701,-4.5701,-4.5648,-4.5594,-4.5594,-4.5575,-4.5556,-4.5556,-4.5009,-4.4423,-4.5278,-4.4815,-4.4132,-4.5245,-4.5381,-4.5243,-4.5513,-4.5586,-4.5586,-4.5594,-4.5594,-4.5594,-4.5594,-4.4932,-4.4528,-4.5383,-4.4278,-4.3605,-4.521,-4.4874,-4.4605,-4.5421,-4.5575,-4.5594,-4.5594,-4.5594,-4.5594,-4.5594,-4.5594,-4.5594,-4.5594,-4.5575,-4.5229,-4.4374,-4.4297,-4.4297,-4.4259,-4.4259,-4.4643,-4.5498,-4.5556,-4.5556,-4.5556,-4.5594,-4.5594,-4.5594,-4.5594,-4.5594,-4.5594,-4.5594,-4.5594,0.0,0.0,-4.0849,-4.2267,-4.3476,-4.4528,-4.5376,-4.5534,-4.558,-4.5933,-4.5079,-4.4289,-4.434,-4.4345,-4.4345,-4.4345,-4.5278,-4.6002,-4.6002,-4.6002,-4.6002,-4.6002,-4.6002,0.0,0.0,0.0,0.0,-4.6002,-4.6002,-4.6005,-4.5997,-4.5949,-4.5893,-4.59,-4.5827,-4.5807,-4.5807,-4.5807,-4.5807,-4.5807,-4.5807,-4.5807,-4.5807,-4.5807,-4.5807,-4.5807,-4.5793,-4.5791,-4.5807,-4.5773,-4.5743,-4.5703,-4.569,-4.5693,-4.5657,-4.5622,-4.5594,-4.5594,-4.5594,-4.5421,-4.521,-4.5498,-4.5339,-4.5101,-4.5481,-4.555,-4.5485,-4.5577,-4.5594,-4.5594,-4.5594,-4.5594,-4.546,-4.4874,-4.4509,-4.4085,-4.3258,-4.3508,-4.3912,-4.3932,-4.4605,-4.5267,-4.5556,-4.5594,-4.5594,-4.5594,-4.5594,-4.5594,-4.5594,-4.5094,-4.496,-4.5537,-4.5075,-4.4855,-4.5152,-4.5171,-4.5171,-4.5171,-4.5171,-4.5287,-4.5594,-4.5594,-4.5594,-4.5594,-4.5594,-4.5594,-4.5594,-4.5594,-4.5594,-4.5594,-4.5594,-4.5594,0.0,-4.0466,-4.2136,-4.3573,-4.4522,-4.5276,-4.5846,-4.5925,-4.5821,-4.5586,-4.4636,-4.3696,-4.3131,-4.3297,-4.3394,-4.3083,-4.419,-4.522,-4.553,-4.5574,-4.5691,-4.5963,-4.6002,-4.6002,0.0,0.0,0.0,-4.6002,-4.6002,-4.5991,-4.5994,-4.5935,-4.5899,-4.5899,-4.5834,-4.5807,-4.5807,-4.5807,-4.5807,-4.5807,-4.5807,-4.5807,-4.5807,-4.5807,-4.5807,-4.5807,-4.5807,-4.5793,-4.581,-4.581,-4.5761,-4.5743,-4.5738,-4.5714,-4.5698,-4.5657,-4.564,-4.5631,-4.5614,-4.5594,-4.5594,-4.5594,-4.5594,-4.5594,-4.5594,-4.5594,-4.5594,-4.5594,-4.5594,-4.5594,-4.5594,-4.5594,-4.546,-4.4893,-4.4759,-4.447,-4.3393,-4.3528,-4.3893,-4.397,-4.4374,-4.4902,-4.5498,-4.5594,-4.5594,-4.5594,-4.5594,-4.5594,-4.5594,-4.5114,-4.4979,-4.5537,-4.5094,-4.4998,-4.5556,-4.5594,-4.5594,-4.5594,-4.5594,-4.5594,-4.5594,-4.5594,-4.5594,-4.5594,-4.5594,-4.5594,-4.5594,-4.5594,-4.5594,-4.5594,-4.5594,-4.5594,-4.0477,-4.2161,-4.3677,-4.453,-4.5347,-4.5899,-4.5906,-4.588,-4.5635,-4.4904,-4.462,-4.4023,0.0,0.0,-4.3117,-4.233,-4.2966,-4.3879,-4.4734,-4.4851,-4.5142,0.0,0.0,0.0,0.0,0.0,0.0,-4.6002,-4.6002,-4.6002,-4.6002,-4.5947,-4.5911,-4.5911,-4.5822,-4.5807,-4.5807,-4.5807,-4.5807,-4.5807,-4.5807,-4.5807,-4.5807,-4.5807,-4.5807,-4.5807,-4.5807,-4.5807,-4.5807,-4.5807,-4.5805,-4.5807,-4.5807,-4.5765,-4.5708,-4.5698,-4.5701,-4.5693,-4.5631,-4.5594,-4.5594,-4.5594,-4.5594,-4.5594,-4.5594,-4.5594,-4.5594,-4.5594,-4.5594,-4.5594,-4.5594,-4.5594,-4.5594,-4.5537,-4.5537,-4.5518,-4.5479,-4.4239,-4.3624,-4.5229,-4.4278,-4.372,-4.5325,-4.5594,-4.5594,-4.5594,-4.5594,-4.5594,-4.5594,-4.5594,-4.5594,-4.5594,-4.5594,-4.5594,-4.5594,-4.5594,-4.5594,-4.5594,-4.5594,-4.5594,-4.5594,-4.5594,-4.5594,-4.5594,-4.5594,-4.5594,-4.5594,-4.5594,-4.5594,-4.5594,-4.5594,-4.5594,-4.2265,-4.3548,-4.4579,-4.5394,-4.5744,-4.5906,-4.59,-4.5389,-4.5073,-4.5493,-4.3562,-4.1875,0.0,0.0,0.0,-4.2131,-4.3471,0.0,-4.5574,-4.5691,0.0,-4.5982,0.0,-4.6002,-4.6002,-4.6002,0.0,0.0,-4.6002,-4.6002,-4.6002,-4.5947,-4.5911,-4.5911,-4.5822,-4.5807,-4.5807,-4.5807,-4.5807,-4.5807,-4.5807,-4.5807,-4.5807,-4.5807,-4.5807,-4.5807,-4.5807,-4.5807,-4.5807,-4.5807,-4.58,-4.5805,-4.5795,-4.5781,-4.5765,-4.5727,-4.5706,-4.5701,-4.5684,-4.564,-4.5594,-4.5594,-4.5594,-4.5594,-4.5594,-4.5594,-4.5594,-4.5594,-4.5594,-4.5594,-4.5594,-4.5594,-4.5441,-4.4778,-4.4624,-4.447,-4.3874,-4.3874,-4.4124,-4.4547,-4.4806,-4.5094,-4.5537,-4.5594,-4.5594,-4.5594,-4.5594,-4.5594,-4.5594,-4.5594,-4.5594,-4.5594,-4.5594,-4.5594,-4.5594,-4.5594,-4.5594,-4.5594,-4.5594,-4.5594,-4.5594,-4.5594,-4.5594,-4.5594,-4.5594,-4.5594,-4.5594,-4.5594,-4.5594,-4.5594,-4.5594,-4.5594,-4.3569,-4.455,-4.5344,-4.579,-4.588,-4.5757,-4.5408,-4.4943,-4.453,-4.4279,-4.2717,0.0,-4.1091,0.0,0.0,0.0,0.0,0.0,-4.5297,-4.5472,-4.5594,0.0,-4.6002,0.0,-4.6002,-4.6002,-4.6002,0.0,-4.6002,-4.6002,-4.6002,-4.5958,-4.5923,-4.5892,-4.5861,-4.5821,-4.5807,-4.5807,-4.5807,-4.5807,-4.5807,-4.5807,-4.5807,-4.5807,-4.5807,-4.5807,-4.5807,-4.5807,-4.5807,-4.5807,-4.5807,-4.58,-4.5798,-4.5791,-4.581,-4.5765,-4.5735,-4.5738,-4.5714,-4.5682,-4.564,-4.5622,-4.5594,-4.5594,-4.5594,-4.5594,-4.5594,-4.5594,-4.5594,-4.5594,-4.5594,-4.5594,-4.5479,-4.4998,-4.4874,-4.4739,-4.4278,-4.4239,-4.4297,-4.4297,-4.4998,-4.5594,-4.5594,-4.5594,-4.5594,-4.5594,-4.5594,-4.5594,-4.5594,-4.5594,-4.5594,-4.5594,-4.5594,-4.5594,-4.5594,-4.5594,-4.5594,-4.5594,-4.5594,-4.5594,-4.5594,-4.5594,-4.5594,-4.5594,-4.5594,-4.5594,-4.5594,-4.5594,-4.5594,-4.5594,-4.5594,-4.5594,-4.455,-4.5305,-4.5893,-4.5893,-4.575,-4.5452,-4.4755,-4.442,-4.3892,-4.2544,0.0,-4.1523,-4.0188,-4.0451,-4.0965,-4.1189,0.0,-4.2855,-4.4695,-4.487,-4.5103,-4.5905,-4.6002,-4.6002,-4.6002,-4.6002,-4.6002,-4.6002,-4.6002,-4.6002,-4.6002,-4.5994,-4.596,-4.5905,-4.5893,-4.5854,-4.5807,-4.5807,-4.5807,-4.5807,-4.5807,-4.5807,-4.5807,-4.5807,-4.5807,-4.5807,-4.5807,-4.5807,-4.5807,-4.5807,-4.5807,-4.5807,-4.5807,-4.5807,-4.58,-4.581,-4.5788,-4.5781,-4.5723,-4.5703,-4.5682,-4.564,-4.5603,-4.5603,-4.5603,-4.5603,-4.5603,-4.5603,-4.5614,-4.5594,-4.5594,-4.5594,-4.5594,-4.5594,-4.5594,-4.5594,-4.5594,-4.5017,-4.447,-4.447,-4.5075,-4.5594,-4.5594,-4.5594,-4.5594,-4.5594,-4.5594,-4.5594,-4.5594,-4.5594,-4.5594,-4.5594,-4.5594,-4.5594,-4.5594,-4.5594,-4.5594,-4.5594,-4.5594,-4.5594,-4.5594,-4.5594,-4.5594,-4.5594,-4.5594,-4.5594,-4.5594,-4.5594,-4.5594,-4.5594,-4.5594,-4.5594,-4.5369,-4.5698,-4.5814,-4.5814,-4.5304,-4.4775,-4.4632,-4.3498,0.0,0.0,-4.1996,-4.1157,-4.16,-4.1203,-4.1288,-4.2737,0.0,0.0,0.0,0.0,-4.5103,0.0,0.0,0.0,0.0,-4.6002,0.0,0.0,-4.6002,-4.6002,-4.6002,-4.5994,-4.5968,-4.5912,-4.5854,-4.5814,-4.5807,-4.5807,-4.5807,-4.5807,-4.5807,-4.5807,-4.5807,-4.5807,-4.5807,-4.5807,-4.5807,-4.5807,-4.5807,-4.5807,-4.5807,-4.5807,-4.5807,-4.5807,-4.5807,-4.58,-4.5798,-4.5807,-4.58,-4.575,-4.5711,-4.5682,-4.5693,-4.5693,-4.5693,-4.5693,-4.5693,-4.5693,-4.564,-4.5594,-4.5594,-4.5594,-4.5594,-4.5594,-4.5594,-4.5594,-4.5594,-4.5479,-4.5364,-4.5364,-4.5498,-4.5594,-4.5594,-4.5594,-4.5594,-4.5594,-4.5594,-4.5594,-4.5594,-4.5594,-4.5594,-4.5594,-4.5594,-4.5594,-4.5594,-4.5594,-4.5594,-4.5594,-4.5594,-4.5594,-4.5594,-4.5594,-4.5594,-4.5594,-4.5594,-4.5594,-4.5594,-4.5594,-4.5594,-4.5594,-4.5594,-4.5594,-4.571,-4.5807,-4.5807,-4.5807,-4.52,-4.4478,-4.404,0.0,0.0,0.0,-4.1351,-4.0938,-4.135,0.0,0.0,0.0,0.0,0.0,0.0,0.0,0.0,0.0,0.0,0.0,0.0,-4.6002,-4.6002,-4.6002,-4.6002,-4.6002,-4.6002,-4.5978,-4.5937,-4.5906,-4.5834,-4.5807,-4.5807,-4.5807,-4.5807,-4.5807,-4.5807,-4.5807,-4.5807,-4.5807,-4.5807,-4.5807,-4.5807,-4.5807,-4.5807,-4.5807,-4.5807,-4.5807,-4.5807,-4.5807,-4.5807,-4.5807,-4.5793,-4.5798,-4.5798,-4.5769,-4.5758,-4.5754,-4.573,-4.5695,-4.5695,-4.5695,-4.5695,-4.5695,-4.5682,-4.5648,-4.5648,-4.5631,-4.5594,-4.5594,-4.5594,-4.5594,-4.5594,-4.5594,-4.5594,-4.5594,-4.5594,-4.5594,-4.5594,-4.5594,-4.5594,-4.5594,-4.5594,-4.5594,-4.5594,-4.5594,-4.5594,-4.5594,-4.5594,-4.5594,-4.5594,-4.5594,-4.5594,-4.5594,-4.5594,-4.5594,-4.5594,-4.5594,-4.5594,-4.5594,-4.5594,-4.5594,-4.5594,-4.5594,-4.5594,-4.5594,-4.5594,-4.5594,-4.5749,-4.5807,-4.5807,-4.5807,-4.5045,-4.413,-4.346,-4.2492,0.0,0.0,-4.0797,-4.0803,-4.0802,0.0,-4.1098,0.0,0.0,0.0,0.0,0.0,0.0,0.0,0.0,0.0,0.0,-4.6002,0.0,-4.6002,-4.6002,-4.6002,-4.6002,-4.5953,-4.5917,-4.5892,-4.5848,-4.5814,-4.5807,-4.5807,-4.5807,-4.5807,-4.5807,-4.5807,-4.5807,-4.5807,-4.5807,-4.5807,-4.5807,-4.5807,-4.5807,-4.5807,-4.5807,-4.5807,-4.5807,-4.5807,-4.5807,-4.5807,-4.5807,-4.5807,-4.5807,-4.5805,-4.5803,-4.5803,-4.5754,-4.5715,-4.5715,-4.5715,-4.5715,-4.5715,-4.5711,-4.569,-4.5701,-4.5657,-4.5622,-4.5594,-4.5594,-4.5594,-4.5594,-4.5594,-4.5594,-4.5594,-4.5594,-4.5594,-4.5594,-4.5594,-4.5594,-4.5594,-4.5594,-4.5594,-4.5594,-4.5594,-4.5594,-4.5594,-4.5594,-4.5594,-4.5594,-4.5594,-4.5594,-4.5594,-4.5594,-4.5594,-4.5594,-4.5594,-4.5594,-4.5594,-4.5594,-4.5594,-4.5594,-4.5594,-4.5594,-4.5594,-4.5594,-4.5594,-4.5594,-4.5807,-4.5807,-4.5807,-4.4601,-4.3401,-4.3324,0.0,0.0,-4.0816,-4.0797,-4.0797,-4.0797,-4.0802,-4.1083,0.0,0.0,-4.1907,0.0,0.0,0.0,0.0,0.0,0.0,0.0,-4.6002,-4.6002,-4.6002,-4.6002,-4.6002,-4.6002,-4.5989,-4.596,-4.5892,-4.5893,-4.586,-4.5807,-4.5807,-4.5807,-4.5807,-4.5807,-4.5807,-4.5807,-4.5807,-4.5807,-4.5807,-4.5807,-4.5807,-4.5807,-4.5807,-4.5807,-4.5807,-4.5807,-4.5807,-4.5807,-4.5807,-4.5807,-4.5807,-4.5807,-4.58,-4.58,-4.58,-4.5791,-4.5781,-4.5781,-4.5781,-4.5781,-4.5781,-4.575,-4.5692,-4.569,-4.5701,-4.5684,-4.5603,-4.5594,-4.5594,-4.5594,-4.5594,-4.5594,-4.5594,-4.5594,-4.5594,-4.5594,-4.5594,-4.5594,-4.5594,-4.5594,-4.5594,-4.5594,-4.5594,-4.5594,-4.5594,-4.5594,-4.5594,-4.5594,-4.5594,-4.5594,-4.5594,-4.5594,-4.5594,-4.5594,-4.5594,-4.5594,-4.5594,-4.5594,-4.5594,-4.5594,-4.5594,-4.5594,-4.5594,-4.5594,-4.5594,-4.5568,-4.5807,-4.5807,-4.5807,-4.4543,-4.3305,-4.3305,0.0,-4.0797,-4.0797,-4.0797,-4.0797,-4.0797,-4.0796,-4.0903,-4.1253,0.0,0.0,0.0,0.0,0.0,0.0,0.0,0.0,0.0,0.0,-4.6002,-4.6002,-4.6002,-4.6002,-4.6002,-4.5994,-4.5991,-4.596,-4.5925,-4.5893,-4.586,-4.5814,-4.5807,-4.5807,-4.5807,-4.5807,-4.5807,-4.5807,-4.5807,-4.5807,-4.5807,-4.5807,-4.5807,-4.5807,-4.5807,-4.5807,-4.5807,-4.5807,-4.5807,-4.5807,-4.5807,-4.5807,-4.5807,-4.5807,-4.5807,-4.5807,-4.5793,-4.5805,-4.5805,-4.5805,-4.5805,-4.5805,-4.5776,-4.575,-4.5711,-4.5662,-4.5631,-4.5614,-4.5594,-4.5594,-4.5594,-4.5594,-4.5594,-4.5594,-4.5594,-4.5594,-4.5594,-4.5594,-4.5594,-4.5594,-4.5594,-4.5594,-4.5594,-4.5594,-4.5594,-4.5594,-4.5594,-4.5594,-4.5594,-4.5594,-4.5594,-4.5594,-4.5594,-4.5594,-4.5594,-4.5594,-4.5594,-4.5594,-4.5594,-4.5594,-4.5594,-4.5594,-4.5594,-4.5594,-4.5594,-4.5594,-4.522,-4.5633,-4.5749,-4.549,-4.4369,-4.3227,0.0,0.0,-4.0797,-4.0797,-4.0797,-4.0797,-4.0797,-4.079,-4.08,-4.0801,0.0,-4.1179,-4.2073,0.0,0.0,0.0,0.0,-4.5258,0.0,-4.621,-4.6002,-4.6002,-4.6002,-4.6002,-4.6002,-4.6,-4.6003,-4.5997,-4.595,-4.5919,-4.59,-4.5854,-4.5814,-4.5807,-4.5807,-4.5807,-4.5807,-4.5807,-4.5807,-4.5807,-4.5807,-4.5807,-4.5807,-4.5807,-4.5807,-4.5807,-4.5807,-4.5807,-4.5807,-4.5807,-4.5807,-4.5807,-4.5807,-4.5807,-4.5807,-4.5807,-4.5807,-4.5807,-4.5807,-4.5807,-4.5807,-4.5807,-4.5791,-4.5765,-4.5715,-4.5643,-4.5594,-4.5594,-4.5594,-4.5594,-4.5594,-4.5594,-4.5594,-4.5594,-4.5594,-4.5594,-4.5594,-4.5594,-4.5594,-4.5594,-4.5594,-4.5594,-4.5594,-4.5594,-4.5594,-4.5594,-4.5594,-4.5594,-4.5594,-4.5594,-4.5594,-4.5594,-4.5594,-4.5594,-4.5594,-4.5594,-4.5594,-4.5594,-4.5594,-4.5594,-4.5594,-4.5594,-4.5594,-4.5594,-4.5594,-4.5594,-4.4381,-4.5181,-4.5613,-4.4813,-4.3962,-4.3073,0.0,0.0,-4.0797,-4.0797,-4.0797,-4.0797,-4.0797,-4.0797,-4.0796,-4.0801,-4.0807,0.0,-4.2068,0.0,0.0,0.0,0.0,-4.4812,-4.4812,-4.553,-4.6002,-4.6002,-4.6002,-4.6002,-4.6002,-4.6002,-4.6005,-4.5997,-4.5997,-4.5968,-4.59,-4.59,-4.586,-4.5807,-4.5807,-4.5807,-4.5807,-4.5807,-4.5807,-4.5807,-4.5807,-4.5807,-4.5807,-4.5807,-4.5807,-4.5807,-4.5807,-4.5807,-4.5807,-4.5807,-4.5807,-4.5807,-4.5807,-4.5807,-4.5807,-4.5807,-4.5807,-4.5807,-4.5807,-4.5807,-4.5807,-4.5807,-4.5749,-4.5708,-4.5708,-4.5643,-4.5594,-4.5594,-4.5594,-4.5594,-4.5594,-4.5594,-4.5594,-4.5594,-4.5594,-4.5594,-4.5594,-4.5594,-4.5594,-4.5594,-4.5594,-4.5594,-4.5594,-4.5594,-4.5594,-4.5594,-4.5594,-4.5594,-4.5594,-4.5594,-4.5594,-4.5594,-4.5594,-4.5594,-4.5594,-4.5594,-4.5594,-4.5594,-4.5594,-4.5594,-4.5594,-4.5594,-4.5594,-4.5594,-4.5594,-4.5594,-4.3472,-4.3904,-4.404,-4.3788,-4.3053,-4.2338,-4.2067,0.0,-4.0797,-4.0797,-4.0797,-4.0797,-4.0797,-4.0797,-4.0809,-4.0806,-4.0796,0.0,0.0,0.0,0.0,0.0,0.0,-4.6268,0.0,0.0,-4.6002,-4.6002,-4.6002,-4.6002,-4.6002,-4.6002,-4.5997,-4.6005,-4.6008,-4.5974,-4.5893,-4.5893,-4.586,-4.5807,-4.5807,-4.5807,-4.5807,-4.5807,-4.5807,-4.5807,-4.5807,-4.5807,-4.5807,-4.5807,-4.5807,-4.5807,-4.5807,-4.5807,-4.5807,-4.5807,-4.5807,-4.5807,-4.5807,-4.5807,-4.5807,-4.5807,-4.5807,-4.5807,-4.5807,-4.5807,-4.5807,-4.5807,-4.5749,-4.5708,-4.5708,-4.5643,-4.5594,-4.5594,-4.5594,-4.5594,-4.5594,-4.5594,-4.5594,-4.5594,-4.5594,-4.5594,-4.5594,-4.5594,-4.5594,-4.5594,-4.5594,-4.5594,-4.5594,-4.5594,-4.5594,-4.5594,-4.5594,-4.5594,-4.5594,-4.5594,-4.5594,-4.5594,-4.5594,-4.5594,-4.5594,-4.5594,-4.5594,-4.5594,-4.5594,-4.5594,-4.5594,-4.5594,-4.5594,-4.5594,-4.5594,-4.5594,0.0,-4.304,-4.3227,-4.2899,-4.2396,0.0,0.0,0.0,-4.0797,-4.0797,-4.1048,-4.1164,-4.0855,-4.1048,-4.1151,-4.0852,0.0,0.0,0.0,0.0,0.0,0.0,0.0,0.0,0.0,-4.5827,-4.6002,-4.6002,-4.6002,-4.6002,-4.6002,-4.6002,-4.6002,-4.6002,-4.6,-4.5978,-4.5949,-4.5912,-4.588,-4.5847,-4.5814,-4.5807,-4.5807,-4.5807,-4.5807,-4.5807,-4.5807,-4.5807,0.0,-4.5807,-4.5807,-4.5807,-4.5807,-4.5807,-4.5807,-4.5807,-4.5807,-4.5807,-4.5807,-4.5807,-4.5807,-4.5807,-4.5807,-4.5807,-4.5807,-4.5807,-4.5807,-4.5807,-4.5757,-4.5723,-4.5708,-4.5671,-4.5631,-4.5614,-4.5594,-4.5594,-4.5594,-4.5594,-4.5594,-4.5594,-4.5594,-4.5594,-4.5594,-4.5594,-4.5594,-4.5594,-4.5594,-4.5594,-4.5594,-4.5594,-4.5594,-4.5594,-4.5594,-4.5594,-4.5594,-4.5594,-4.5594,-4.5594,-4.5594,-4.5594,-4.5594,-4.5594,-4.5594,-4.5594,-4.5594,-4.5594,-4.5594,-4.5594,-4.5594,-4.5594,-4.5594,-4.5594,0.0,0.0,0.0,0.0,0.0,0.0,0.0,0.0,0.0,0.0,0.0,0.0,0.0,0.0,0.0,0.0,0.0,0.0,0.0,0.0,0.0,0.0,-4.4356,0.0,-4.4812,-4.5531,-4.6012,-4.6012,-4.6012,-4.6007,-4.6002,-4.6007,-4.6007,-4.6002,-4.6002,-4.6005,-4.5997,-4.5949,-4.5893,-4.59,-4.5847,-4.5807,-4.5807,-4.5807,-4.5807,-4.5807,-4.5807,-4.5807,-4.5807,-4.5807,-4.5807,-4.5807,-4.5807,-4.5807,-4.5807,-4.5807,-4.5807,-4.5807,-4.5807,-4.5807,-4.5807,-4.5807,-4.5807,-4.5807,-4.5807,-4.5807,-4.5807,-4.5807,-4.5798,-4.5781,-4.5715,-4.5695,-4.5693,-4.5622,-4.5594,-4.5594,-4.5594,-4.5594,-4.5594,-4.5594,-4.5594,-4.5594,-4.5594,-4.5594,-4.5594,-4.5594,-4.5594,-4.5594,-4.5594,-4.5594,-4.5594,-4.5594,-4.5594,-4.5594,-4.5594,-4.5594,-4.5594,-4.5594,-4.5594,-4.5594,-4.5594,-4.5594,-4.5594,-4.5594,-4.5594,-4.5594,-4.5594,-4.5594,-4.5594,-4.5594,-4.5594,-4.5594,-4.0858,0.0,-4.128,-4.1113,-4.1545,0.0,0.0,0.0,0.0,0.0,0.0,0.0,0.0,0.0,0.0,0.0,0.0,0.0,0.0,0.0,0.0,-4.4452,-4.527,-4.5549,-4.493,-4.5595,-4.6072,-4.6072,-4.6072,-4.6044,-4.6007,-4.6054,-4.6044,-4.6002,-4.6002,-4.6005,-4.5997,-4.5991,-4.5956,-4.59,-4.5874,-4.5854,-4.5807,-4.5807,-4.5807,-4.5807,-4.5807,-4.5807,-4.5807,-4.5807,-4.5807,-4.5807,-4.5807,-4.5807,-4.5807,-4.5807,-4.5807,-4.5807,-4.5807,-4.5807,-4.5807,-4.5807,-4.5807,-4.5807,-4.5807,-4.5807,-4.5807,-4.5807,-4.5798,-4.5781,-4.5715,-4.5695,-4.5693,-4.5622,-4.5594,-4.5594,-4.5594,-4.5594,-4.5594,-4.5594,-4.5594,-4.5594,-4.5594,-4.5594,-4.5594,-4.5594,-4.5594,-4.5594,-4.5594,-4.5594,-4.5594,-4.5594,-4.5594,-4.5594,-4.5594,-4.5594,-4.5594,-4.5594,-4.5594,-4.5594,-4.5594,-4.5594,-4.5594,-4.5594,-4.5594,-4.5594,-4.5594,-4.5594,-4.5594,-4.5594,-4.5594,-4.5594,-4.0593,-4.0654,-4.0726,-4.0784,-4.1126,-4.1332,0.0,0.0,0.0,0.0,0.0,0.0,0.0,0.0,0.0,0.0,0.0,0.0,0.0,0.0,0.0,-4.4782,-4.5262,-4.5548,0.0,-4.5887,-4.6145,-4.6145,-4.6145,-4.6131,-4.6091,-4.6098,-4.608,-4.6054,-4.6027,-4.5991,-4.5994,-4.6003,-4.598,-4.5944,-4.5912,-4.5886,-4.5847,-4.5814,-4.5807,-4.5807,-4.5807,-4.5807,-4.5807,-4.5807,-4.5807,-4.5807,-4.5807,-4.5807,-4.5807,-4.5807,-4.5807,-4.5807,-4.5807,-4.5807,-4.5807,-4.5807,-4.5807,-4.5807,-4.5807,-4.5807,-4.5807,-4.5807,-4.5793,-4.5783,-4.5723,-4.5711,-4.5679,-4.5631,-4.5594,-4.5594,-4.5594,-4.5594,-4.5729,-4.6124,-4.6201,-4.6201,-4.6201,-4.6201,-4.6067,-4.5671,-4.5594,-4.5594,-4.5594,-4.5594,-4.5594,-4.5594,-4.5594,-4.5594,-4.5594,-4.5594,-4.5594,-4.5594,-4.5594,-4.5594,-4.5594,-4.5594,-4.5594,-4.5594,-4.5594,-4.5594,-4.5594,-4.5594,-4.5594,-4.5594,-4.5594,-4.5594,-4.0574,-4.0654,-4.0726,-4.0784,-4.0893,-4.0951,0.0,0.0,0.0,0.0,0.0,0.0,0.0,0.0,0.0,0.0,0.0,0.0,0.0,0.0,-4.4143,-4.4813,-4.5015,0.0,-4.5962,-4.6135,-4.6191,-4.6191,-4.6191,-4.6209,-4.6202,-4.6153,-4.6128,-4.6115,-4.6052,-4.6027,-4.6027,-4.6011,-4.6003,-4.5997,-4.5944,-4.5906,-4.59,-4.5848,-4.5822,-4.5841,-4.5841,-4.5841,-4.5834,-4.5814,-4.5807,-4.5807,-4.5807,-4.5807,-4.5807,-4.5807,-4.5807,-4.5807,-4.5807,-4.5807,-4.5807,-4.5807,-4.5807,-4.5807,-4.5807,-4.5807,-4.5807,-4.5807,-4.5807,-4.5824,-4.5893,-4.5901,-4.5877,-4.5813,-4.5806,-4.5806,-4.5806,-4.5691,-4.5893,-4.6894,-4.6874,-4.674,-4.6885,-4.6797,-4.6451,-4.571,-4.5594,-4.5652,-4.5787,-4.5806,-4.5806,-4.5806,-4.5806,-4.5748,-4.5614,-4.5594,-4.5594,-4.5594,-4.5594,-4.5594,-4.5594,-4.5594,-4.5594,-4.5594,-4.5594,-4.5594,-4.5594,-4.5594,-4.5594,-4.5594,-4.5594,-4.5594,-4.06,-4.0654,-4.0726,-4.0784,-4.1313,-4.1641,0.0,0.0,0.0,0.0,0.0,0.0,0.0,0.0,0.0,0.0,0.0,-4.3607,0.0,0.0,-4.5499,-4.4955,0.0,-4.5781,-4.5242,-4.58,-4.6191,-4.6191,-4.6191,-4.6206,-4.6204,-4.6182,-4.6182,-4.6175,-4.6167,-4.6165,-4.6165,-4.6063,-4.6,-4.5997,-4.5986,-4.5956,-4.59,-4.595,-4.5977,-4.5975,-4.5975,-4.5975,-4.5964,-4.5854,-4.5807,-4.5807,-4.5807,-4.5807,-4.5807,-4.5807,-4.5807,-4.5807,-4.5807,-4.5807,-4.5807,-4.5807,-4.5807,-4.5807,-4.5807,-4.5807,-4.5807,-4.5807,-4.5807,-4.5967,-4.6696,-4.6843,-4.6783,-4.6722,-4.6698,-4.6701,-4.6701,-4.6124,-4.6056,-4.7605,-4.6778,-4.6028,-4.6778,-4.6297,-4.5748,-4.5614,-4.5594,-4.5883,-4.6605,-4.6701,-4.6701,-4.6701,-4.6701,-4.6394,-4.5671,-4.5594,-4.5594,-4.5594,-4.5594,-4.5594,-4.5594,-4.5594,-4.5594,-4.5594,-4.5594,-4.5594,-4.5594,-4.5594,-4.5594,-4.5594,-4.5594,-4.5594,-4.06,-4.0654,-4.0726,-4.0784,-4.1087,-4.1255,0.0,0.0,0.0,0.0,0.0,0.0,0.0,0.0,0.0,0.0,0.0,-4.4367,-4.4838,-4.4809,-4.4809,0.0,-4.5309,-4.5597,-4.5696,-4.604,-4.6242,-4.6242,-4.6242,-4.6245,-4.625,-4.6211,-4.6191,-4.6205,-4.6192,-4.6202,-4.6202,-4.6139,-4.6099,-4.6047,-4.6013,-4.595,-4.59,-4.5975,-4.5993,-4.6002,-4.6041,-4.6044,-4.6054,-4.595,-4.5939,-4.5944,-4.5848,-4.5835,-4.5911,-4.5834,-4.5807,-4.5807,-4.5807,-4.5807,-4.5807,-4.5807,-4.5807,-4.5807,-4.5807,-4.5807,-4.5807,-4.5807,-4.5807,-4.6005,-4.6877,-4.7044,-4.7092,-4.7501,-4.7565,-4.7432,-4.6981,-4.6932,-4.7182,-4.7952,-4.7855,-4.7625,-4.7567,-4.7221,-4.6797,-4.6374,-4.6297,-4.6605,-4.7451,-4.7548,-4.7548,-4.7548,-4.7548,-4.7394,-4.6971,-4.6951,-4.6547,-4.5671,-4.5594,-4.5594,-4.5594,-4.5594,-4.5594,-4.5594,-4.5594,-4.5825,-4.6297,-4.6297,-4.6528,-4.6951,-4.6951,-4.6951,-4.06,-4.0661,-4.0746,-4.0808,0.0,0.0,0.0,0.0,0.0,0.0,0.0,0.0,0.0,0.0,0.0,-4.4568,-4.5019,-4.5172,-4.522,-4.4836,-4.4726,-4.5244,-4.5297,-4.5567,-4.6243,-4.63,-4.63,-4.63,-4.63,-4.63,-4.63,-4.6243,-4.6229,-4.6229,-4.6229,-4.6222,-4.6222,-4.6222,-4.6183,-4.6125,-4.6064,-4.6007,-4.5944,-4.6027,-4.6059,-4.6054,-4.6102,-4.6125,-4.6118,-4.6059,-4.6044,-4.6087,-4.5936,-4.5927,-4.5986,-4.5861,-4.5807,-4.5807,-4.5807,-4.5807,-4.5807,-4.5807,-4.5807,-4.5845,-4.6039,-4.5962,-4.5845,-4.6058,-4.6097,-4.6303,-4.7182,-4.7496,-4.7747,-4.8367,-4.844,-4.824,-4.7625,-4.7817,-4.8221,-4.8625,-4.8779,-4.8663,-4.8182,-4.7952,-4.7605,-4.6981,-4.7058,-4.749,-4.8298,-4.8394,-4.8394,-4.8394,-4.8394,-4.8317,-4.8125,-4.8105,-4.7548,-4.6259,-4.6009,-4.5893,-4.5893,-4.571,-4.571,-4.5893,-4.5893,-4.6336,-4.7173,-4.7173,-4.7509,-4.8105,-4.8105,-4.8105,-4.0595,-4.0681,-4.0802,-4.0873,0.0,0.0,-4.0797,-4.0846,0.0,-4.1869,0.0,0.0,0.0,-4.229,-4.2873,-4.4686,-4.5664,-4.6191,-4.6191,0.0,-4.7049,-4.6282,-4.6218,-4.6231,-4.6282,-4.63,-4.63,-4.63,-4.63,-4.63,-4.63,-4.6303,-4.6285,-4.6285,-4.6287,-4.6288,-4.6288,-4.6288,-4.6268,-4.6197,-4.6186,-4.6153,-4.6098,-4.6156,-4.6183,-4.6195,-4.6197,-4.6199,-4.6195,-4.6122,-4.6095,-4.6098,-4.6087,-4.6059,-4.5986,-4.5861,-4.5807,-4.5807,-4.5807,-4.5807,-4.5807,-4.5807,-4.5807,-4.5962,-4.6748,-4.6445,-4.5981,-4.6786,-4.6999,-4.7212,-4.8082,-4.8805,-4.9337,-4.9384,-4.9353,-4.9298,-4.9221,-4.8625,-4.8586,-5.0212,-4.8644,-4.7298,-4.799,-4.749,-4.6962,-4.6904,-4.7548,-4.8336,-4.9183,-4.9317,-4.9317,-4.9317,-4.9317,-4.8971,-4.8182,-4.8105,-4.8048,-4.7932,-4.7221,-4.6817,-4.6817,-4.6028,-4.597,-4.6797,-4.6817,-4.7201,-4.8009,-4.8009,-4.8048,-4.8105,-4.8105,-4.8105,-4.0595,-4.0707,-4.0827,-4.0883,0.0,0.0,0.0,-4.1322,-4.1652,-4.1518,-4.2325,0.0,0.0,0.0,-4.5467,-4.5058,-4.5723,-4.6308,-4.6308,-4.6582,-4.6679,-4.6345,-4.6301,-4.6296,-4.6309,-4.6303,-4.63,-4.63,-4.63,-4.63,-4.63,-4.63,-4.63,-4.63,-4.63,-4.63,-4.63,-4.63,-4.6293,-4.6268,-4.6227,-4.6165,-4.6098,-4.6161,-4.6191,-4.6204,-4.6241,-4.6265,-4.6264,-4.6197,-4.6195,-4.6213,-4.6189,-4.6122,-4.6044,-4.5956,-4.5916,-4.5904,-4.5834,-4.5807,-4.5807,-4.5807,-4.5807,-4.5865,-4.6194,-4.6058,-4.5865,-4.6194,-4.7076,-4.7985,-4.8314,-4.8984,-4.9688,-5.0184,-5.0266,-5.0067,-4.9519,-4.9144,-4.9106,-4.976,-4.9106,-4.8548,-4.8856,-4.8663,-4.8452,-4.8452,-4.8702,-4.9221,-5.0087,-5.0212,-5.0212,-5.0212,-5.0212,-5.0067,-4.974,-4.9721,-4.9721,-4.9721,-4.8413,-4.7663,-4.7663,-4.7336,-4.7317,-4.7644,-4.7663,-4.8067,-4.8913,-4.8913,-4.9183,-4.9721,-4.9721,-4.9721,-4.0595,-4.0707,-4.0814,0.0,0.0,0.0,-4.1364,-4.1857,-4.2247,-4.2297,-4.3011,0.0,0.0,0.0,0.0,0.0,-4.5957,-4.6601,-4.6348,-4.6543,-4.6601,-4.6327,-4.6305,-4.6301,-4.6294,-4.6308,-4.6303,-4.63,-4.63,-4.63,-4.63,-4.63,-4.63,-4.63,-4.63,-4.63,-4.63,-4.63,-4.63,-4.6302,-4.6245,-4.6209,-4.6167,-4.6201,-4.6223,-4.6221,-4.6288,-4.6308,-4.6308,-4.6243,-4.6265,-4.6289,-4.6235,-4.6165,-4.6125,-4.6067,-4.6027,-4.5991,-4.5886,-4.5841,-4.5807,-4.5807,-4.5807,-4.5845,-4.6136,-4.602,-4.5865,-4.6136,-4.7076,-4.8043,-4.8333,-4.9193,-5.0138,-5.0675,-5.0757,-5.0451,-4.9596,-4.9625,-4.9721,-4.9452,-4.9394,-4.9394,-4.9394,-4.9394,-4.9394,-4.9394,-4.9625,-5.0029,-5.0616,-5.0712,-5.0712,-5.0712,-5.0712,-5.0712,-5.0712,-5.0712,-5.0712,-5.0712,-4.9586,-4.8798,-4.8529,-4.8259,-4.824,-4.8509,-4.8509,-4.8933,-4.9798,-4.9798,-5.0106,-5.0712,-5.0712,-5.0712,-4.0595,-4.0707,-4.0837,0.0,0.0,0.0,0.0,-4.2357,-4.2809,-4.4548,0.0,-4.3984,-4.4844,-4.4297,0.0,-4.4863,-4.6465,-4.7285,-4.6426,-4.7031,-4.7265,-4.6405,-4.6307,-4.6305,-4.6294,-4.6293,-4.6309,-4.6302,-4.63,-4.63,-4.63,-4.63,-4.63,-4.63,-4.63,-4.63,-4.63,-4.63,-4.63,-4.63,-4.63,-4.6305,-4.6294,-4.6304,-4.6307,-4.6307,-4.6308,-4.6308,-4.6308,-4.6308,-4.6308,-4.6289,-4.6235,-4.6204,-4.6199,-4.6128,-4.6067,-4.6002,-4.6002,-4.5904,-4.5807,-4.5807,-4.5807,-4.5962,-4.6825,-4.6484,-4.5981,-4.6844,-4.7115,-4.7308,-4.8198,-4.9637,-5.0872,-5.081,-5.0738,-5.0451,-4.9596,-5.0067,-5.0423,-4.9548,-4.9394,-4.9394,-4.9394,-4.9413,-4.9413,-4.9413,-5.0144,-5.0712,-5.0712,-5.0712,-5.0712,-5.0712,-5.0712,-5.0712,-5.0712,-5.0712,-5.0712,-5.0712,-5.0712,-5.0308,-4.9452,-4.8586,-4.8529,-4.9394,-4.9413,-4.9837,-5.0712,-5.0712,-5.0712,-5.0712,-5.0712,-5.0712,-4.0661,-4.0769,0.0,0.0,0.0,0.0,0.0,0.0,0.0,0.0,-4.4785,-4.4687,-4.4941,-4.5293,0.0,-4.5058,-4.5957,-4.6601,-4.6348,-4.6523,-4.6582,-4.6328,-4.6307,-4.6306,-4.6305,-4.6299,-4.6293,-4.6309,-4.6303,-4.63,-4.63,-4.63,-4.63,-4.63,-4.63,-4.63,-4.63,-4.63,-4.63,-4.63,-4.63,-4.6305,-4.6293,-4.6301,-4.6305,-4.6307,-4.6308,-4.6308,-4.6308,-4.6308,-4.6308,-4.6308,-4.6288,-4.6267,-4.6265,-4.62,-4.6155,-4.6134,-4.6084,-4.6003,-4.5947,-4.5947,-4.5886,-4.5845,-4.6116,-4.602,-4.5981,-4.6844,-4.754,-4.8217,-4.9088,-4.968,-5.017,-5.0683,-5.0321,-4.9765,-4.9471,-4.9125,-4.8798,-4.8548,-4.8971,-4.9394,-4.9394,-4.9913,-5.0308,-5.0308,-5.0539,-5.0712,-5.0712,-5.0712,-5.0712,-5.0712,-5.0712,-5.0712,-5.0712,-5.0712,-5.0712,-5.0712,-5.0712,-5.0577,-5.0327,-5.0067,-5.0048,-5.0308,-5.0308,-5.0442,-5.0712,-5.0712,-5.0712,-5.0712,-5.0712,-5.0712,-4.0647,0.0,0.0,0.0,0.0,0.0,0.0,0.0,0.0,0.0,0.0,-4.5117,-4.5449,-4.5664,0.0,-4.5547,-4.5957,-4.6308,-4.6308,-4.6308,-4.6308,-4.6308,-4.6308,-4.6307,-4.6307,-4.6303,-4.6299,-4.6294,-4.6308,-4.6305,-4.63,-4.63,-4.63,-4.63,-4.63,-4.63,-4.63,-4.63,-4.63,-4.63,-4.63,-4.6303,-4.6308,-4.6296,-4.6301,-4.6305,-4.6308,-4.6308,-4.6308,-4.6308,-4.6308,-4.6308,-4.6308,-4.6308,-4.6308,-4.6245,-4.6215,-4.6199,-4.6153,-4.6095,-4.6041,-4.6041,-4.5972,-4.5886,-4.5886,-4.5828,-4.5981,-4.6844,-4.7231,-4.7657,-4.8875,-4.8933,-4.9034,-5.0497,-5.0154,-4.9502,-4.9441,-4.9278,-4.9029,-4.8682,-4.9317,-4.9913,-4.9913,-5.0346,-5.0712,-5.0712,-5.0712,-5.0712,-5.0712,-5.0712,-5.0712,-5.0712,-5.0712,-5.0712,-5.0712,-5.0712,-5.0712,-5.0712,-5.0712,-5.0712,-5.0712,-5.0712,-5.0712,-5.0712,-5.0712,-5.0712,-5.0712,-5.0712,-5.0712,-5.0712,-5.0712,-5.0712,-4.0742,0.0,0.0,0.0,0.0,0.0,0.0,0.0,0.0,-4.6191,0.0,-4.5351,-4.6152,-4.5644,-4.5371,-4.6172,-4.6308,-4.6308,-4.6308,-4.6308,-4.6308,-4.6308,-4.6308,-4.6308,-4.6307,-4.6307,-4.6305,-4.6295,-4.6294,-4.6309,-4.6302,-4.63,-4.63,-4.63,-4.63,-4.63,-4.63,-4.63,-4.63,-4.63,-4.63,-4.63,-4.6302,-4.6309,-4.6296,-4.6302,-4.6308,-4.6308,-4.6308,-4.6308,-4.6308,-4.6308,-4.6308,-4.6308,-4.6308,-4.6308,-4.6265,-4.6207,-4.6207,-4.616,-4.6109,-4.6109,-4.6052,-4.6002,-4.6002,-4.5917,-4.5981,-4.6844,-4.6542,-4.631,-4.7966,-4.7753,-4.7707,-5.0104,-4.9958,-4.929,-4.9381,-4.9951,-5.0231,-4.9433,-5.0048,-5.0673,-5.0596,-5.0654,-5.0712,-5.0712,-5.0712,-5.0712,-5.0712,-5.0712,-5.0712,-5.0712,-5.0712,-5.0712,-5.0712,-5.0712,-5.0712,-5.0712,-5.0712,-5.0712,-5.0712,-5.0712,-5.0712,-5.0712,-5.0712,-5.0712,-5.0712,-5.0712,-5.0712,-5.0712,-5.0712,-5.0712,0.0,-4.2215,0.0,0.0,0.0,0.0,0.0,0.0,-4.6113,-4.543,-4.5664,-4.6074,-4.6269,-4.6152,-4.6074,-4.6269,-4.6308,-4.6308,-4.6308,-4.6308,-4.6308,-4.6308,-4.6308,-4.6308,-4.6308,-4.6308,-4.6305,-4.6301,-4.6296,-4.6309,-4.6302,-4.63,-4.63,-4.63,-4.63,-4.63,-4.63,-4.63,-4.63,-4.63,-4.63,-4.63,-4.6302,-4.6309,-4.6299,-4.6306,-4.6308,-4.6308,-4.6308,-4.6308,-4.6308,-4.6308,-4.6308,-4.6308,-4.6308,-4.6308,-4.6289,-4.6288,-4.6288,-4.6238,-4.6189,-4.6189,-4.6098,-4.6002,-4.6002,-4.5917,-4.5981,-4.6844,-4.696,-4.7057,-4.8121,-4.7753,-4.7405,-4.8635,-4.8226,-4.7717,-4.8341,-4.8556,-4.8606,-4.8413,-4.9644,-5.0481,-4.9798,-5.025,-5.0712,-5.0712,-5.0712,-5.0712,-5.0712,-5.0712,-5.0712,-5.0712,-5.0712,-5.0712,-5.0712,-5.0712,-5.0712,-5.0712,-5.0712,-5.0712,-5.0712,-5.0712,-5.0712,-5.0712,-5.0712,-5.0712,-5.0712,-5.0712,-5.0712,-5.0712,-5.0712,-5.0712,0.0,0.0,0.0,0.0,0.0,0.0,0.0,0.0,-4.6172,-4.5723,-4.5976,-4.6308,-4.6308,-4.6308,-4.6308,-4.6308,-4.6308,-4.6308,-4.6308,-4.6308,-4.6308,-4.6308,-4.6308,-4.6308,-4.6308,-4.6308,-4.6307,-4.6305,-4.6302,-4.6297,-4.6308,-4.6306,-4.6305,-4.63,-4.63,-4.63,-4.63,-4.63,-4.63,-4.63,-4.63,-4.63,-4.6302,-4.6293,-4.6301,-4.6305,-4.6308,-4.6308,-4.6308,-4.6308,-4.6308,-4.6308,-4.6308,-4.6308,-4.6308,-4.6308,-4.6308,-4.6308,-4.6308,-4.6288,-4.6242,-4.6242,-4.6171,-4.6095,-4.6095,-4.6016,-4.6116,-4.6926,-4.6868,-4.6758,-4.7562,-4.7134,-4.6593,-4.7038,-4.738,-4.7846,-4.8656,-4.9093,-4.9345,-4.9346,-5.0067,-5.0558,-5.0087,-5.0404,-5.0712,-5.0712,-5.0712,-5.0712,-5.0712,-5.0712,-5.0712,-5.0712,-5.0712,-5.0712,-5.0712,-5.0712,-5.0712,-5.0712,-5.0712,-5.0712,-5.0712,-5.0712,-5.0712,-5.0712,-5.0712,-5.0712,-5.0712,-5.0712,-5.0712,-5.0712,-5.0712,-5.0712,0.0,0.0,0.0,0.0,0.0,0.0,0.0,0.0,-4.6308,-4.6308,-4.6308,-4.6308,-4.6308,-4.6308,-4.6308,-4.6308,-4.6308,-4.6308,-4.6308,-4.6308,-4.6308,-4.6308,-4.6308,-4.6308,-4.6308,-4.6308,-4.6308,-4.6307,-4.615,-4.6089,-4.6079,-4.5922,-4.5919,-4.6066,-4.6085,-4.6144,-4.63,-4.63,-4.63,-4.63,-4.63,-4.63,-4.6302,-4.6295,-4.6301,-4.6302,-4.6307,-4.6308,-4.6308,-4.6308,-4.6308,-4.6308,-4.6308,-4.6308,-4.6308,-4.6308,-4.6308,-4.6308,-4.6308,-4.6308,-4.6308,-4.6308,-4.6245,-4.6202,-4.6202,-4.615,-4.6224,-4.6844,-4.6528,-4.6196,-4.692,-4.65,-4.5887,-4.5988,-4.7212,-4.8516,-4.9142,-4.9919,-5.0528,-5.0683,-5.0712,-5.0712,-5.0712,-5.0712,-5.0712,-5.0712,-5.0712,-5.0712,-5.0712,-5.0712,-5.0712,-5.0712,-5.0827,-5.0914,-5.0914,-5.1048,-5.1135,-5.1135,-5.1135,-5.1048,-5.0914,-5.0914,-5.0846,-5.0712,-5.0712,-5.0712,-5.0712,-5.0712,-5.0712,-5.0712,-5.0712,-5.0712,0.0,0.0,0.0,0.0,0.0,0.0,0.0,0.0,-4.6308,0.0,-4.6308,-4.6308,-4.6308,-4.6308,-4.6308,-4.6308,-4.6308,-4.6308,-4.6308,-4.6308,-4.6308,-4.6308,-4.6308,-4.6308,-4.6308,-4.6308,-4.6308,-4.6307,-4.5604,-4.5171,-4.516,-4.4456,-4.4395,-4.5148,-4.5168,-4.5539,-4.628,-4.63,-4.63,-4.63,-4.63,-4.63,-4.6302,-4.6291,-4.6297,-4.6301,-4.6306,-4.6308,-4.6308,-4.6308,-4.6308,-4.6308,-4.6308,-4.6308,-4.6308,-4.6308,-4.6308,-4.6308,-4.6308,-4.6308,-4.6308,-4.6308,-4.6245,-4.6202,-4.6202,-4.615,-4.6118,-4.6224,-4.6162,-4.6259,-4.6993,-4.6625,-4.6201,-4.679,-4.7727,-4.8471,-4.8461,-4.909,-4.9874,-5.0568,-5.0712,-5.0712,-5.0712,-5.0712,-5.0712,-5.0712,-5.0712,-5.0712,-5.0712,-5.0712,-5.0712,-5.0712,-5.1318,-5.1731,-5.1731,-5.2433,-5.2876,-5.2876,-5.2876,-5.2529,-5.1769,-5.1731,-5.1414,-5.0712,-5.0712,-5.0712,-5.0712,-5.0712,-5.0712,-5.0712,-5.0712,-5.0712,0.0,0.0,0.0,0.0,0.0,0.0,0.0,0.0,-4.5566,-4.5566,-4.5566,-4.5723,-4.6211,-4.6308,-4.6308,-4.6308,-4.6308,-4.6308,-4.6308,-4.6308,-4.6308,-4.6308,-4.6308,-4.6308,-4.6308,-4.6308,-4.6094,-4.5605,-4.5664,-4.5291,-4.4325,-4.4364,-4.4594,-4.4992,-4.499,-4.5421,-4.628,-4.63,-4.63,-4.63,-4.63,-4.63,-4.63,-4.6305,-4.6293,-4.6301,-4.6306,-4.6308,-4.6308,-4.6308,-4.6308,-4.6308,-4.6308,-4.6308,-4.6308,-4.6308,-4.6308,-4.6308,-4.6308,-4.6308,-4.6308,-4.6308,-4.6288,-4.6264,-4.6264,-4.6239,-4.6206,-4.6162,-4.6153,-4.6217,-4.6512,-4.6345,-4.6181,-4.6465,-4.7568,-4.8545,-4.848,-4.9405,-5.0315,-5.0645,-5.0712,-5.0712,-5.0712,-5.0712,-5.0712,-5.0712,-5.1087,-5.1375,-5.1375,-5.1798,-5.2106,-5.2106,-5.2414,-5.2635,-5.2635,-5.2991,-5.3203,-5.3203,-5.3203,-5.2818,-5.1942,-5.1904,-5.1529,-5.0731,-5.0712,-5.0712,-5.0712,-5.0712,-5.0712,-5.0712,-5.0712,-5.0712,0.0,0.0,0.0,0.0,0.0,0.0,0.0,0.0,-4.5273,0.0,-4.5,-4.5137,-4.5566,-4.582,-4.5976,-4.5976,-4.5781,-4.5644,-4.5644,-4.5644,-4.5644,-4.5644,-4.5644,-4.5644,-4.5644,-4.5644,-4.5371,-4.4726,-4.5078,-4.4843,-4.3764,-4.4114,-4.4441,-4.4663,-4.4875,-4.5207,-4.5636,-4.5851,-4.6085,-4.63,-4.63,-4.63,-4.63,-4.63,-4.6309,-4.6301,-4.6305,-4.6307,-4.6308,-4.6308,-4.6308,-4.6308,-4.6308,-4.6308,-4.6308,-4.6308,-4.6308,-4.6308,-4.6308,-4.6308,-4.6308,-4.6308,-4.6308,-4.6308,-4.6308,-4.6308,-4.6289,-4.624,-4.6234,-4.6305,-4.6669,-4.6468,-4.6259,-4.6635,-4.7691,-4.8739,-4.9094,-5.0054,-5.0808,-5.0767,-5.0721,-5.0702,-5.074,-5.0721,-5.077,-5.0971,-5.1529,-5.1981,-5.2192,-5.2799,-5.3203,-5.3203,-5.3395,-5.353,-5.353,-5.3722,-5.3837,-5.3837,-5.3837,-5.3453,-5.2596,-5.2558,-5.2164,-5.1337,-5.1337,-5.1135,-5.0712,-5.0712,-5.0712,-5.0712,-5.0712,-5.0712,0.0,0.0,0.0,0.0,0.0,0.0,0.0,0.0,-4.5996,-4.5176,-4.5,-4.4766,-4.3984,-4.4512,-4.5078,-4.5078,-4.4375,-4.3848,-4.3848,-4.3848,-4.3848,-4.3848,-4.3848,-4.3848,-4.3848,-4.3848,-4.3828,-4.3769,-4.3047,-4.2929,-4.365,-4.2964,-4.2901,-4.3736,-4.4567,-4.4621,-4.3842,-4.4641,-4.548,-4.63,-4.63,-4.63,-4.63,-4.63,-4.6309,-4.6301,-4.6301,-4.6306,-4.6308,-4.6308,-4.6308,-4.6308,-4.6308,-4.6308,-4.6308,-4.6308,-4.6308,-4.6308,-4.6308,-4.6308,-4.6308,-4.6308,-4.6308,-4.6308,-4.6308,-4.6308,-4.6308,-4.6308,-4.6289,-4.6659,-4.8177,-4.743,-4.6655,-4.8116,-4.8583,-4.9087,-5.0479,-5.084,-5.0886,-5.0887,-5.0784,-5.073,-5.0874,-5.0775,-5.0952,-5.1712,-5.1865,-5.2192,-5.3029,-5.3164,-5.3203,-5.3203,-5.3933,-5.4434,-5.4434,-5.5126,-5.5568,-5.5568,-5.5568,-5.5203,-5.4395,-5.4357,-5.3953,-5.3087,-5.3068,-5.2299,-5.0712,-5.0712,-5.0712,-5.0712,-5.0712,-5.0712,0.0,0.0,0.0,0.0,0.0,0.0,-4.5391,-4.5469,-4.5058,-4.3633,-4.3789,-4.3906,-4.3027,-4.3574,-4.418,-4.418,-4.3906,-4.3691,-4.3691,-4.3691,-4.3691,-4.3691,-4.3691,-4.3691,-4.3691,-4.3691,-4.3476,-4.291,-4.3613,-4.3711,-4.2908,-4.3628,-4.4209,-4.4516,-4.4839,-4.4855,-4.4543,-4.4836,-4.5168,-4.548,-4.548,-4.5753,-4.63,-4.6306,-4.6294,-4.6301,-4.6305,-4.6307,-4.6308,-4.6308,-4.6308,-4.6308,-4.6308,-4.6308,-4.6308,-4.6308,-4.6308,-4.6308,-4.6308,-4.6308,-4.6308,-4.6308,-4.6308,-4.6308,-4.6308,-4.6308,-4.6308,-4.6308,-4.6308,-4.6426,-4.7009,-4.6737,-4.6718,-4.8407,-4.9249,-4.9927,-5.0894,-5.1069,-5.1033,-5.1022,-5.0946,-5.0913,-5.0966,-5.0926,-5.1187,-5.2027,-5.2627,-5.3267,-5.4059,-5.462,-5.4892,-5.482,-5.5068,-5.5261,-5.5261,-5.553,-5.5703,-5.5703,-5.5703,-5.5338,-5.453,-5.4491,-5.4087,-5.3222,-5.3203,-5.2626,-5.1471,-5.1471,-5.1202,-5.0712,-5.0712,-5.0712,-4.2371,0.0,0.0,0.0,0.0,0.0,-4.4922,0.0,-4.4141,-4.2695,-4.2851,-4.3008,-4.2148,-4.2461,-4.2949,-4.3223,-4.3047,-4.2851,-4.2851,-4.2851,-4.2851,-4.2851,-4.2851,-4.2851,-4.2851,-4.2851,-4.2617,-4.2031,-4.3066,-4.334,-4.244,-4.3492,-4.4403,-4.498,-4.4722,-4.4836,-4.5421,-4.5148,-4.5148,-4.5441,-4.5441,-4.5734,-4.63,-4.6306,-4.6294,-4.6301,-4.6305,-4.6307,-4.6308,-4.6308,-4.6308,-4.6308,-4.6308,-4.6308,-4.6308,-4.6308,-4.6308,-4.6308,-4.6308,-4.6308,-4.6308,-4.6308,-4.6308,-4.6308,-4.6308,-4.6308,-4.6308,-4.6308,-4.6308,-4.6426,-4.7012,-4.7383,-4.7832,-4.8691,-4.957,-5.0409,-5.1118,-5.1202,-5.1133,-5.1124,-5.1084,-5.104,-5.1054,-5.103,-5.1394,-5.256,-5.3234,-5.3968,-5.504,-5.5637,-5.5913,-5.5779,-5.5778,-5.5748,-5.5695,-5.5703,-5.5703,-5.5703,-5.5703,-5.5453,-5.4914,-5.4895,-5.4626,-5.4049,-5.4049,-5.3626,-5.2779,-5.2481,-5.2068,-5.1529,-5.1241,-5.0952,0.0,0.0,0.0,0.0,0.0,0.0,-4.4746,0.0,-4.3457,-4.2558,-4.2383,-4.2148,-4.1348,-4.1191,-4.1465,-4.2246,-4.1719,-4.1191,-4.1191,-4.1191,-4.1191,-4.1191,-4.1191,-4.1191,-4.1191,-4.1191,-4.1191,-4.1191,-4.1211,-4.1582,-4.2363,-4.2419,-4.321,-4.4914,-4.4172,-4.4543,-4.6202,-4.5402,-4.5421,-4.6261,-4.6261,-4.628,-4.63,-4.6302,-4.629,-4.6301,-4.6301,-4.6306,-4.6308,-4.6308,-4.6308,-4.6308,-4.6308,-4.6308,-4.6308,-4.6308,-4.6308,-4.6308,-4.6308,-4.6308,-4.6308,-4.6308,-4.6308,-4.6308,-4.6308,-4.6308,-4.6308,-4.6308,-4.6308,-4.6699,-4.8418,-4.9531,-4.998,-4.9141,-4.9609,-5.0449,-5.123,-5.1296,-5.1201,-5.1205,-5.1145,-5.1131,-5.119,-5.1124,-5.1627,-5.3358,-5.3627,-5.4251,-5.589,-5.6104,-5.607,-5.5913,-5.5887,-5.5855,-5.5705,-5.5703,-5.5703,-5.5703,-5.5703,-5.5703,-5.5703,-5.5703,-5.5703,-5.5703,-5.5703,-5.5318,-5.453,-5.3664,-5.3222,-5.3145,-5.2288,-5.151,-4.1465,0.0,0.0,0.0,0.0,0.0,0.0,0.0,-4.3281,-4.1836,-4.1992,-4.2148,-4.1348,-4.1191,-4.1269,-4.1504,-4.1348,-4.1191,-4.1191,-4.1191,-4.1191,-4.1191,-4.1191,-4.1191,-4.1191,-4.1191,-4.1191,-4.1191,-4.1738,-4.2168,-4.2383,-4.3005,-4.3564,-4.4043,-4.4447,-4.4563,-4.4426,-4.4816,-4.5129,-4.5363,-4.5363,-4.5695,-4.6302,-4.6293,-4.6299,-4.6302,-4.6307,-4.6308,-4.6308,-4.6308,-4.6308,-4.6308,-4.6308,-4.6308,-4.6308,-4.6308,-4.6308,-4.6308,-4.6308,-4.6308,-4.6308,-4.6308,-4.6308,-4.6308,-4.6308,-4.6308,-4.6308,-4.6308,-4.6308,-4.6562,-4.7676,-4.9062,-5.0137,-4.9902,-5.0469,-5.1133,-5.1348,-5.1366,-5.1344,-5.1342,-5.1334,-5.1327,-5.1335,-5.1831,-5.2618,-5.373,-5.4431,-5.5193,-5.6188,-5.6323,-5.6206,-5.5932,-5.5894,-5.5855,-5.5705,-5.5703,-5.5703,-5.5703,-5.5703,-5.5703,-5.5703,-5.5703,-5.5703,-5.5703,-5.5703,-5.5588,-5.5376,-5.453,-5.3491,-5.225,-5.2,-5.2472,0.0,0.0,0.0,0.0,0.0,0.0,-4.2441,-4.2539,-4.2383,-4.1406,-4.1562,-4.1758,-4.1289,-4.1191,-4.1191,-4.1191,-4.1191,-4.1191,-4.1191,-4.1191,-4.1191,-4.1191,-4.1191,-4.1191,-4.1191,-4.1191,-4.1191,-4.1191,-4.1621,-4.1894,-4.1855,-4.2672,-4.3155,-4.3169,-4.4,-4.4211,-4.3705,-4.4192,-4.4641,-4.499,-4.499,-4.5265,-4.5773,-4.6135,-4.6102,-4.5774,-4.613,-4.6308,-4.6308,-4.6308,-4.6308,-4.6308,-4.6308,-4.6308,-4.6308,-4.6308,-4.6308,-4.6308,-4.6308,-4.6308,-4.6308,-4.6308,-4.6308,-4.6308,-4.6308,-4.6308,-4.6308,-4.6308,-4.6816,-4.7422,-4.7558,-4.9141,-5.0625,-5.0273,-5.0801,-5.1406,-5.1406,-5.1406,-5.1406,-5.1406,-5.1406,-5.1406,-5.1406,-5.2126,-5.3003,-5.3862,-5.474,-5.5592,-5.6389,-5.6477,-5.639,-5.6141,-5.6117,-5.6013,-5.5808,-5.5779,-5.5768,-5.5695,-5.5703,-5.5703,-5.5703,-5.5703,-5.5703,-5.5703,-5.5703,-5.5703,-5.5703,-5.5222,-5.4318,-5.2991,-5.3337,-5.3645,0.0,0.0,0.0,0.0,-4.1738,0.0,-4.2109,-4.1719,-4.1191,-4.1191,-4.1191,-4.1191,-4.1191,-4.1191,-4.1191,-4.1191,-4.1191,-4.1191,-4.1191,-4.1289,-4.1328,-4.1328,-4.1328,-4.1328,-4.1328,-4.125,-4.1191,-4.1191,-4.1191,-4.1172,-4.1112,-4.1831,-4.2256,-4.2252,-4.3103,-4.3567,-4.3567,-4.3647,-4.4094,-4.4855,-4.4951,-4.499,-4.5029,-4.5892,-4.5881,-4.5188,-4.5951,-4.6306,-4.6308,-4.6308,-4.6308,-4.6308,-4.6308,-4.6308,-4.6308,-4.6308,-4.6308,-4.6308,-4.6308,-4.6308,-4.6308,-4.6308,-4.6308,-4.6308,-4.6308,-4.6308,-4.6328,-4.6426,-4.7637,-4.873,-4.8066,-4.9648,-5.1211,-5.0508,-5.0879,-5.1406,-5.1406,-5.1406,-5.1406,-5.1406,-5.1406,-5.1406,-5.1406,-5.2207,-5.3104,-5.3885,-5.482,-5.5716,-5.6497,-5.6594,-5.6541,-5.6416,-5.6406,-5.6266,-5.5962,-5.5913,-5.5854,-5.5748,-5.5716,-5.5714,-5.5726,-5.5705,-5.5703,-5.5703,-5.5703,-5.5703,-5.5703,-5.5607,-5.5241,-5.4645,-5.528,-5.4818,0.0,0.0,0.0,-4.1387,-4.1328,0.0,-4.1406,-4.1308,-4.1191,-4.1191,-4.1191,-4.1191,-4.1191,-4.1191,-4.1191,-4.1191,-4.1191,-4.1191,-4.1191,-4.1758,-4.2168,-4.2168,-4.2168,-4.2168,-4.2168,-4.1582,-4.1191,-4.1191,-4.1191,-4.1191,-4.1172,-4.1286,-4.1341,-4.134,-4.2208,-4.265,-4.265,-4.3352,-4.3782,-4.3957,-4.466,-4.499,-4.5031,-4.5903,-4.6202,-4.6068,-4.6229,-4.6308,-4.6308,-4.6308,-4.6308,-4.6308,-4.6308,-4.6308,-4.6308,-4.6308,-4.6308,-4.6308,-4.6308,-4.6308,-4.6308,-4.6308,-4.6308,-4.6308,-4.6308,-4.6308,-4.6445,-4.7148,-4.8105,-4.9023,-4.9551,-5.0547,-5.1367,-5.1191,-5.1289,-5.1406,-5.1406,-5.1406,-5.1406,-5.1406,-5.1406,-5.1406,-5.1406,-5.2695,-5.3808,-5.3965,-5.5332,-5.6406,-5.6582,-5.66,-5.6551,-5.6408,-5.6391,-5.634,-5.6155,-5.5986,-5.5939,-5.6027,-5.5817,-5.5748,-5.5873,-5.5758,-5.5703,-5.5703,-5.5703,-5.5703,-5.5703,-5.5049,-5.4991,-5.5453,-5.4953,-5.4914,0.0,0.0,-4.1191,-4.1191,-4.1191,0.0,0.0,-4.1191,-4.1191,-4.1191,-4.1191,-4.1191,-4.1191,-4.1191,-4.1328,-4.1738,-4.1465,-4.1484,-4.2324,-4.2422,-4.2558,-4.3008,-4.2656,-4.2402,-4.2402,-4.168,-4.1191,-4.1191,-4.1191,-4.1191,-4.1191,-4.1131,-4.1109,-4.1107,-4.1529,-4.1755,-4.1752,-4.2183,-4.2611,-4.306,-4.3489,-4.3938,-4.4387,-4.5258,-4.5654,-4.5677,-4.6112,-4.6308,-4.6308,-4.6308,-4.6308,-4.6308,-4.6308,-4.6308,-4.6308,-4.6308,-4.6308,-4.6308,-4.6308,-4.6308,-4.6308,-4.6308,-4.6308,-4.6308,-4.6308,-4.6308,-4.6484,-4.7344,-4.791,-4.8555,-4.9863,-5.0508,-5.0898,-5.1308,-5.1406,-5.1406,-5.1406,-5.1406,-5.1406,-5.1406,-5.1406,-5.1543,-5.1973,-5.3125,-5.4141,-5.457,-5.5762,-5.6601,-5.6601,-5.6601,-5.6579,-5.6506,-5.6501,-5.6455,-5.6303,-5.6211,-5.616,-5.6142,-5.5982,-5.5896,-5.5907,-5.5836,-5.5778,-5.5714,-5.5703,-5.5703,-5.5703,-5.5299,-5.5299,-5.5684,-5.528,-5.5299,0.0,-4.1191,-4.1191,-4.1191,-4.1191,-4.1191,0.0,0.0,0.0,-4.1191,-4.1191,-4.1191,0.0,-4.1191,-4.1406,-4.2051,-4.1621,-4.1797,-4.3457,-4.2949,-4.2793,-4.3828,-4.3027,-4.2461,-4.2637,-4.1777,-4.1191,-4.1191,-4.1191,-4.1191,-4.1191,-4.1132,-4.1091,-4.1108,-4.1102,-4.1095,-4.1109,-4.1109,-4.1439,-4.2142,-4.2318,-4.2767,-4.3471,-4.4357,-4.4754,-4.4798,-4.5662,-4.6054,-4.6055,-4.623,-4.6308,-4.6308,-4.6308,-4.6308,-4.6308,-4.6308,-4.6308,-4.6308,-4.6308,-4.6308,-4.6308,-4.6308,-4.6308,-4.6308,-4.6308,-4.6308,-4.6484,-4.7344,-4.7598,-4.8008,-4.9746,-5.0195,-5.0391,-5.1211,-5.1406,-5.1406,-5.1406,-5.1406,-5.1406,-5.1406,-5.1406,-5.168,-5.2558,-5.3418,-5.4297,-5.5176,-5.6035,-5.6601,-5.6601,-5.6601,-5.6601,-5.66,-5.66,-5.6555,-5.6455,-5.641,-5.6367,-5.6286,-5.6178,-5.6078,-5.599,-5.593,-5.5845,-5.5695,-5.5703,-5.5703,-5.5703,-5.5703,-5.5703,-5.5703,-5.5703,-5.5703,0.0,-4.1191,-4.1191,-4.1191,-4.1191,-4.1191,-4.1191,0.0,-4.1191,-4.1191,0.0,-4.1191,-4.1191,0.0,0.0,-4.1328,-4.1269,-4.1797,-4.3457,-4.2949,-4.3008,-4.4668,-4.3398,-4.2695,-4.3476,-4.2129,-4.1191,-4.1191,-4.1191,-4.1191,-4.1191,-4.1132,-4.1091,-4.1108,-4.1102,-4.1095,-4.1109,-4.1109,-4.1148,-4.1265,-4.2025,-4.2454,-4.2572,-4.3444,-4.386,-4.3899,-4.4765,-4.5156,-4.5215,-4.5976,-4.6308,-4.6308,-4.6308,-4.6308,-4.6308,-4.6308,-4.6308,-4.6308,-4.6308,-4.6308,-4.6308,-4.6308,-4.6308,-4.6308,-4.6308,-4.6308,-4.6484,-4.7344,-4.7598,-4.8008,-4.9746,-5.0195,-5.0391,-5.1211,-5.1406,-5.1406,-5.1406,-5.1406,-5.1406,-5.1406,-5.1406,-5.168,-5.2558,-5.3418,-5.4297,-5.5176,-5.6035,-5.6601,-5.6601,-5.6601,-5.6601,-5.6601,-5.6601,-5.6581,-5.6577,-5.6471,-5.6438,-5.6541,-5.6324,-5.6232,-5.6347,-5.6056,-5.5845,-5.5695,-5.5703,-5.5703,-5.5703,-5.5703,-5.5703,-5.5703,-5.5703,-5.5703,-4.1191,-4.1191,-4.1191,-4.1191,-4.1191,-4.1191,-4.1191,-4.1191,-4.1191,-4.1191,0.0,0.0,0.0,0.0,0.0,0.0,-4.1504,-4.1797,-4.3457,-4.2558,-4.2519,-4.4746,-4.3457,-4.2363,-4.2266,-4.2031,-4.1699,-4.123,-4.1621,-4.1699,-4.1211,-4.1172,-4.1132,-4.1108,-4.1105,-4.11,-4.1109,-4.1109,-4.1109,-4.1109,-4.1479,-4.1908,-4.2415,-4.2782,-4.3216,-4.3724,-4.4081,-4.4531,-4.5039,-4.5391,-4.584,-4.6308,-4.6308,-4.6308,-4.6308,-4.6308,-4.6308,-4.6308,-4.6308,-4.6308,-4.6308,-4.6308,-4.6308,-4.6308,-4.6308,-4.6308,-4.6582,-4.7969,-4.7988,-4.8105,-5.0312,-5.0547,-5.0391,-5.1211,-5.1406,-5.1406,-5.1406,-5.1406,-5.1406,-5.1406,-5.1816,-5.2422,-5.3301,-5.3769,-5.4473,-5.5859,-5.6367,-5.6601,-5.6601,-5.6601,-5.6601,-5.6601,-5.6601,-5.6601,-5.6601,-5.6555,-5.6531,-5.6597,-5.6416,-5.6336,-5.6402,-5.6154,-5.599,-5.5919,-5.5854,-5.5808,-5.5808,-5.5747,-5.5703,-5.5703,-5.5703,-5.5703,-4.1191,-4.1191,-4.1191,-4.1191,-4.1191,-4.1191,-4.1191,-4.1191,-4.1191,-4.1191,-4.1191,0.0,0.0,0.0,-4.1387,-4.1973,0.0,-4.1699,-4.3144,-4.2109,-4.2051,-4.4375,-4.3535,-4.2539,-4.1933,-4.2402,-4.2422,-4.1582,-4.207,-4.2051,-4.123,-4.1191,-4.1288,-4.1458,-4.1458,-4.1454,-4.1461,-4.1459,-4.1343,-4.1109,-4.1109,-4.142,-4.2045,-4.2041,-4.2396,-4.3001,-4.3241,-4.3848,-4.4668,-4.4902,-4.5508,-4.6308,-4.6308,-4.6308,-4.6308,-4.6308,-4.6308,-4.6308,-4.6308,-4.6308,-4.6308,-4.6308,-4.6308,-4.6308,-4.6308,-4.6465,-4.6875,-4.7891,-4.8086,-4.8379,-5.0234,-5.0469,-5.0391,-5.1211,-5.1406,-5.1406,-5.1406,-5.1582,-5.1699,-5.1445,-5.2305,-5.3262,-5.3887,-5.4199,-5.4863,-5.6367,-5.6601,-5.6601,-5.6601,-5.6601,-5.6601,-5.6601,-5.6601,-5.6601,-5.6601,-5.6601,-5.66,-5.66,-5.6515,-5.6433,-5.6409,-5.6261,-5.6166,-5.6097,-5.6005,-5.5938,-5.5907,-5.5789,-5.5747,-5.5703,-5.5703,-5.5703,-4.1191,-4.1191,-4.1191,-4.1191,-4.1191,-4.1191,-4.1191,-4.1191,-4.1191,-4.1191,-4.1191,-4.1191,-4.1191,-4.1191,-4.1211,-4.123,-4.1211,0.0,0.0,-4.1719,-4.1836,-4.3535,-4.3691,-4.3652,-4.3613,-4.3633,-4.3301,-4.2422,-4.2383,-4.2051,-4.123,-4.1191,-4.1562,-4.2336,-4.2356,-4.2351,-4.2357,-4.2357,-4.1927,-4.1109,-4.1109,-4.1109,-4.1148,-4.1142,-4.1166,-4.1225,-4.2089,-4.2949,-4.3808,-4.4648,-4.5508,-4.6308,-4.6308,-4.6308,-4.6308,-4.6308,-4.6308,-4.6308,-4.6308,-4.6308,-4.6308,-4.6308,-4.6308,-4.6308,-4.6308,-4.6894,-4.7383,-4.6601,-4.7578,-4.8887,-4.8965,-4.959,-5.0391,-5.1211,-5.1406,-5.1406,-5.1406,-5.2051,-5.2402,-5.1562,-5.2793,-5.3965,-5.4004,-5.4707,-5.5566,-5.6465,-5.6601,-5.6601,-5.6601,-5.6601,-5.6601,-5.6601,-5.6601,-5.6601,-5.6601,-5.6601,-5.6601,-5.6601,-5.66,-5.6548,-5.6407,-5.6386,-5.6305,-5.6097,-5.6091,-5.6035,-5.5907,-5.5907,-5.5827,-5.5703,-5.5703,-5.5703,-4.1191,-4.1191,-4.1191,-4.1191,-4.1191,-4.1191,-4.1191,-4.1191,-4.1191,-4.1191,-4.1191,-4.1191,-4.1191,-4.1191,-4.1367,-4.1914,-4.1992,-4.209,0.0,-4.1719,-4.1816,-4.3496,-4.3183,-4.3066,-4.3633,-4.3691,-4.334,-4.2461,-4.2402,-4.2051,-4.123,-4.1191,-4.1308,-4.1539,-4.1539,-4.1536,-4.1544,-4.1544,-4.1385,-4.1109,-4.1109,-4.1091,-4.1095,-4.1104,-4.1108,-4.111,-4.1465,-4.2402,-4.3711,-4.4023,-4.498,-4.6308,-4.6308,-4.6308,-4.6308,-4.6308,-4.6308,-4.6308,-4.6308,-4.6308,-4.6308,-4.6308,-4.6308,-4.6308,-4.6308,-4.6504,-4.6797,-4.707,-4.8008,-4.9023,-4.9609,-5.0371,-5.1055,-5.1348,-5.1406,-5.1406,-5.1406,-5.207,-5.2617,-5.2324,-5.3672,-5.4863,-5.4863,-5.5586,-5.6269,-5.6562,-5.6601,-5.6601,-5.6601,-5.6601,-5.6601,-5.6601,-5.6601,-5.6601,-5.6601,-5.6601,-5.6601,-5.6601,-5.6601,-5.6577,-5.6528,-5.6538,-5.6504,-5.6422,-5.6344,-5.6286,-5.623,-5.6104,-5.6013,-5.5959,-5.5959,-5.5872,-4.1126,-4.115,-4.1172,-4.1191,-4.1191,-4.1191,-4.1191,-4.1191,-4.1191,-4.1191,-4.1191,-4.1191,-4.1191,-4.1191,-4.1367,-4.1894,-4.1973,-4.1973,0.0,-4.1777,-4.2148,-4.3535,-4.3203,-4.3203,-4.4082,-4.416,-4.3672,-4.248,-4.2402,-4.2051,-4.123,-4.1465,-4.1757,-4.2029,-4.2029,-4.2027,-4.2019,-4.1725,-4.141,-4.1097,-4.1093,-4.1093,-4.1099,-4.1105,-4.1108,-4.1091,-4.1172,-4.1973,-4.3262,-4.3574,-4.4531,-4.5879,-4.6172,-4.6308,-4.6308,-4.6308,-4.6308,-4.6308,-4.6308,-4.6308,-4.6308,-4.6308,-4.6308,-4.6308,-4.6308,-4.6523,-4.6875,-4.7441,-4.8457,-4.9492,-5.0058,-5.0801,-5.1406,-5.1406,-5.1406,-5.1406,-5.1406,-5.2324,-5.3066,-5.2754,-5.4355,-5.5664,-5.5351,-5.6015,-5.6601,-5.6601,-5.6601,-5.6601,-5.6601,-5.6601,-5.6601,-5.6601,-5.6601,-5.6601,-5.6601,-5.6601,-5.6601,-5.6601,-5.6601,-5.66,-5.6599,-5.6597,-5.6887,-5.7488,-5.6816,-5.6742,-5.7287,-5.6553,-5.6172,-5.6097,-5.6097,-5.6013]},{"header":{"parameterUnit":"m.s-1","parameterCategory":1,"la1":30.6,"la2":29.2853,"lo1":-89.7004,"lo2":-87.6739,"dy":0.0162,"dx":0.0183,"nx":112,"ny":82,"refTime":"2023-03-25T00:00:00:Z","depth":0,"parameterNumber":3,"parameterNumberName":"V-component_of_WINDS"},"data":[0.0,0.0,0.0,0.0,0.0,0.0,0.0,0.0,0.0,0.0,0.0,0.0,0.0,0.0,0.0,0.0,0.0,0.0,0.0,0.0,0.0,0.0,0.0,0.0,0.0,0.0,0.0,0.0,0.0,0.0,0.0,0.0,0.0,0.0,0.0,0.0,0.0,0.0,0.0,0.0,0.0,0.0,0.0,0.0,0.0,0.0,0.0,0.0,0.0,0.0,0.0,0.0,0.0,0.0,0.0,0.0,0.0,0.0,0.0,0.0,0.0,0.0,0.0,0.0,0.0,0.0,0.0,0.0,0.0,0.0,0.0,0.0,0.0,0.0,0.0,0.0,0.0,0.0,0.0,0.0,0.0,0.0,0.0,0.0,0.0,0.0,0.0,0.0,0.0,0.0,-1.4603,-1.5035,-1.5504,-1.5784,-1.5784,-1.5744,-1.5531,-1.5042,0.0,0.0,0.0,0.0,0.0,0.0,0.0,0.0,0.0,0.0,0.0,0.0,0.0,0.0,0.0,0.0,0.0,0.0,0.0,0.0,0.0,0.0,0.0,0.0,0.0,0.0,0.0,0.0,0.0,0.0,0.0,0.0,0.0,0.0,0.0,0.0,0.0,0.0,0.0,0.0,0.0,0.0,0.0,0.0,0.0,0.0,0.0,0.0,0.0,0.0,0.0,0.0,0.0,0.0,0.0,0.0,0.0,0.0,0.0,0.0,0.0,0.0,0.0,0.0,0.0,0.0,0.0,0.0,0.0,0.0,0.0,0.0,0.0,0.0,0.0,0.0,0.0,0.0,0.0,0.0,0.0,0.0,0.0,0.0,0.0,0.0,0.0,0.0,0.0,0.0,0.0,0.0,0.0,0.0,0.0,0.0,0.0,0.0,0.0,0.0,0.0,0.0,0.0,0.0,-1.4456,-1.5244,-1.5631,-1.5784,-1.5784,-1.5605,-1.5317,-1.5028,0.0,0.0,0.0,0.0,0.0,0.0,0.0,0.0,0.0,0.0,0.0,0.0,0.0,0.0,0.0,0.0,0.0,0.0,0.0,0.0,0.0,0.0,0.0,0.0,0.0,0.0,0.0,0.0,0.0,0.0,0.0,0.0,0.0,0.0,0.0,0.0,0.0,0.0,0.0,0.0,0.0,0.0,0.0,0.0,0.0,0.0,0.0,0.0,0.0,0.0,0.0,0.0,0.0,0.0,0.0,0.0,0.0,0.0,0.0,0.0,0.0,0.0,0.0,0.0,0.0,0.0,0.0,0.0,0.0,0.0,0.0,0.0,0.0,0.0,0.0,0.0,0.0,0.0,0.0,0.0,0.0,0.0,0.0,0.0,0.0,0.0,0.0,0.0,0.0,0.0,0.0,0.0,0.0,0.0,0.0,0.0,0.0,0.0,0.0,0.0,0.0,0.0,0.0,-1.4235,-1.4663,-1.5538,-1.5752,-1.5784,-1.5784,-1.5705,-1.5438,-1.5035,-1.5135,0.0,0.0,0.0,0.0,0.0,0.0,0.0,0.0,0.0,0.0,0.0,0.0,0.0,0.0,0.0,0.0,0.0,0.0,0.0,0.0,0.0,0.0,0.0,0.0,0.0,0.0,0.0,0.0,0.0,0.0,0.0,0.0,0.0,0.0,0.0,0.0,0.0,0.0,0.0,0.0,0.0,0.0,0.0,0.0,0.0,0.0,0.0,0.0,0.0,0.0,0.0,0.0,0.0,0.0,0.0,0.0,0.0,0.0,0.0,0.0,0.0,0.0,0.0,0.0,0.0,0.0,0.0,0.0,0.0,0.0,0.0,0.0,0.0,0.0,0.0,0.0,0.0,0.0,0.0,0.0,0.0,0.0,0.0,0.0,0.0,0.0,0.0,0.0,0.0,0.0,0.0,0.0,0.0,0.0,0.0,0.0,0.0,0.0,0.0,0.0,0.0,0.0,-1.4543,-1.493,-1.5745,-1.5784,-1.5784,-1.5784,-1.5718,-1.5504,-1.5042,-1.4941,0.0,0.0,0.0,0.0,0.0,0.0,0.0,0.0,0.0,0.0,0.0,0.0,0.0,0.0,0.0,0.0,0.0,0.0,0.0,0.0,0.0,0.0,0.0,0.0,0.0,0.0,0.0,0.0,0.0,0.0,0.0,0.0,0.0,0.0,0.0,0.0,0.0,0.0,0.0,0.0,0.0,0.0,0.0,0.0,0.0,0.0,0.0,0.0,0.0,0.0,0.0,0.0,0.0,0.0,0.0,0.0,0.0,0.0,0.0,0.0,0.0,0.0,0.0,0.0,0.0,0.0,0.0,0.0,0.0,0.0,0.0,0.0,0.0,0.0,0.0,0.0,0.0,0.0,0.0,0.0,0.0,0.0,0.0,0.0,0.0,0.0,0.0,0.0,0.0,0.0,0.0,0.0,0.0,0.0,0.0,0.0,0.0,0.0,0.0,0.0,0.0,0.0,-1.464,-1.5164,-1.5718,-1.5784,-1.5784,-1.5784,-1.5578,-1.5297,-1.5028,-1.4703,0.0,0.0,0.0,0.0,0.0,0.0,0.0,0.0,0.0,0.0,0.0,0.0,0.0,0.0,0.0,0.0,0.0,0.0,0.0,0.0,0.0,0.0,0.0,0.0,0.0,0.0,0.0,0.0,0.0,0.0,0.0,0.0,0.0,0.0,0.0,0.0,0.0,0.0,0.0,0.0,0.0,0.0,0.0,0.0,0.0,0.0,0.0,0.0,0.0,0.0,0.0,0.0,0.0,0.0,0.0,0.0,0.0,0.0,0.0,0.0,0.0,0.0,0.0,0.0,0.0,0.0,0.0,0.0,0.0,0.0,0.0,0.0,0.0,0.0,0.0,0.0,0.0,0.0,0.0,0.0,0.0,0.0,0.0,0.0,0.0,0.0,0.0,0.0,0.0,0.0,0.0,0.0,0.0,0.0,0.0,0.0,0.0,0.0,0.0,0.0,0.0,0.0,-1.4436,-1.4977,-1.5698,-1.5784,-1.5784,-1.5784,-1.5565,-1.5277,-1.5028,0.0,0.0,0.0,0.0,0.0,0.0,0.0,0.0,0.0,0.0,0.0,0.0,0.0,0.0,0.0,0.0,0.0,0.0,0.0,0.0,0.0,0.0,0.0,0.0,0.0,0.0,0.0,0.0,0.0,0.0,0.0,0.0,0.0,0.0,0.0,0.0,0.0,0.0,0.0,0.0,0.0,0.0,0.0,0.0,0.0,0.0,0.0,0.0,0.0,0.0,0.0,0.0,0.0,0.0,0.0,0.0,0.0,0.0,0.0,0.0,0.0,0.0,0.0,0.0,0.0,0.0,0.0,0.0,0.0,0.0,0.0,0.0,0.0,0.0,0.0,0.0,0.0,0.0,0.0,0.0,0.0,0.0,0.0,0.0,0.0,0.0,0.0,0.0,0.0,0.0,0.0,0.0,0.0,0.0,0.0,0.0,0.0,0.0,0.0,0.0,0.0,0.0,-1.3988,-1.4422,-1.4963,-1.5698,-1.5784,-1.5792,-1.5698,-1.5424,-1.5137,-1.4843,0.0,0.0,0.0,0.0,0.0,0.0,0.0,0.0,0.0,0.0,0.0,0.0,0.0,0.0,0.0,0.0,0.0,0.0,0.0,0.0,0.0,0.0,0.0,0.0,0.0,0.0,0.0,0.0,0.0,0.0,0.0,0.0,0.0,0.0,0.0,0.0,0.0,0.0,0.0,0.0,0.0,0.0,0.0,0.0,0.0,0.0,0.0,0.0,0.0,0.0,0.0,0.0,0.0,0.0,0.0,0.0,0.0,0.0,0.0,0.0,0.0,0.0,0.0,0.0,0.0,0.0,0.0,0.0,0.0,0.0,0.0,0.0,0.0,0.0,0.0,0.0,0.0,0.0,0.0,0.0,0.0,0.0,0.0,0.0,0.0,0.0,0.0,0.0,0.0,0.0,0.0,0.0,0.0,0.0,0.0,0.0,0.0,0.0,0.0,0.0,0.0,0.0,-1.4008,-1.464,-1.519,-1.5718,-1.5784,-1.5712,-1.5424,-1.513,-1.4836,0.0,0.0,0.0,0.0,0.0,0.0,0.0,0.0,0.0,0.0,0.0,0.0,0.0,0.0,0.0,0.0,0.0,0.0,0.0,0.0,0.0,0.0,0.0,0.0,0.0,0.0,0.0,0.0,0.0,0.0,0.0,0.0,0.0,0.0,0.0,0.0,0.0,0.0,0.0,0.0,0.0,0.0,0.0,0.0,0.0,0.0,0.0,0.0,0.0,0.0,0.0,0.0,0.0,0.0,0.0,0.0,0.0,0.0,0.0,0.0,0.0,0.0,0.0,0.0,0.0,0.0,0.0,0.0,0.0,0.0,0.0,0.0,0.0,0.0,0.0,0.0,0.0,0.0,0.0,0.0,0.0,0.0,0.0,0.0,0.0,0.0,0.0,0.0,0.0,0.0,0.0,0.0,0.0,0.0,0.0,0.0,0.0,0.0,0.0,0.0,0.0,0.0,0.0,-1.4008,-1.464,-1.519,-1.5718,-1.5784,-1.5712,-1.5424,-1.513,-1.4836,-1.4536,0.0,0.0,0.0,0.0,0.0,0.0,0.0,0.0,0.0,0.0,0.0,0.0,0.0,0.0,0.0,0.0,0.0,0.0,0.0,0.0,0.0,0.0,0.0,0.0,0.0,0.0,0.0,0.0,0.0,0.0,0.0,0.0,0.0,0.0,0.0,0.0,0.0,0.0,0.0,0.0,0.0,0.0,0.0,0.0,0.0,0.0,0.0,0.0,0.0,0.0,0.0,0.0,0.0,0.0,0.0,0.0,0.0,0.0,0.0,0.0,0.0,0.0,0.0,0.0,0.0,0.0,0.0,0.0,0.0,0.0,0.0,0.0,0.0,0.0,0.0,0.0,0.0,0.0,0.0,0.0,0.0,0.0,0.0,0.0,0.0,0.0,0.0,0.0,0.0,0.0,0.0,0.0,0.0,0.0,0.0,0.0,0.0,0.0,0.0,0.0,0.0,0.0,-1.4008,-1.464,-1.519,-1.5718,-1.5784,-1.5665,-1.5257,-1.5109,-1.4834,-1.4376,0.0,0.0,0.0,0.0,0.0,0.0,0.0,0.0,0.0,0.0,0.0,0.0,0.0,0.0,0.0,0.0,0.0,0.0,0.0,0.0,0.0,0.0,0.0,0.0,0.0,0.0,0.0,0.0,0.0,0.0,0.0,0.0,0.0,0.0,0.0,0.0,0.0,0.0,0.0,0.0,0.0,0.0,0.0,0.0,0.0,0.0,0.0,0.0,0.0,0.0,0.0,0.0,0.0,0.0,0.0,0.0,0.0,0.0,0.0,0.0,0.0,0.0,0.0,0.0,0.0,0.0,0.0,0.0,0.0,0.0,0.0,0.0,0.0,0.0,0.0,0.0,0.0,0.0,0.0,0.0,0.0,0.0,0.0,0.0,0.0,0.0,0.0,0.0,0.0,0.0,0.0,0.0,0.0,0.0,0.0,0.0,0.0,0.0,0.0,0.0,0.0,0.0,-1.4008,-1.464,-1.519,-1.5718,-1.5758,-1.5565,-1.5055,-1.4955,-1.47,-1.4122,0.0,0.0,0.0,0.0,0.0,0.0,0.0,0.0,0.0,0.0,0.0,0.0,0.0,0.0,0.0,0.0,0.0,0.0,0.0,0.0,0.0,0.0,0.0,0.0,0.0,0.0,0.0,0.0,0.0,0.0,0.0,0.0,0.0,0.0,0.0,0.0,0.0,0.0,0.0,0.0,0.0,0.0,0.0,0.0,0.0,0.0,0.0,0.0,0.0,0.0,0.0,0.0,0.0,0.0,0.0,0.0,0.0,0.0,0.0,0.0,-1.3007,-1.3403,0.0,0.0,0.0,0.0,0.0,0.0,0.0,0.0,0.0,0.0,0.0,0.0,0.0,0.0,0.0,0.0,0.0,0.0,0.0,0.0,0.0,0.0,0.0,0.0,0.0,0.0,0.0,0.0,0.0,0.0,0.0,0.0,0.0,0.0,0.0,0.0,0.0,0.0,0.0,0.0,-1.4008,-1.464,-1.519,-1.5718,-1.5625,-1.5344,-1.5035,-1.4543,-1.4222,-1.4095,-1.3868,0.0,0.0,0.0,0.0,0.0,0.0,0.0,0.0,0.0,0.0,0.0,0.0,0.0,0.0,0.0,0.0,0.0,0.0,0.0,0.0,0.0,0.0,0.0,0.0,0.0,0.0,0.0,0.0,0.0,0.0,0.0,0.0,0.0,0.0,0.0,0.0,0.0,0.0,0.0,0.0,0.0,0.0,0.0,0.0,0.0,0.0,0.0,0.0,0.0,0.0,0.0,0.0,0.0,0.0,0.0,0.0,0.0,0.0,0.0,-1.291,-1.3264,0.0,0.0,0.0,0.0,0.0,0.0,0.0,0.0,0.0,0.0,0.0,0.0,0.0,0.0,0.0,0.0,0.0,0.0,0.0,0.0,0.0,0.0,0.0,0.0,0.0,0.0,0.0,0.0,0.0,0.0,0.0,0.0,0.0,0.0,0.0,0.0,0.0,0.0,0.0,0.0,-1.4008,-1.464,-1.519,-1.5718,-1.5698,-1.5431,-1.5042,-1.4727,-1.4432,-1.4108,-1.3941,0.0,0.0,0.0,0.0,0.0,0.0,0.0,0.0,0.0,0.0,0.0,0.0,0.0,0.0,0.0,0.0,0.0,0.0,0.0,0.0,0.0,0.0,0.0,0.0,0.0,0.0,0.0,0.0,0.0,0.0,0.0,0.0,0.0,0.0,0.0,0.0,0.0,0.0,0.0,0.0,0.0,0.0,0.0,0.0,0.0,0.0,0.0,0.0,0.0,0.0,0.0,0.0,0.0,-1.2107,-1.2228,-1.2065,-1.2282,-1.2379,-1.2391,-1.2995,-1.3222,-1.3118,-1.3182,0.0,0.0,0.0,0.0,0.0,0.0,0.0,0.0,0.0,0.0,0.0,0.0,0.0,0.0,0.0,0.0,0.0,0.0,0.0,0.0,0.0,0.0,-1.3302,-1.3587,-1.3652,-1.3652,-1.361,0.0,0.0,0.0,0.0,0.0,0.0,0.0,0.0,0.0,0.0,0.0,-1.4015,-1.4643,-1.5192,-1.5724,-1.5731,-1.5491,-1.5055,-1.4914,-1.4646,-1.4115,-1.4041,-1.4035,0.0,0.0,0.0,0.0,0.0,0.0,0.0,0.0,0.0,0.0,0.0,0.0,0.0,0.0,0.0,0.0,0.0,0.0,0.0,0.0,0.0,0.0,0.0,0.0,0.0,0.0,0.0,0.0,0.0,0.0,0.0,0.0,-1.1449,-1.1585,0.0,0.0,0.0,0.0,0.0,0.0,0.0,0.0,0.0,0.0,0.0,0.0,0.0,-1.1387,-1.1772,-1.1814,-1.1946,-1.221,-1.2282,-1.2415,-1.2602,-1.2638,-1.265,-1.2656,-1.2735,0.0,-1.3075,-1.2885,0.0,0.0,0.0,0.0,0.0,0.0,0.0,0.0,0.0,0.0,0.0,0.0,0.0,0.0,0.0,0.0,0.0,0.0,0.0,0.0,0.0,0.0,-1.3096,-1.3377,-1.344,-1.3392,-1.3222,-1.3291,-1.3192,-1.2708,-1.2452,-1.226,0.0,0.0,0.0,0.0,0.0,0.0,-1.4041,-1.4639,-1.5226,-1.5744,-1.5364,-1.5081,-1.499,-1.4539,-1.4168,-1.4095,-1.3841,-1.3814,-1.4075,-1.4088,0.0,0.0,0.0,0.0,0.0,0.0,0.0,0.0,0.0,0.0,0.0,0.0,0.0,0.0,0.0,0.0,0.0,0.0,0.0,0.0,0.0,0.0,0.0,0.0,0.0,0.0,0.0,0.0,0.0,-1.064,-1.0311,-1.0239,-0.9361,-0.8715,0.0,0.0,0.0,0.0,0.0,0.0,0.0,0.0,0.0,-1.0339,-1.0554,-1.078,-1.1062,-1.1232,-1.1438,-1.168,-1.2388,-1.2831,-1.2946,-1.3091,-1.3163,-1.3151,-1.3006,-1.2983,-1.3083,-1.2787,-1.2569,-1.2525,0.0,0.0,0.0,0.0,-1.2569,-1.2679,-1.26,-1.2745,-1.2949,-1.279,0.0,0.0,0.0,0.0,0.0,0.0,0.0,-1.2478,-1.2512,-1.266,-1.2841,-1.3159,-1.3228,-1.3222,-1.3137,-1.3008,-1.2861,-1.2462,-1.2272,-1.2124,-1.1864,-1.1818,0.0,0.0,0.0,-1.3601,-1.4097,-1.4629,-1.5172,-1.5602,-1.5293,-1.4993,-1.4772,-1.454,-1.4299,-1.4108,-1.3968,-1.3948,-1.4082,-1.4088,-1.4088,0.0,0.0,0.0,0.0,0.0,0.0,0.0,0.0,0.0,0.0,0.0,0.0,0.0,0.0,0.0,0.0,0.0,0.0,0.0,0.0,0.0,0.0,0.0,0.0,0.0,0.0,0.0,0.0,-0.9575,-0.9096,-0.8959,-0.8201,-0.7678,0.0,0.0,0.0,0.0,0.0,0.0,-0.7653,-0.8404,-0.9028,-0.943,-0.9671,-0.9969,-1.0282,-1.0807,-1.1154,-1.1368,-1.263,-1.3179,-1.323,-1.3429,-1.3513,-1.3507,-1.3308,-1.3101,-1.2982,-1.2631,-1.2443,-1.2299,-1.2391,-1.2319,-1.2214,-1.2137,-1.2187,-1.2289,-1.225,-1.2343,-1.2481,-1.2274,-1.2156,-1.2037,-1.1809,0.0,0.0,0.0,0.0,-1.2122,-1.2197,-1.2372,-1.2586,-1.2899,-1.3009,-1.3009,-1.3009,-1.2855,-1.2632,-1.228,-1.2169,-1.207,-1.1847,-1.1816,0.0,-1.2278,-1.296,-1.3626,-1.4132,-1.4637,-1.507,-1.5378,-1.5172,-1.4879,-1.4611,-1.454,-1.4376,-1.4101,-1.4044,-1.4046,-1.4088,-1.4088,-1.4088,-1.4088,0.0,0.0,0.0,0.0,0.0,0.0,0.0,0.0,0.0,0.0,0.0,0.0,0.0,0.0,0.0,0.0,0.0,0.0,0.0,0.0,0.0,0.0,0.0,0.0,0.0,0.0,0.0,0.0,0.0,-0.8229,-0.7424,0.0,0.0,0.0,0.0,-0.5188,-0.5274,-0.5697,-0.6458,-0.6544,-0.7233,-0.8692,-0.8761,-0.9159,-1.003,-1.0994,-1.1603,-1.1858,-1.2979,-1.3495,-1.3495,-1.3507,-1.3513,-1.3513,-1.3501,-1.3206,-1.2705,-1.2427,-1.243,-1.2558,-1.2299,-1.2313,-1.246,-1.2261,-1.2342,-1.2558,-1.2359,-1.2282,-1.2288,-1.2317,-1.2098,-1.1837,-1.1786,-1.1934,0.0,0.0,-1.2169,-1.2203,-1.2269,-1.23,-1.2379,-1.2644,-1.2705,-1.2705,-1.2705,-1.2693,-1.2608,-1.2343,-1.2095,-1.1954,-1.2123,0.0,-1.2329,-1.2807,-1.3368,-1.3875,-1.4141,-1.4521,-1.4819,-1.5077,-1.4885,-1.4671,-1.4617,-1.4383,-1.4187,-1.4111,-1.3844,-1.3828,-1.4088,-1.4088,-1.4088,-1.4088,-1.4088,0.0,0.0,0.0,0.0,0.0,0.0,0.0,0.0,0.0,0.0,0.0,0.0,0.0,0.0,0.0,0.0,0.0,0.0,0.0,0.0,0.0,0.0,0.0,0.0,0.0,0.0,0.0,0.0,-0.717,-0.6437,0.0,-0.5882,-0.5597,-0.5375,-0.5249,-0.5352,-0.5504,-0.5796,-0.6549,-0.7241,-0.7803,-0.8,-0.8394,-0.9009,-0.9452,-0.9826,-1.0189,-1.1229,-1.2118,-1.2735,-1.2892,-1.3348,-1.4008,-1.3839,-1.3658,-1.3447,-1.3012,-1.2669,-1.2401,-1.248,-1.2448,-1.2378,-1.2296,-1.2207,-1.2146,-1.2059,-1.2024,-1.2024,-1.2024,-1.1972,-1.186,-1.186,-1.19,-1.1964,-1.2016,-1.2128,-1.228,-1.2288,-1.2439,-1.2584,-1.2681,-1.2705,-1.2705,-1.2705,-1.2705,-1.2681,-1.2584,-1.2355,-1.2119,-1.203,-1.214,-1.2388,-1.2734,-1.3417,-1.3968,-1.4249,-1.4512,-1.4742,-1.4838,-1.4592,-1.4434,-1.435,-1.4122,-1.3907,-1.3655,-1.2967,-1.2844,-1.3352,-1.256,-1.2388,-1.3009,-1.2534,-1.2618,0.0,0.0,0.0,0.0,0.0,0.0,0.0,0.0,0.0,0.0,0.0,0.0,0.0,0.0,0.0,0.0,0.0,0.0,0.0,0.0,0.0,0.0,0.0,0.0,0.0,0.0,-0.6005,-0.6005,-0.5617,-0.5346,-0.5436,-0.5445,-0.5491,-0.5496,-0.5602,-0.5623,-0.5623,-0.6397,-0.6854,-0.6948,-0.718,-0.749,-0.7938,-0.8405,-0.8833,-0.9195,-1.0395,-1.1302,-1.1929,-1.2464,-1.3071,-1.3746,-1.3969,-1.3984,-1.3882,-1.3532,-1.3127,-1.2717,-1.2705,-1.2656,-1.2578,-1.2481,-1.2451,-1.2391,-1.2252,-1.2125,-1.2041,-1.191,-1.188,-1.1938,-1.2029,-1.2012,-1.203,-1.2161,-1.2312,-1.2445,-1.2445,-1.2572,-1.2705,-1.2705,-1.2705,-1.2705,-1.2705,-1.2705,-1.2705,-1.2705,-1.2566,-1.2421,-1.2301,-1.2427,-1.2705,-1.3055,-1.3558,-1.3979,-1.4249,-1.4481,-1.4592,-1.4592,-1.4394,-1.4142,-1.3643,-1.3795,-1.347,-1.2435,-1.2095,-1.198,-1.21,-1.127,-1.1096,-1.1789,-1.1402,-1.1532,-1.2178,0.0,0.0,0.0,0.0,0.0,0.0,0.0,0.0,0.0,0.0,0.0,0.0,0.0,0.0,0.0,0.0,0.0,0.0,0.0,0.0,0.0,0.0,0.0,-0.5761,-0.5194,-0.4824,-0.4827,-0.4914,-0.5109,-0.5292,-0.5481,-0.5641,-0.5707,-0.585,-0.5915,-0.5915,-0.5918,-0.6029,-0.6314,-0.6322,-0.6475,-0.6792,-0.8071,-0.8859,-0.9167,-1.0489,-1.1121,-1.117,-1.2145,-1.263,-1.2732,-1.3806,-1.4106,-1.3871,-1.3859,-1.3709,-1.3426,-1.2928,-1.2842,-1.3047,-1.2807,-1.3037,-1.3417,-1.2886,-1.2536,-1.2282,-1.2029,-1.1904,-1.1952,-1.2246,-1.2324,-1.2379,-1.2632,-1.2705,-1.2705,-1.2705,-1.2705,-1.2705,-1.2705,-1.2705,-1.2705,-1.2662,-1.2662,-1.2662,-1.2619,-1.2625,-1.2715,-1.2991,-1.3045,-1.3231,-1.3781,-1.3865,0.0,-1.4214,-1.4202,-1.4196,-1.4196,-1.4196,-1.3706,-1.2556,-1.328,-1.2803,-1.0531,-1.1214,-1.1272,-1.0407,-1.0324,-1.0383,-1.0519,-1.0783,-1.1027,-1.1133,0.0,0.0,0.0,0.0,0.0,0.0,0.0,0.0,0.0,0.0,0.0,0.0,0.0,0.0,0.0,0.0,0.0,0.0,0.0,0.0,0.0,0.0,-0.4897,-0.5069,-0.5017,-0.4952,-0.503,-0.5131,-0.5337,-0.5572,-0.5647,-0.5746,-0.5991,-0.61,-0.6168,-0.6168,-0.6246,-0.632,-0.6388,-0.6391,-0.6506,-0.6795,-0.7188,-0.7587,-0.8038,-0.8432,-0.9118,-1.0047,-1.0337,-1.0877,-1.1658,-1.2684,-1.308,-1.3008,-1.2836,-1.2725,-1.2661,-1.2895,-1.2604,-1.2137,-1.2543,-1.2795,-1.2904,-1.2753,-1.2656,-1.2584,-1.2512,-1.2487,-1.2499,-1.2572,-1.2596,-1.2614,-1.2687,-1.2705,-1.2705,-1.2705,-1.2705,-1.2705,-1.2705,-1.2705,-1.2528,-1.1843,-1.1671,-1.1494,-1.0794,-1.0796,-1.111,-1.1805,-1.224,-1.2562,-1.2742,-1.2914,-1.3047,-1.3113,-1.249,-1.2047,-1.2047,-1.2047,-1.1859,-1.1395,-1.1328,-1.095,-1.0077,-0.9567,-0.9418,-0.9742,-0.8824,-0.8408,-0.8632,-0.9323,-0.9768,0.0,0.0,0.0,0.0,0.0,0.0,0.0,0.0,0.0,0.0,0.0,0.0,0.0,0.0,0.0,0.0,0.0,0.0,0.0,0.0,0.0,0.0,-0.4304,-0.4484,-0.4743,-0.4807,-0.4906,-0.4919,-0.5025,-0.5172,-0.5458,-0.547,-0.5607,-0.6039,-0.6105,-0.6243,-0.6339,-0.6401,-0.6387,-0.6387,-0.6387,-0.6487,-0.6639,-0.6742,-0.6945,-0.7244,-0.7497,-0.7988,-0.8775,-0.9361,-0.9948,-1.0583,-1.1609,-1.204,-1.199,-1.1815,-1.1707,-1.1646,0.0,0.0,0.0,0.0,-1.2396,-1.2261,-1.2701,-1.2801,-1.2705,-1.2705,-1.2705,-1.2705,-1.2705,-1.2705,-1.2705,-1.2705,-1.2789,-1.288,-1.288,-1.2958,-1.2911,-1.2461,-1.2336,-1.2038,-1.103,-1.0778,-1.0534,-1.0009,-0.9812,0.0,-1.0376,-1.1111,-1.1699,-1.1844,-1.1966,-1.2047,-1.2047,-1.156,-1.1219,-1.1219,-1.1138,-1.0809,-1.0231,-1.0375,0.0,0.0,0.0,-0.8435,-0.8403,-0.7716,0.0,0.0,0.0,-0.8689,-0.895,-0.9792,0.0,0.0,-1.048,-1.0715,0.0,0.0,0.0,0.0,0.0,0.0,0.0,0.0,0.0,0.0,0.0,0.0,0.0,0.0,0.0,0.0,-0.4267,-0.4418,-0.4673,-0.4716,-0.4724,-0.4724,-0.4724,-0.4851,-0.5181,-0.516,-0.5342,-0.5934,-0.5992,-0.6089,-0.6337,-0.6387,0.0,0.0,0.0,-0.6387,-0.6387,-0.6639,-0.6792,-0.6795,-0.7294,-0.7547,-0.7593,-0.8821,-0.9361,-0.946,-1.0534,-1.0969,-1.0844,-1.0844,-1.0693,-1.0389,-1.0301,-1.0473,-1.0844,-1.1623,-1.1692,-1.1504,-1.2447,0.0,0.0,-1.2534,-1.2637,-1.2753,-1.2753,-1.2753,-1.2753,-1.2753,-1.2928,-1.3083,-1.2945,-1.3135,-1.3047,-1.1954,-1.1602,-1.1261,-1.0216,-0.9883,-0.9705,-0.9618,-0.9169,-0.8819,-0.8839,-0.9854,-1.077,-1.1,-1.1028,-1.1028,-1.1028,-1.0925,-1.0828,-1.0828,-1.0663,0.0,-0.9125,-0.9833,-0.9364,-0.709,-0.7945,-0.8032,-0.6959,-0.7031,-0.7214,-0.7412,-0.7594,-0.7841,-0.8159,-0.8397,-0.8477,-0.8382,-0.9608,-1.0047,0.0,0.0,0.0,0.0,0.0,0.0,0.0,0.0,0.0,0.0,0.0,0.0,0.0,0.0,0.0,-0.4259,-0.4412,-0.4563,-0.4692,-0.4767,-0.476,-0.476,-0.476,-0.4868,-0.5188,-0.5175,-0.5318,-0.5634,-0.5889,-0.6042,-0.6092,-0.6287,-0.6387,-0.6387,-0.6387,-0.6387,-0.6387,-0.6437,-0.6589,-0.6795,-0.6895,0.0,-0.7288,-0.7789,-0.7988,-0.8038,-0.9361,-0.9882,-0.9894,-0.9894,-0.9343,-0.8559,-0.9194,-0.9795,-1.0249,-0.9811,-0.9998,-1.0468,-1.0691,-1.1126,-1.158,-1.158,-1.2244,-1.2999,-1.2999,-1.2999,0.0,-1.2999,-1.3041,-1.2901,-1.2043,-1.1995,-1.1938,-1.08,-1.0502,-1.0197,-0.9063,-0.8784,-0.854,-0.7793,-0.769,-0.7728,-0.7854,-0.8964,-0.9862,-0.9895,-0.9899,-0.9899,-0.9899,-0.9167,-0.863,-0.863,-0.8598,-0.842,-0.8117,-0.8131,-0.7923,-0.7344,-0.7368,-0.7302,-0.7055,-0.7082,-0.7214,-0.7412,-0.7415,-0.7609,-0.7862,-0.7911,-0.7986,-0.8088,-0.8581,-0.8627,0.0,0.0,0.0,0.0,0.0,0.0,0.0,0.0,0.0,0.0,0.0,-0.4355,0.0,0.0,-0.4334,-0.442,-0.4551,-0.4671,-0.4759,-0.4758,-0.4784,-0.4784,-0.4784,-0.4834,-0.4987,-0.4987,-0.5087,-0.5388,-0.5639,-0.5839,-0.5992,-0.6239,-0.6387,-0.6387,-0.6387,-0.6387,-0.6387,-0.6387,-0.6487,-0.6589,-0.6742,-0.6892,-0.6992,-0.7291,-0.7391,-0.7441,-0.8233,-0.8579,-0.8499,-0.8568,-0.8297,-0.7859,-0.8302,-0.874,-0.9115,-0.9115,-0.9329,-0.9657,-1.0057,-1.0756,-1.1499,-1.1499,-1.2336,-1.332,-1.332,-1.332,-1.3186,-1.2636,-1.2587,-1.2449,-1.1436,-1.1366,-1.1265,-1.0171,-0.9815,-0.94,-0.8394,-0.8038,-0.7789,-0.7344,-0.7438,-0.7594,-0.7597,-0.8274,-0.8775,-0.8775,-0.8775,-0.8775,-0.8775,-0.8333,-0.7988,-0.7988,-0.7921,-0.7892,-0.7818,-0.7611,-0.7421,-0.7265,-0.7139,-0.7095,-0.7095,-0.7214,-0.7329,-0.7482,-0.7556,-0.7702,-0.7877,-0.7877,-0.7914,-0.7988,-0.8137,-0.8137,0.0,0.0,0.0,0.0,0.0,0.0,0.0,0.0,-0.4269,-0.4428,-0.4349,-0.4293,-0.4434,-0.4429,-0.4514,-0.4587,-0.4673,-0.4757,-0.4774,-0.4784,-0.4784,-0.4784,-0.4784,-0.4784,-0.4784,-0.4784,-0.4885,-0.509,-0.5388,-0.5636,-0.5889,-0.6189,-0.6337,-0.6387,-0.6387,-0.6387,-0.6387,-0.6387,-0.6387,-0.6387,-0.6639,-0.6742,-0.6742,-0.6989,-0.7138,-0.7138,-0.7444,-0.7529,-0.7463,-0.7589,-0.7685,-0.7695,-0.7811,-0.788,-0.8074,-0.8725,-0.8901,-0.887,-0.9509,-1.035,-1.1138,-1.1184,-1.2102,-1.3195,-1.302,-1.3123,-1.3032,-1.1964,-1.1864,-1.1763,-1.0772,-1.0681,-1.0623,-0.9514,-0.9076,-0.8703,-0.7934,-0.756,-0.7426,-0.7456,-0.7607,-0.7743,-0.7655,-0.7838,-0.7955,-0.7985,-0.7988,-0.7988,-0.7988,-0.7988,-0.7988,-0.7988,-0.788,-0.7841,-0.7814,-0.7567,-0.7363,-0.7193,-0.7159,-0.7152,-0.7183,-0.735,-0.7489,-0.7638,-0.7753,-0.7885,-0.7988,-0.7988,-0.7988,-0.7988,-0.7988,-0.7988,-0.4656,-0.4326,-0.4035,-0.4084,-0.4126,-0.4228,0.0,0.0,-0.4434,-0.4536,-0.459,-0.4581,-0.4553,-0.4624,-0.4681,-0.4692,-0.4765,-0.4774,-0.4782,-0.4784,-0.4784,-0.4784,-0.4784,-0.4784,-0.4784,-0.4784,-0.4834,-0.4834,-0.5087,-0.5338,-0.5636,-0.5889,-0.6139,-0.6387,-0.6387,-0.6387,-0.6387,-0.6387,-0.6387,-0.6387,-0.6437,-0.6437,-0.6437,-0.6742,-0.6842,-0.6895,-0.7397,-0.7587,-0.7621,-0.7849,-0.7941,-0.7941,-0.7958,-0.7975,-0.7988,-0.812,-0.8063,-0.7925,-0.8051,-0.8512,-0.9141,-0.9263,-1.0619,-1.211,-1.1338,-1.1728,-1.2203,-1.1213,-1.0944,-1.0725,-0.9679,-0.9571,-0.9469,-0.8303,-0.7903,-0.7745,-0.7668,-0.7492,-0.7456,-0.7546,-0.76,-0.7658,-0.777,-0.7814,-0.7882,-0.7968,-0.7988,-0.7988,-0.7988,-0.7988,-0.7988,-0.7988,-0.7975,-0.7911,-0.7824,-0.7665,-0.7567,-0.755,-0.7421,-0.7407,-0.7543,-0.7563,-0.7641,-0.7784,-0.7801,-0.7885,-0.7988,-0.7988,-0.7988,-0.7988,-0.7988,-0.7988,-0.4204,-0.4061,-0.4012,0.0,-0.4257,-0.4359,-0.4485,-0.4516,-0.454,-0.4632,-0.4653,-0.4667,-0.4716,-0.4755,-0.4781,0.0,-0.4762,-0.4784,-0.4784,-0.4784,-0.4784,-0.4784,-0.4784,-0.4784,-0.4784,-0.4784,-0.4784,-0.4784,-0.5037,-0.5338,-0.5584,-0.5839,-0.6139,-0.6387,-0.6387,-0.6387,-0.6387,-0.6387,-0.6387,-0.6387,-0.6387,-0.6387,-0.6387,-0.6539,-0.6642,-0.6795,-0.7045,-0.7297,-0.7596,-0.7743,-0.7842,-0.7988,-0.7988,-0.7988,-0.7988,-0.7988,-0.7894,-0.7811,-0.7811,-0.8391,-0.9167,-0.9202,-1.029,-1.1502,-1.1159,-1.1332,-1.1428,-1.0418,-1.0078,-0.9835,-0.8769,-0.8579,-0.8563,-0.8055,-0.7831,-0.7723,-0.7723,-0.7672,-0.7621,-0.7604,-0.774,-0.7845,-0.7818,-0.7885,-0.7917,-0.7982,-0.7988,-0.7988,-0.7988,-0.7988,-0.7988,-0.7988,-0.7911,-0.7882,-0.7818,-0.7756,-0.7689,-0.7604,-0.7539,-0.7533,-0.7597,-0.7678,-0.775,-0.7811,-0.7899,-0.7928,-0.7988,-0.7988,-0.7988,-0.7988,-0.7988,-0.7988,-0.4014,0.0,0.0,-0.4261,-0.4387,-0.4496,-0.4683,-0.4751,-0.4779,-0.4824,-0.4843,-0.4812,-0.4822,-0.4784,-0.4784,-0.4784,-0.4784,-0.4784,-0.4784,-0.4784,-0.4784,-0.4784,-0.4784,-0.4784,-0.4784,-0.4784,-0.4784,-0.4784,-0.4987,-0.5188,-0.5486,-0.5739,-0.5989,-0.6287,-0.6337,-0.6387,-0.6387,-0.6387,-0.6387,-0.6387,-0.6387,-0.6387,-0.6387,-0.6387,-0.6489,-0.6692,-0.6742,-0.7045,-0.7397,-0.7444,-0.7643,-0.7892,-0.7892,-0.7942,-0.7988,-0.7988,-0.7921,-0.7875,-0.7875,-0.8326,-0.8964,-0.901,-0.9801,-1.0657,-1.0422,-1.0538,-1.0538,-0.946,-0.9167,-0.8973,-0.8187,-0.7988,-0.7988,-0.7988,-0.7923,-0.7824,-0.7865,-0.7811,-0.7746,-0.7726,-0.7858,-0.7907,-0.7885,-0.7917,-0.7988,-0.7988,-0.7988,-0.7988,-0.7988,-0.7988,-0.7988,-0.7988,-0.7891,-0.7858,-0.7814,-0.7811,-0.7767,-0.7665,-0.7658,-0.7678,-0.7719,-0.7821,-0.7875,-0.7875,-0.7934,-0.7988,-0.7988,-0.7988,-0.7988,-0.7988,-0.7988,-0.7988,0.0,0.0,-0.4189,-0.4277,-0.4434,-0.4687,-0.5019,-0.5087,-0.5116,-0.5166,-0.5186,-0.5085,-0.4834,-0.4784,-0.4784,-0.4784,-0.4784,-0.4784,-0.4784,-0.4784,-0.4784,-0.4784,-0.4784,-0.4784,0.0,-0.4784,-0.4784,-0.4784,-0.4784,-0.4937,-0.519,-0.5489,-0.5737,-0.5992,-0.6287,-0.6387,-0.6387,-0.6387,-0.6387,-0.6387,-0.6387,-0.6387,-0.6387,-0.6387,-0.6387,-0.6437,-0.6692,-0.6795,-0.6842,-0.7089,-0.7391,-0.7596,-0.7596,-0.7793,-0.7988,-0.7988,-0.7985,-0.7982,-0.7982,-0.7936,-0.7883,-0.7984,-0.866,-0.928,-0.8386,-0.8821,-0.941,-0.8333,-0.8038,-0.8038,-0.7988,-0.7988,-0.7988,-0.7988,-0.7923,-0.7851,-0.7951,-0.7807,-0.7689,-0.7921,-0.7913,-0.7865,-0.7958,-0.7985,-0.7988,-0.7988,-0.7988,-0.7988,-0.7988,-0.7988,-0.7988,-0.7988,-0.7985,-0.7924,-0.7824,-0.7811,-0.7811,-0.7804,-0.7804,-0.7872,-0.7971,-0.7982,-0.7982,-0.7982,-0.7988,-0.7988,-0.7988,-0.7988,-0.7988,-0.7988,-0.7988,-0.7988,0.0,0.0,-0.4293,-0.4442,-0.4713,-0.4975,-0.512,-0.5289,-0.5395,-0.5233,-0.5136,-0.4997,-0.4709,-0.4661,-0.4661,-0.4661,-0.4759,-0.4784,-0.4784,-0.4784,-0.4784,-0.4784,-0.4784,0.0,0.0,0.0,0.0,-0.4784,-0.4784,-0.4937,-0.519,-0.5438,-0.5737,-0.5992,-0.6237,-0.6387,-0.6387,-0.6387,-0.6387,-0.6387,-0.6387,-0.6387,-0.6387,-0.6387,-0.6387,-0.6387,-0.6487,-0.6639,-0.6795,-0.6892,-0.7092,-0.7341,-0.7543,-0.7646,-0.7743,-0.7942,-0.7988,-0.7988,-0.7988,-0.7958,-0.7921,-0.7971,-0.8199,-0.841,-0.8071,-0.8237,-0.8482,-0.8088,-0.7988,-0.7988,-0.7988,-0.7988,-0.7965,-0.7913,-0.7848,-0.7773,-0.7628,-0.7672,-0.7743,-0.7746,-0.7865,-0.7931,-0.7982,-0.7988,-0.7988,-0.7988,-0.7988,-0.7988,-0.7988,-0.7901,-0.7877,-0.7978,-0.7897,-0.7909,-0.7911,-0.7914,-0.7914,-0.7914,-0.7914,-0.7934,-0.7988,-0.7988,-0.7988,-0.7988,-0.7988,-0.7988,-0.7988,-0.7988,-0.7988,-0.7988,-0.7988,-0.7988,0.0,-0.4566,-0.4568,-0.4724,-0.5023,-0.5309,-0.5477,-0.5639,-0.5677,-0.5345,-0.5234,-0.5027,-0.4628,-0.4551,-0.4561,-0.4528,-0.4645,-0.4753,-0.4785,-0.474,-0.4752,-0.478,-0.4784,-0.4784,0.0,0.0,0.0,-0.4784,-0.4784,-0.4885,-0.5037,-0.5386,-0.5687,-0.5839,-0.6187,-0.6387,-0.6387,-0.6387,-0.6387,-0.6387,-0.6387,-0.6387,-0.6387,-0.6387,-0.6387,-0.6387,-0.6387,-0.6487,-0.6642,-0.6642,-0.6839,-0.7092,-0.7244,-0.7394,-0.7494,-0.7743,-0.7842,-0.7892,-0.7992,-0.7988,-0.7988,-0.7988,-0.7988,-0.7988,-0.7988,-0.7988,-0.7988,-0.7988,-0.7988,-0.7988,-0.7988,-0.7988,-0.7965,-0.7916,-0.7892,-0.7841,-0.7651,-0.7675,-0.774,-0.7753,-0.7824,-0.7867,-0.7971,-0.7988,-0.7988,-0.7988,-0.7988,-0.7988,-0.7988,-0.7904,-0.788,-0.7978,-0.7901,-0.7884,-0.7982,-0.7988,-0.7988,-0.7988,-0.7988,-0.7988,-0.7988,-0.7988,-0.7988,-0.7988,-0.7988,-0.7988,-0.7988,-0.7988,-0.7988,-0.7988,-0.7988,-0.7988,-0.497,-0.5037,-0.5025,-0.5123,-0.5367,-0.5687,-0.5942,-0.5989,-0.5907,-0.5613,-0.5528,-0.5259,0.0,0.0,-0.4579,-0.4402,-0.4516,-0.4612,-0.4702,-0.4714,-0.4745,0.0,0.0,0.0,0.0,0.0,0.0,-0.4784,-0.4784,-0.4784,-0.4784,-0.5286,-0.5586,-0.5586,-0.6134,-0.6387,-0.6387,-0.6387,-0.6387,-0.6387,-0.6387,-0.6387,-0.6387,-0.6387,-0.6387,-0.6387,-0.6387,-0.6387,-0.6387,-0.6387,-0.6539,-0.6795,-0.6795,-0.6942,-0.7188,-0.7494,-0.7596,-0.7646,-0.7892,-0.7988,-0.7988,-0.7988,-0.7988,-0.7988,-0.7988,-0.7988,-0.7988,-0.7988,-0.7988,-0.7988,-0.7988,-0.7988,-0.7988,-0.7978,-0.7978,-0.7975,-0.7968,-0.7801,-0.7692,-0.7924,-0.7807,-0.7709,-0.7941,-0.7988,-0.7988,-0.7988,-0.7988,-0.7988,-0.7988,-0.7988,-0.7988,-0.7988,-0.7988,-0.7988,-0.7988,-0.7988,-0.7988,-0.7988,-0.7988,-0.7988,-0.7988,-0.7988,-0.7988,-0.7988,-0.7988,-0.7988,-0.7988,-0.7988,-0.7988,-0.7988,-0.7988,-0.7988,-0.547,-0.5443,-0.5375,-0.5473,-0.5667,-0.5942,-0.5992,-0.6127,-0.6134,-0.5939,-0.5638,-0.5281,0.0,0.0,0.0,-0.4428,-0.4569,0.0,-0.474,-0.4752,0.0,-0.4782,0.0,-0.4784,-0.4784,-0.4784,0.0,0.0,-0.4784,-0.4784,-0.4784,-0.5286,-0.5586,-0.5586,-0.6134,-0.6387,-0.6387,-0.6387,-0.6387,-0.6387,-0.6387,-0.6387,-0.6387,-0.6387,-0.6387,-0.6387,-0.6387,-0.6387,-0.6387,-0.6387,-0.6437,-0.6539,-0.6742,-0.6842,-0.6942,-0.7191,-0.7444,-0.7596,-0.7696,-0.7842,-0.7988,-0.7988,-0.7988,-0.7988,-0.7988,-0.7988,-0.7988,-0.7988,-0.7988,-0.7988,-0.7988,-0.7988,-0.7961,-0.7896,-0.7868,-0.7841,-0.7736,-0.7736,-0.778,-0.7855,-0.785,-0.7901,-0.7978,-0.7988,-0.7988,-0.7988,-0.7988,-0.7988,-0.7988,-0.7988,-0.7988,-0.7988,-0.7988,-0.7988,-0.7988,-0.7988,-0.7988,-0.7988,-0.7988,-0.7988,-0.7988,-0.7988,-0.7988,-0.7988,-0.7988,-0.7988,-0.7988,-0.7988,-0.7988,-0.7988,-0.7988,-0.7988,-0.5736,-0.5766,-0.5718,-0.5774,-0.5989,-0.6176,-0.6129,-0.6216,-0.6209,-0.5879,-0.5624,0.0,-0.4773,0.0,0.0,0.0,0.0,0.0,-0.4761,-0.4779,-0.4742,0.0,-0.4784,0.0,-0.4784,-0.4784,-0.4784,0.0,-0.4784,-0.4784,-0.4784,-0.5186,-0.5486,-0.5584,-0.5987,-0.6287,-0.6387,-0.6387,-0.6387,-0.6387,-0.6387,-0.6387,-0.6387,-0.6387,-0.6387,-0.6387,-0.6387,-0.6387,-0.6387,-0.6387,-0.6387,-0.6437,-0.6589,-0.6639,-0.6642,-0.6942,-0.7141,-0.7244,-0.7394,-0.7593,-0.7842,-0.7942,-0.7988,-0.7988,-0.7988,-0.7988,-0.7988,-0.7988,-0.7988,-0.7988,-0.7988,-0.7988,-0.7968,-0.7884,-0.7913,-0.7889,-0.7807,-0.7801,-0.7811,-0.7811,-0.7884,-0.7988,-0.7988,-0.7988,-0.7988,-0.7988,-0.7988,-0.7988,-0.7988,-0.7988,-0.7988,-0.7988,-0.7988,-0.7988,-0.7988,-0.7988,-0.7988,-0.7988,-0.7988,-0.7988,-0.7988,-0.7988,-0.7988,-0.7988,-0.7988,-0.7988,-0.7988,-0.7988,-0.7988,-0.7988,-0.7988,-0.7988,-0.5915,-0.6015,-0.6042,-0.6042,-0.6226,-0.6388,-0.629,-0.6292,-0.612,-0.5743,0.0,-0.542,-0.4757,-0.4698,-0.4667,-0.442,0.0,-0.4457,-0.4698,-0.4716,-0.4741,-0.4774,-0.4784,-0.4784,-0.4784,-0.4784,-0.4784,-0.4784,-0.4784,-0.4784,-0.4784,-0.5037,-0.5338,-0.5636,-0.5889,-0.6189,-0.6387,-0.6387,-0.6387,-0.6387,-0.6387,-0.6387,-0.6387,-0.6387,-0.6387,-0.6387,-0.6387,-0.6387,-0.6387,-0.6387,-0.6387,-0.6387,-0.6387,-0.6387,-0.6437,-0.6642,-0.6792,-0.6842,-0.7089,-0.7341,-0.7593,-0.7842,-0.7939,-0.7939,-0.7939,-0.7939,-0.7939,-0.7939,-0.7992,-0.7988,-0.7988,-0.7988,-0.7988,-0.7988,-0.7988,-0.7988,-0.7988,-0.7887,-0.7841,-0.7841,-0.7897,-0.7988,-0.7988,-0.7988,-0.7988,-0.7988,-0.7988,-0.7988,-0.7988,-0.7988,-0.7988,-0.7988,-0.7988,-0.7988,-0.7988,-0.7988,-0.7988,-0.7988,-0.7988,-0.7988,-0.7988,-0.7988,-0.7988,-0.7988,-0.7988,-0.7988,-0.7988,-0.7988,-0.7988,-0.7988,-0.7988,-0.7988,-0.6275,-0.6321,-0.6337,-0.6337,-0.6317,-0.6293,-0.6322,-0.6113,0.0,0.0,-0.5855,-0.5647,-0.5431,-0.515,-0.4932,-0.4822,0.0,0.0,0.0,0.0,-0.4741,0.0,0.0,0.0,0.0,-0.4784,0.0,0.0,-0.4784,-0.4784,-0.4784,-0.5037,-0.5441,-0.5892,-0.6189,-0.6337,-0.6387,-0.6387,-0.6387,-0.6387,-0.6387,-0.6387,-0.6387,-0.6387,-0.6387,-0.6387,-0.6387,-0.6387,-0.6387,-0.6387,-0.6387,-0.6387,-0.6387,-0.6387,-0.6387,-0.6437,-0.6589,-0.6795,-0.6845,-0.7042,-0.7291,-0.7593,-0.7646,-0.7646,-0.7646,-0.7646,-0.7646,-0.7646,-0.7842,-0.7988,-0.7988,-0.7988,-0.7988,-0.7988,-0.7988,-0.7988,-0.7988,-0.7968,-0.7948,-0.7948,-0.7971,-0.7988,-0.7988,-0.7988,-0.7988,-0.7988,-0.7988,-0.7988,-0.7988,-0.7988,-0.7988,-0.7988,-0.7988,-0.7988,-0.7988,-0.7988,-0.7988,-0.7988,-0.7988,-0.7988,-0.7988,-0.7988,-0.7988,-0.7988,-0.7988,-0.7988,-0.7988,-0.7988,-0.7988,-0.7988,-0.7988,-0.7988,-0.6373,-0.6387,-0.6387,-0.6387,-0.6352,-0.63,-0.6189,0.0,0.0,0.0,-0.5812,-0.5662,-0.5536,0.0,0.0,0.0,0.0,0.0,0.0,0.0,0.0,0.0,0.0,0.0,0.0,-0.4784,-0.4784,-0.4784,-0.4784,-0.4784,-0.4784,-0.5188,-0.5539,-0.5789,-0.6187,-0.6387,-0.6387,-0.6387,-0.6387,-0.6387,-0.6387,-0.6387,-0.6387,-0.6387,-0.6387,-0.6387,-0.6387,-0.6387,-0.6387,-0.6387,-0.6387,-0.6387,-0.6387,-0.6387,-0.6387,-0.6387,-0.6487,-0.6589,-0.6589,-0.6789,-0.6992,-0.7144,-0.7294,-0.7391,-0.7391,-0.7391,-0.7391,-0.7391,-0.7593,-0.7793,-0.7793,-0.7892,-0.7988,-0.7988,-0.7988,-0.7988,-0.7988,-0.7988,-0.7988,-0.7988,-0.7988,-0.7988,-0.7988,-0.7988,-0.7988,-0.7988,-0.7988,-0.7988,-0.7988,-0.7988,-0.7988,-0.7988,-0.7988,-0.7988,-0.7988,-0.7988,-0.7988,-0.7988,-0.7988,-0.7988,-0.7988,-0.7988,-0.7988,-0.7988,-0.7988,-0.7988,-0.7988,-0.7988,-0.7988,-0.7988,-0.7988,-0.7988,-0.6379,-0.6387,-0.6387,-0.6387,-0.6331,-0.6251,-0.6108,-0.5972,0.0,0.0,-0.5688,-0.5644,-0.5508,0.0,-0.5046,0.0,0.0,0.0,0.0,0.0,0.0,0.0,0.0,0.0,0.0,-0.4784,0.0,-0.4784,-0.4784,-0.4784,-0.4784,-0.5236,-0.5536,-0.5584,-0.6087,-0.6337,-0.6387,-0.6387,-0.6387,-0.6387,-0.6387,-0.6387,-0.6387,-0.6387,-0.6387,-0.6387,-0.6387,-0.6387,-0.6387,-0.6387,-0.6387,-0.6387,-0.6387,-0.6387,-0.6387,-0.6387,-0.6387,-0.6387,-0.6387,-0.6539,-0.6692,-0.6692,-0.6889,-0.7138,-0.7138,-0.7138,-0.7138,-0.7138,-0.7291,-0.7543,-0.7596,-0.7743,-0.7942,-0.7988,-0.7988,-0.7988,-0.7988,-0.7988,-0.7988,-0.7988,-0.7988,-0.7988,-0.7988,-0.7988,-0.7988,-0.7988,-0.7988,-0.7988,-0.7988,-0.7988,-0.7988,-0.7988,-0.7988,-0.7988,-0.7988,-0.7988,-0.7988,-0.7988,-0.7988,-0.7988,-0.7988,-0.7988,-0.7988,-0.7988,-0.7988,-0.7988,-0.7988,-0.7988,-0.7988,-0.7988,-0.7988,-0.7988,-0.6357,-0.6387,-0.6387,-0.6387,-0.6268,-0.61,-0.6089,0.0,0.0,-0.5691,-0.5688,-0.5688,-0.5688,-0.5508,-0.5318,0.0,0.0,-0.4682,0.0,0.0,0.0,0.0,0.0,0.0,0.0,-0.4784,-0.4784,-0.4784,-0.4784,-0.4784,-0.4784,-0.5087,-0.5338,-0.5584,-0.5889,-0.6139,-0.6387,-0.6387,-0.6387,-0.6387,-0.6387,-0.6387,-0.6387,-0.6387,-0.6387,-0.6387,-0.6387,-0.6387,-0.6387,-0.6387,-0.6387,-0.6387,-0.6387,-0.6387,-0.6387,-0.6387,-0.6387,-0.6387,-0.6387,-0.6437,-0.6437,-0.6437,-0.6639,-0.6842,-0.6842,-0.6842,-0.6842,-0.6842,-0.7042,-0.7288,-0.7543,-0.7596,-0.7696,-0.7939,-0.7988,-0.7988,-0.7988,-0.7988,-0.7988,-0.7988,-0.7988,-0.7988,-0.7988,-0.7988,-0.7988,-0.7988,-0.7988,-0.7988,-0.7988,-0.7988,-0.7988,-0.7988,-0.7988,-0.7988,-0.7988,-0.7988,-0.7988,-0.7988,-0.7988,-0.7988,-0.7988,-0.7988,-0.7988,-0.7988,-0.7988,-0.7988,-0.7988,-0.7988,-0.7988,-0.7988,-0.7988,-0.7988,-0.6404,-0.6387,-0.6387,-0.6387,-0.626,-0.6086,-0.6086,0.0,-0.5688,-0.5688,-0.5688,-0.5688,-0.5688,-0.5552,-0.534,-0.5065,0.0,0.0,0.0,0.0,0.0,0.0,0.0,0.0,0.0,0.0,-0.4784,-0.4784,-0.4784,-0.4784,-0.4784,-0.5037,-0.524,-0.5338,-0.5792,-0.6042,-0.6139,-0.6337,-0.6387,-0.6387,-0.6387,-0.6387,-0.6387,-0.6387,-0.6387,-0.6387,-0.6387,-0.6387,-0.6387,-0.6387,-0.6387,-0.6387,-0.6387,-0.6387,-0.6387,-0.6387,-0.6387,-0.6387,-0.6387,-0.6387,-0.6387,-0.6387,-0.6487,-0.6539,-0.6539,-0.6539,-0.6539,-0.6539,-0.6739,-0.7042,-0.7291,-0.759,-0.7892,-0.7992,-0.7988,-0.7988,-0.7988,-0.7988,-0.7988,-0.7988,-0.7988,-0.7988,-0.7988,-0.7988,-0.7988,-0.7988,-0.7988,-0.7988,-0.7988,-0.7988,-0.7988,-0.7988,-0.7988,-0.7988,-0.7988,-0.7988,-0.7988,-0.7988,-0.7988,-0.7988,-0.7988,-0.7988,-0.7988,-0.7988,-0.7988,-0.7988,-0.7988,-0.7988,-0.7988,-0.7988,-0.7988,-0.7988,-0.6355,-0.6363,-0.6379,-0.6393,-0.6236,-0.6075,0.0,0.0,-0.5688,-0.5688,-0.5688,-0.5688,-0.5688,-0.5597,-0.5371,-0.5055,0.0,-0.4692,-0.4422,0.0,0.0,0.0,0.0,-0.4757,0.0,-0.4857,-0.4784,-0.4784,-0.4784,-0.4784,-0.4784,-0.4987,-0.514,-0.519,-0.5591,-0.5842,-0.5992,-0.6189,-0.6337,-0.6387,-0.6387,-0.6387,-0.6387,-0.6387,-0.6387,-0.6387,-0.6387,-0.6387,-0.6387,-0.6387,-0.6387,-0.6387,-0.6387,-0.6387,-0.6387,-0.6387,-0.6387,-0.6387,-0.6387,-0.6387,-0.6387,-0.6387,-0.6387,-0.6387,-0.6387,-0.6387,-0.6387,-0.6387,-0.6639,-0.6942,-0.7138,-0.7587,-0.7988,-0.7988,-0.7988,-0.7988,-0.7988,-0.7988,-0.7988,-0.7988,-0.7988,-0.7988,-0.7988,-0.7988,-0.7988,-0.7988,-0.7988,-0.7988,-0.7988,-0.7988,-0.7988,-0.7988,-0.7988,-0.7988,-0.7988,-0.7988,-0.7988,-0.7988,-0.7988,-0.7988,-0.7988,-0.7988,-0.7988,-0.7988,-0.7988,-0.7988,-0.7988,-0.7988,-0.7988,-0.7988,-0.7988,-0.7988,-0.6287,-0.635,-0.636,-0.6298,-0.6179,-0.6053,0.0,0.0,-0.5688,-0.5688,-0.5688,-0.5688,-0.5688,-0.5688,-0.5552,-0.5055,-0.501,0.0,-0.4468,0.0,0.0,0.0,0.0,-0.471,-0.471,-0.4785,-0.4784,-0.4784,-0.4784,-0.4784,-0.4784,-0.4784,-0.4937,-0.519,-0.519,-0.5441,-0.5992,-0.5992,-0.6139,-0.6387,-0.6387,-0.6387,-0.6387,-0.6387,-0.6387,-0.6387,-0.6387,-0.6387,-0.6387,-0.6387,-0.6387,-0.6387,-0.6387,-0.6387,-0.6387,-0.6387,-0.6387,-0.6387,-0.6387,-0.6387,-0.6387,-0.6387,-0.6387,-0.6387,-0.6387,-0.6387,-0.6387,-0.6387,-0.6786,-0.7188,-0.7188,-0.7587,-0.7988,-0.7988,-0.7988,-0.7988,-0.7988,-0.7988,-0.7988,-0.7988,-0.7988,-0.7988,-0.7988,-0.7988,-0.7988,-0.7988,-0.7988,-0.7988,-0.7988,-0.7988,-0.7988,-0.7988,-0.7988,-0.7988,-0.7988,-0.7988,-0.7988,-0.7988,-0.7988,-0.7988,-0.7988,-0.7988,-0.7988,-0.7988,-0.7988,-0.7988,-0.7988,-0.7988,-0.7988,-0.7988,-0.7988,-0.7988,-0.6158,-0.617,-0.6189,-0.6154,-0.6051,-0.595,-0.5912,0.0,-0.5688,-0.5688,-0.5688,-0.5688,-0.5688,-0.5688,-0.5599,-0.5327,-0.5099,0.0,0.0,0.0,0.0,0.0,0.0,-0.4863,0.0,0.0,-0.4784,-0.4784,-0.4784,-0.4784,-0.4784,-0.4784,-0.4834,-0.4937,-0.509,-0.5391,-0.5737,-0.5889,-0.6139,-0.6387,-0.6387,-0.6387,-0.6387,-0.6387,-0.6387,-0.6387,-0.6387,-0.6387,-0.6387,-0.6387,-0.6387,-0.6387,-0.6387,-0.6387,-0.6387,-0.6387,-0.6387,-0.6387,-0.6387,-0.6387,-0.6387,-0.6387,-0.6387,-0.6387,-0.6387,-0.6387,-0.6387,-0.6387,-0.6786,-0.7188,-0.7188,-0.7587,-0.7988,-0.7988,-0.7988,-0.7988,-0.7988,-0.7988,-0.7988,-0.7988,-0.7988,-0.7988,-0.7988,-0.7988,-0.7988,-0.7988,-0.7988,-0.7988,-0.7988,-0.7988,-0.7988,-0.7988,-0.7988,-0.7988,-0.7988,-0.7988,-0.7988,-0.7988,-0.7988,-0.7988,-0.7988,-0.7988,-0.7988,-0.7988,-0.7988,-0.7988,-0.7988,-0.7988,-0.7988,-0.7988,-0.7988,-0.7988,0.0,-0.6145,-0.6075,-0.6029,-0.5958,0.0,0.0,0.0,-0.5688,-0.5688,-0.5723,-0.5739,-0.5696,-0.5723,-0.5692,-0.5424,0.0,0.0,0.0,0.0,0.0,0.0,0.0,0.0,0.0,-0.4766,-0.4784,-0.4784,-0.4784,-0.4784,-0.4784,-0.4784,-0.4784,-0.4784,-0.4987,-0.5188,-0.5438,-0.5739,-0.5989,-0.6239,-0.6337,-0.6387,-0.6387,-0.6387,-0.6387,-0.6387,-0.6387,-0.6387,0.0,-0.6387,-0.6387,-0.6387,-0.6387,-0.6387,-0.6387,-0.6387,-0.6387,-0.6387,-0.6387,-0.6387,-0.6387,-0.6387,-0.6387,-0.6387,-0.6387,-0.6387,-0.6387,-0.6387,-0.6736,-0.7089,-0.7188,-0.754,-0.7892,-0.7992,-0.7988,-0.7988,-0.7988,-0.7988,-0.7988,-0.7988,-0.7988,-0.7988,-0.7988,-0.7988,-0.7988,-0.7988,-0.7988,-0.7988,-0.7988,-0.7988,-0.7988,-0.7988,-0.7988,-0.7988,-0.7988,-0.7988,-0.7988,-0.7988,-0.7988,-0.7988,-0.7988,-0.7988,-0.7988,-0.7988,-0.7988,-0.7988,-0.7988,-0.7988,-0.7988,-0.7988,-0.7988,-0.7988,0.0,0.0,0.0,0.0,0.0,0.0,0.0,0.0,0.0,0.0,0.0,0.0,0.0,0.0,0.0,0.0,0.0,0.0,0.0,0.0,0.0,0.0,-0.4564,0.0,-0.4512,-0.4585,-0.4684,-0.4684,-0.4684,-0.4734,-0.4784,-0.4734,-0.4734,-0.4784,-0.4784,-0.4937,-0.519,-0.5438,-0.5737,-0.5992,-0.6239,-0.6387,-0.6387,-0.6387,-0.6387,-0.6387,-0.6387,-0.6387,-0.6387,-0.6387,-0.6387,-0.6387,-0.6387,-0.6387,-0.6387,-0.6387,-0.6387,-0.6387,-0.6387,-0.6387,-0.6387,-0.6387,-0.6387,-0.6387,-0.6387,-0.6387,-0.6387,-0.6387,-0.6589,-0.6842,-0.7138,-0.7391,-0.7646,-0.7942,-0.7988,-0.7988,-0.7988,-0.7988,-0.7988,-0.7988,-0.7988,-0.7988,-0.7988,-0.7988,-0.7988,-0.7988,-0.7988,-0.7988,-0.7988,-0.7988,-0.7988,-0.7988,-0.7988,-0.7988,-0.7988,-0.7988,-0.7988,-0.7988,-0.7988,-0.7988,-0.7988,-0.7988,-0.7988,-0.7988,-0.7988,-0.7988,-0.7988,-0.7988,-0.7988,-0.7988,-0.7988,-0.7988,-0.6471,0.0,-0.6031,-0.5824,-0.5839,0.0,0.0,0.0,0.0,0.0,0.0,0.0,0.0,0.0,0.0,0.0,0.0,0.0,0.0,0.0,0.0,-0.3743,-0.3563,-0.3235,-0.2502,-0.3138,-0.3575,-0.3575,-0.3575,-0.3927,-0.4734,-0.4029,-0.3927,-0.4784,-0.4784,-0.4937,-0.519,-0.524,-0.5541,-0.5992,-0.6039,-0.6189,-0.6387,-0.6387,-0.6387,-0.6387,-0.6387,-0.6387,-0.6387,-0.6387,-0.6387,-0.6387,-0.6387,-0.6387,-0.6387,-0.6387,-0.6387,-0.6387,-0.6387,-0.6387,-0.6387,-0.6387,-0.6387,-0.6387,-0.6387,-0.6387,-0.6387,-0.6387,-0.6589,-0.6842,-0.7138,-0.7391,-0.7646,-0.7942,-0.7988,-0.7988,-0.7988,-0.7988,-0.7988,-0.7988,-0.7988,-0.7988,-0.7988,-0.7988,-0.7988,-0.7988,-0.7988,-0.7988,-0.7988,-0.7988,-0.7988,-0.7988,-0.7988,-0.7988,-0.7988,-0.7988,-0.7988,-0.7988,-0.7988,-0.7988,-0.7988,-0.7988,-0.7988,-0.7988,-0.7988,-0.7988,-0.7988,-0.7988,-0.7988,-0.7988,-0.7988,-0.7988,-0.652,-0.6257,-0.6041,-0.5777,-0.5734,-0.5809,0.0,0.0,0.0,0.0,0.0,0.0,0.0,0.0,0.0,0.0,0.0,0.0,0.0,0.0,0.0,-0.269,-0.2521,-0.2287,0.0,-0.2154,-0.2469,-0.2469,-0.2469,-0.272,-0.3324,-0.3224,-0.3475,-0.4029,-0.4533,-0.4885,-0.5037,-0.514,-0.534,-0.5641,-0.5892,-0.6092,-0.6239,-0.6337,-0.6387,-0.6387,-0.6387,-0.6387,-0.6387,-0.6387,-0.6387,-0.6387,-0.6387,-0.6387,-0.6387,-0.6387,-0.6387,-0.6387,-0.6387,-0.6387,-0.6387,-0.6387,-0.6387,-0.6387,-0.6387,-0.6387,-0.6387,-0.6387,-0.6487,-0.6689,-0.7089,-0.7291,-0.749,-0.7892,-0.7988,-0.7988,-0.7988,-0.7988,-0.8012,-0.8133,-0.8147,-0.8147,-0.8147,-0.8147,-0.8123,-0.8002,-0.7988,-0.7988,-0.7988,-0.7988,-0.7988,-0.7988,-0.7988,-0.7988,-0.7988,-0.7988,-0.7988,-0.7988,-0.7988,-0.7988,-0.7988,-0.7988,-0.7988,-0.7988,-0.7988,-0.7988,-0.7988,-0.7988,-0.7988,-0.7988,-0.7988,-0.7988,-0.6517,-0.6257,-0.6041,-0.5777,-0.5702,-0.571,0.0,0.0,0.0,0.0,0.0,0.0,0.0,0.0,0.0,0.0,0.0,0.0,0.0,0.0,-0.2893,-0.1663,-0.1474,0.0,-0.1153,-0.1258,-0.1361,-0.1361,-0.1361,-0.1412,-0.1613,-0.2318,-0.2771,-0.2972,-0.3827,-0.4331,-0.4331,-0.4887,-0.514,-0.519,-0.5641,-0.5942,-0.5992,-0.6087,-0.6134,-0.6137,-0.6137,-0.6137,-0.6187,-0.6337,-0.6387,-0.6387,-0.6387,-0.6387,-0.6387,-0.6387,-0.6387,-0.6387,-0.6387,-0.6387,-0.6387,-0.6387,-0.6387,-0.6387,-0.6387,-0.6387,-0.6387,-0.6387,-0.6387,-0.6542,-0.7012,-0.7219,-0.7369,-0.7872,-0.8025,-0.8025,-0.8025,-0.8005,-0.8092,-0.8269,-0.8265,-0.8241,-0.832,-0.8252,-0.8191,-0.8008,-0.7988,-0.7998,-0.8022,-0.8025,-0.8025,-0.8025,-0.8025,-0.8015,-0.7992,-0.7988,-0.7988,-0.7988,-0.7988,-0.7988,-0.7988,-0.7988,-0.7988,-0.7988,-0.7988,-0.7988,-0.7988,-0.7988,-0.7988,-0.7988,-0.7988,-0.7988,-0.6476,-0.6257,-0.6041,-0.5777,-0.5806,-0.5852,0.0,0.0,0.0,0.0,0.0,0.0,0.0,0.0,0.0,0.0,0.0,-0.3288,0.0,0.0,-0.2086,-0.0736,0.0,0.01,0.1037,0.03,-0.0252,-0.0252,-0.0252,-0.0655,-0.1563,-0.0907,-0.0907,-0.1814,-0.2016,-0.2066,-0.2066,-0.3929,-0.4987,-0.519,-0.529,-0.5541,-0.5992,-0.5083,-0.4832,-0.5035,-0.5035,-0.5035,-0.5135,-0.6037,-0.6387,-0.6387,-0.6387,-0.6387,-0.6387,-0.6387,-0.6387,-0.6387,-0.6387,-0.6387,-0.6387,-0.6387,-0.6387,-0.6387,-0.6387,-0.6387,-0.6387,-0.6387,-0.6387,-0.6511,-0.6927,-0.7262,-0.7514,-0.7766,-0.8024,-0.8235,-0.8235,-0.8133,-0.8069,-0.8394,-0.8248,-0.8116,-0.8248,-0.8163,-0.8015,-0.7992,-0.7988,-0.8039,-0.8218,-0.8235,-0.8235,-0.8235,-0.8235,-0.818,-0.8002,-0.7988,-0.7988,-0.7988,-0.7988,-0.7988,-0.7988,-0.7988,-0.7988,-0.7988,-0.7988,-0.7988,-0.7988,-0.7988,-0.7988,-0.7988,-0.7988,-0.7988,-0.6476,-0.6257,-0.6041,-0.5777,-0.5729,-0.5798,0.0,0.0,0.0,0.0,0.0,0.0,0.0,0.0,0.0,0.0,0.0,-0.2762,-0.2007,-0.1761,-0.1173,0.0,0.0593,0.0895,0.1546,0.1155,0.0858,0.0858,0.0858,0.0656,0.0151,0.005,-0.0202,-0.0706,-0.131,-0.1613,-0.1613,-0.2569,-0.3476,-0.4332,-0.4481,-0.5083,-0.5992,-0.5035,-0.4682,-0.4784,-0.418,-0.3927,-0.4029,-0.5083,-0.5183,-0.4778,-0.5934,-0.6034,-0.5586,-0.6187,-0.6387,-0.6387,-0.6387,-0.6387,-0.6387,-0.6387,-0.6387,-0.6387,-0.6387,-0.6387,-0.6387,-0.6387,-0.6387,-0.6517,-0.6901,-0.7241,-0.7564,-0.7843,-0.8173,-0.8364,-0.8337,-0.8275,-0.8319,-0.8455,-0.8438,-0.8397,-0.8387,-0.8326,-0.8252,-0.8177,-0.8163,-0.8218,-0.8367,-0.8384,-0.8384,-0.8384,-0.8384,-0.8357,-0.8282,-0.8279,-0.8208,-0.8002,-0.7988,-0.7988,-0.7988,-0.7988,-0.7988,-0.7988,-0.7988,-0.8029,-0.8163,-0.8163,-0.8204,-0.8279,-0.8279,-0.8279,-0.6476,-0.6213,-0.5908,-0.5463,0.0,0.0,0.0,0.0,0.0,0.0,0.0,0.0,0.0,0.0,0.0,-0.2336,-0.231,-0.1972,-0.1135,-0.0832,-0.0293,0.0938,0.1186,0.1293,0.1564,0.1617,0.1617,0.1617,0.1617,0.1617,0.1617,0.0807,0.0353,0.0353,-0.0403,-0.0857,-0.0857,-0.0857,-0.1613,-0.3124,-0.3423,-0.4126,-0.5133,-0.4331,-0.3979,-0.4029,-0.3173,-0.2821,-0.2922,-0.3979,-0.3927,-0.3374,-0.5031,-0.5284,-0.4935,-0.5987,-0.6387,-0.6387,-0.6387,-0.6387,-0.6387,-0.6387,-0.6387,-0.6392,-0.6419,-0.6408,-0.6392,-0.6422,-0.6427,-0.6507,-0.6841,-0.7257,-0.7669,-0.7877,-0.8269,-0.8506,-0.8397,-0.8431,-0.8503,-0.8574,-0.8601,-0.8581,-0.8496,-0.8455,-0.8394,-0.8337,-0.835,-0.8374,-0.8516,-0.8533,-0.8533,-0.8533,-0.8533,-0.852,-0.8486,-0.8482,-0.8384,-0.8157,-0.8113,-0.8092,-0.8092,-0.8008,-0.8008,-0.8092,-0.8092,-0.817,-0.8371,-0.8371,-0.8377,-0.8482,-0.8482,-0.8482,-0.6384,-0.608,-0.5508,-0.4612,0.0,0.0,-0.5688,-0.5015,0.0,-0.4308,0.0,0.0,0.0,-0.2124,-0.1216,-0.0341,-0.0199,-0.0202,-0.0101,0.0,0.0411,0.0808,0.1059,0.1312,0.1566,0.1617,0.1617,0.1617,0.1617,0.1617,0.1617,0.1516,0.1465,0.1465,0.1414,0.1364,0.1364,0.1364,0.0303,-0.1765,-0.2017,-0.2318,-0.2618,-0.1813,-0.1613,-0.1815,-0.1765,-0.1714,-0.1815,-0.2871,-0.3274,-0.3224,-0.3374,-0.3979,-0.4935,-0.5987,-0.6387,-0.6387,-0.6387,-0.6387,-0.6387,-0.6387,-0.6387,-0.6408,-0.657,-0.6476,-0.6411,-0.6575,-0.6605,-0.6635,-0.6757,-0.7348,-0.7869,-0.7822,-0.8259,-0.8693,-0.8679,-0.8574,-0.8567,-0.8797,-0.8577,-0.834,-0.8462,-0.8374,-0.8333,-0.8323,-0.8384,-0.8523,-0.8672,-0.8696,-0.8696,-0.8696,-0.8696,-0.8635,-0.8496,-0.8482,-0.8472,-0.8452,-0.8326,-0.8255,-0.8255,-0.8116,-0.8106,-0.8252,-0.8255,-0.8323,-0.8465,-0.8465,-0.8472,-0.8482,-0.8482,-0.8482,-0.6384,-0.6038,-0.5466,-0.4523,0.0,0.0,0.0,-0.3661,-0.3232,-0.263,-0.2218,0.0,0.0,0.0,-0.0397,-0.0049,0.0,0.0,0.0,0.0102,0.0255,0.0506,0.0808,0.1061,0.1314,0.1516,0.1617,0.1617,0.1617,0.1617,0.1617,0.1617,0.1617,0.1617,0.1617,0.1617,0.1617,0.1617,0.1212,0.0404,-0.0555,-0.1562,-0.2618,-0.1662,-0.1361,-0.1563,-0.0908,-0.0606,-0.0707,-0.1765,-0.1815,-0.1261,-0.1966,-0.2871,-0.3927,-0.5033,-0.5384,-0.5484,-0.6187,-0.6387,-0.6387,-0.6387,-0.6387,-0.6395,-0.6441,-0.6422,-0.6395,-0.6441,-0.6616,-0.6744,-0.679,-0.7211,-0.7648,-0.7892,-0.8243,-0.8603,-0.8676,-0.8665,-0.8659,-0.8774,-0.8659,-0.856,-0.8615,-0.8581,-0.8543,-0.8543,-0.8587,-0.8679,-0.8832,-0.8797,-0.8797,-0.8797,-0.8797,-0.8828,-0.8771,-0.8767,-0.8767,-0.8767,-0.8537,-0.8404,-0.8404,-0.8347,-0.8343,-0.8401,-0.8404,-0.8476,-0.8625,-0.8625,-0.8672,-0.8767,-0.8767,-0.8767,-0.6384,-0.6038,-0.5419,0.0,0.0,0.0,-0.2258,-0.2194,-0.2214,-0.1523,-0.1173,0.0,0.0,0.0,0.0,0.0,0.0,0.0,0.0,0.0,0.0102,0.0354,0.0556,0.0808,0.1162,0.1364,0.1516,0.1617,0.1617,0.1617,0.1617,0.1617,0.1617,0.1617,0.1617,0.1617,0.1617,0.1617,0.1617,0.1566,0.0656,-0.0403,-0.1511,-0.0958,-0.0807,-0.0908,-0.0303,0.0,-0.0051,-0.0807,-0.0656,-0.0101,-0.116,-0.2066,-0.2821,-0.3879,-0.4533,-0.4885,-0.5634,-0.6137,-0.6387,-0.6387,-0.6387,-0.6392,-0.6433,-0.6416,-0.6395,-0.6433,-0.6616,-0.6752,-0.6793,-0.7133,-0.7549,-0.7913,-0.8266,-0.8556,-0.8689,-0.875,-0.8767,-0.872,-0.871,-0.871,-0.871,-0.871,-0.871,-0.871,-0.875,-0.8821,-0.8868,-0.8885,-0.8885,-0.8885,-0.8885,-0.8885,-0.8885,-0.8885,-0.8885,-0.8885,-0.8743,-0.8604,-0.8557,-0.8509,-0.8506,-0.8554,-0.8554,-0.8628,-0.8781,-0.8781,-0.8835,-0.8885,-0.8885,-0.8885,-0.6384,-0.6038,-0.524,0.0,0.0,0.0,0.0,-0.0739,-0.1401,-0.141,0.0,0.0,0.0,0.0,0.0,0.0,0.0,0.0,0.0,0.0,0.0103,0.0354,0.0404,0.0606,0.1162,0.1212,0.1314,0.1566,0.1617,0.1617,0.1617,0.1617,0.1617,0.1617,0.1617,0.1617,0.1617,0.1617,0.1617,0.1617,0.1617,0.1465,0.1162,0.0657,0.0404,0.0404,0.0101,0.0,0.0,0.0,0.0,-0.0101,-0.116,-0.1563,-0.1714,-0.2771,-0.3879,-0.4784,-0.4784,-0.5484,-0.6387,-0.6387,-0.6387,-0.6408,-0.6581,-0.6481,-0.6411,-0.6584,-0.6622,-0.6649,-0.6774,-0.7197,-0.766,-0.7934,-0.8263,-0.8556,-0.8689,-0.8828,-0.8834,-0.8737,-0.871,-0.871,-0.871,-0.8713,-0.8713,-0.8713,-0.8842,-0.8885,-0.8885,-0.8885,-0.8885,-0.8885,-0.8885,-0.8885,-0.8885,-0.8885,-0.8885,-0.8885,-0.8885,-0.8814,-0.872,-0.8567,-0.8557,-0.871,-0.8713,-0.8788,-0.8885,-0.8885,-0.8885,-0.8885,-0.8885,-0.8885,-0.6213,-0.5458,0.0,0.0,0.0,0.0,0.0,0.0,0.0,0.0,-0.0195,0.0,0.0,0.0,0.0,0.0,0.0,0.0,0.0,0.0,0.0051,0.0101,0.0303,0.0455,0.0606,0.096,0.1212,0.1314,0.1516,0.1617,0.1617,0.1617,0.1617,0.1617,0.1617,0.1617,0.1617,0.1617,0.1617,0.1617,0.1617,0.1465,0.1212,0.0859,0.0556,0.0404,0.0101,0.0,0.0,0.0,0.0,-0.0051,-0.0353,-0.0454,-0.0606,-0.1664,-0.2267,-0.267,-0.3425,-0.4379,-0.5286,-0.5286,-0.5787,-0.6392,-0.643,-0.6416,-0.6411,-0.6584,-0.6681,-0.6777,-0.6899,-0.7037,-0.733,-0.7858,-0.8026,-0.816,-0.8612,-0.8662,-0.8604,-0.856,-0.8635,-0.871,-0.871,-0.8801,-0.8814,-0.8814,-0.8854,-0.8885,-0.8885,-0.8885,-0.8885,-0.8885,-0.8885,-0.8885,-0.8885,-0.8885,-0.8885,-0.8885,-0.8885,-0.8861,-0.8817,-0.8828,-0.8825,-0.8814,-0.8814,-0.8838,-0.8885,-0.8885,-0.8885,-0.8885,-0.8885,-0.8885,-0.6302,0.0,0.0,0.0,0.0,0.0,0.0,0.0,0.0,0.0,0.0,0.0,0.0,0.0,0.0,0.0,0.0,0.0,0.0,0.0,0.0,0.0,0.0152,0.0303,0.0404,0.0707,0.096,0.1162,0.1364,0.1465,0.1617,0.1617,0.1617,0.1617,0.1617,0.1617,0.1617,0.1617,0.1617,0.1617,0.1617,0.1516,0.1364,0.1061,0.0808,0.0556,0.0152,0.0,0.0,0.0,0.0,0.0,0.0,0.0,-0.0101,-0.0706,-0.121,-0.1714,-0.2318,-0.3274,-0.418,-0.418,-0.4883,-0.5787,-0.5787,-0.6084,-0.6411,-0.6584,-0.6638,-0.6698,-0.6869,-0.6877,-0.7,-0.7659,-0.7831,-0.7951,-0.844,-0.8578,-0.8645,-0.8584,-0.8696,-0.8801,-0.8801,-0.8821,-0.8885,-0.8885,-0.8885,-0.8885,-0.8885,-0.8885,-0.8885,-0.8885,-0.8885,-0.8885,-0.8885,-0.8885,-0.8885,-0.8885,-0.8885,-0.8885,-0.8885,-0.8885,-0.8885,-0.8885,-0.8885,-0.8885,-0.8885,-0.8885,-0.8885,-0.8885,-0.8885,-0.8885,-0.6453,0.0,0.0,0.0,0.0,0.0,0.0,0.0,0.0,0.0,0.0,0.0,0.0,0.0,0.0,0.0,0.0,0.0,0.0,0.0,0.0,0.0,0.0,0.0101,0.0354,0.0404,0.0606,0.1111,0.1162,0.1314,0.1566,0.1617,0.1617,0.1617,0.1617,0.1617,0.1617,0.1617,0.1617,0.1617,0.1617,0.1617,0.1566,0.1314,0.1061,0.0758,0.0202,0.0,0.0,0.0,0.0,0.0,0.0,0.0,0.0,0.0,-0.0606,-0.1462,-0.1462,-0.2167,-0.3073,-0.3073,-0.3827,-0.4784,-0.4784,-0.5536,-0.6411,-0.6584,-0.6489,-0.6457,-0.6741,-0.6711,-0.6758,-0.7376,-0.7689,-0.7917,-0.8208,-0.8583,-0.8801,-0.8716,-0.8825,-0.8878,-0.8865,-0.8875,-0.8885,-0.8885,-0.8885,-0.8885,-0.8885,-0.8885,-0.8885,-0.8885,-0.8885,-0.8885,-0.8885,-0.8885,-0.8885,-0.8885,-0.8885,-0.8885,-0.8885,-0.8885,-0.8885,-0.8885,-0.8885,-0.8885,-0.8885,-0.8885,-0.8885,-0.8885,-0.8885,-0.8885,0.0,-0.5698,0.0,0.0,0.0,0.0,0.0,0.0,0.0,0.0,0.0,0.0,0.0,0.0,0.0,0.0,0.0,0.0,0.0,0.0,0.0,0.0,0.0,0.0,0.0101,0.0253,0.0556,0.0859,0.1061,0.1314,0.1566,0.1617,0.1617,0.1617,0.1617,0.1617,0.1617,0.1617,0.1617,0.1617,0.1617,0.1617,0.1566,0.1314,0.096,0.0455,0.0152,0.0,0.0,0.0,0.0,0.0,0.0,0.0,0.0,0.0,-0.0151,-0.0353,-0.0353,-0.1059,-0.1966,-0.1966,-0.3224,-0.4784,-0.4784,-0.5536,-0.6411,-0.6584,-0.66,-0.6613,-0.6763,-0.6711,-0.6662,-0.6889,-0.7261,-0.7611,-0.8035,-0.8398,-0.857,-0.8537,-0.8754,-0.8844,-0.8781,-0.8804,-0.8885,-0.8885,-0.8885,-0.8885,-0.8885,-0.8885,-0.8885,-0.8885,-0.8885,-0.8885,-0.8885,-0.8885,-0.8885,-0.8885,-0.8885,-0.8885,-0.8885,-0.8885,-0.8885,-0.8885,-0.8885,-0.8885,-0.8885,-0.8885,-0.8885,-0.8885,-0.8885,-0.8885,0.0,0.0,0.0,0.0,0.0,0.0,0.0,0.0,0.0,0.0,0.0,0.0,0.0,0.0,0.0,0.0,0.0,0.0,0.0,0.0,0.0,0.0,0.0,0.0,0.0,0.0152,0.0303,0.0606,0.0758,0.101,0.1364,0.1415,0.1465,0.1617,0.1617,0.1617,0.1617,0.1617,0.1617,0.1617,0.1617,0.1617,0.1566,0.1212,0.0859,0.0556,0.0152,0.0,0.0,0.0,0.0,0.0,0.0,0.0,0.0,0.0,0.0,0.0,0.0,-0.0353,-0.0858,-0.0858,-0.1915,-0.3274,-0.3274,-0.4026,-0.5,-0.5658,-0.5807,-0.5897,-0.6526,-0.6624,-0.6548,-0.6611,-0.6975,-0.7418,-0.7924,-0.827,-0.8535,-0.8646,-0.8828,-0.8858,-0.8832,-0.8831,-0.8885,-0.8885,-0.8885,-0.8885,-0.8885,-0.8885,-0.8885,-0.8885,-0.8885,-0.8885,-0.8885,-0.8885,-0.8885,-0.8885,-0.8885,-0.8885,-0.8885,-0.8885,-0.8885,-0.8885,-0.8885,-0.8885,-0.8885,-0.8885,-0.8885,-0.8885,-0.8885,-0.8885,0.0,0.0,0.0,0.0,0.0,0.0,0.0,0.0,0.0,0.0,0.0,0.0,0.0,0.0,0.0,0.0,0.0,0.0,0.0,0.0,0.0,0.0,0.0,0.0,0.0,0.0,0.0101,0.0404,0.0403,0.0654,0.1156,0.1203,0.1303,0.1609,0.1609,0.1611,0.1617,0.1617,0.1617,0.1617,0.1617,0.1617,0.1566,0.1111,0.0859,0.0758,0.0303,0.0051,0.0,0.0,0.0,0.0,0.0,0.0,0.0,0.0,0.0,0.0,0.0,0.0,0.0,0.0,-0.0706,-0.1613,-0.1613,-0.2368,-0.3384,-0.4407,-0.4634,-0.4804,-0.6021,-0.607,-0.5939,-0.6361,-0.6635,-0.7034,-0.7728,-0.8186,-0.8569,-0.8823,-0.8885,-0.8885,-0.8885,-0.8885,-0.8885,-0.8885,-0.8885,-0.8885,-0.8885,-0.8885,-0.8885,-0.8885,-0.8905,-0.8977,-0.8977,-0.9001,-0.8959,-0.8959,-0.8959,-0.9001,-0.8977,-0.8977,-0.8908,-0.8885,-0.8885,-0.8885,-0.8885,-0.8885,-0.8885,-0.8885,-0.8885,-0.8885,0.0,0.0,0.0,0.0,0.0,0.0,0.0,0.0,0.0,0.0,0.0,0.0,0.0,0.0,0.0,0.0,0.0,0.0,0.0,0.0,0.0,0.0,0.0,0.0,0.0,0.0,0.0101,0.0404,0.0398,0.0641,0.1183,0.1213,0.1308,0.1577,0.1577,0.159,0.1616,0.1617,0.1617,0.1617,0.1617,0.1617,0.1566,0.1263,0.101,0.0808,0.0455,0.0202,0.0,0.0,0.0,0.0,0.0,0.0,0.0,0.0,0.0,0.0,0.0,0.0,0.0,0.0,-0.0706,-0.1613,-0.1613,-0.2368,-0.3225,-0.3384,-0.343,-0.3691,-0.4887,-0.4438,-0.4144,-0.6108,-0.6019,-0.5898,-0.7405,-0.805,-0.8458,-0.8803,-0.8885,-0.8885,-0.8885,-0.8885,-0.8885,-0.8885,-0.8885,-0.8885,-0.8885,-0.8885,-0.8885,-0.8885,-0.9049,-0.918,-0.918,-0.9245,-0.9323,-0.9323,-0.9323,-0.9262,-0.9187,-0.918,-0.9066,-0.8885,-0.8885,-0.8885,-0.8885,-0.8885,-0.8885,-0.8885,-0.8885,-0.8885,0.0,0.0,0.0,0.0,0.0,0.0,0.0,0.0,0.0,0.0,0.0,0.0,0.0,0.0,0.0,0.0,0.0,0.0,0.0,0.0,0.0,0.0,0.0,0.0,0.0,0.0,0.005,0.0149,0.0199,0.0395,0.0967,0.0968,0.1168,0.1571,0.162,0.1586,0.1616,0.1617,0.1617,0.1617,0.1617,0.1617,0.1617,0.1465,0.1212,0.0808,0.0505,0.0253,0.0,0.0,0.0,0.0,0.0,0.0,0.0,0.0,0.0,0.0,0.0,0.0,0.0,0.0,-0.0303,-0.0707,-0.0707,-0.1009,-0.1513,-0.2116,-0.2318,-0.2574,-0.3712,-0.3597,-0.3432,-0.4474,-0.4423,-0.4461,-0.5309,-0.6888,-0.8307,-0.8816,-0.8885,-0.8885,-0.8885,-0.8885,-0.8885,-0.8885,-0.9008,-0.9059,-0.9059,-0.9133,-0.9188,-0.9188,-0.9242,-0.934,-0.934,-0.9344,-0.9381,-0.9381,-0.9381,-0.9313,-0.9217,-0.921,-0.9086,-0.8888,-0.8885,-0.8885,-0.8885,-0.8885,-0.8885,-0.8885,-0.8885,-0.8885,0.0,0.0,0.0,0.0,0.0,0.0,0.0,0.0,0.0,0.0,0.0,0.0,0.0,0.0,0.0,0.0,0.0,0.0,0.0,0.0,0.0,0.0,0.0,0.0,0.0,0.0,0.0,0.0,0.0,0.0196,0.0668,0.077,0.1018,0.1462,0.1567,0.1579,0.1594,0.1601,0.1609,0.1617,0.1617,0.1617,0.1617,0.1617,0.1314,0.0808,0.0606,0.0303,0.0,0.0,0.0,0.0,0.0,0.0,0.0,0.0,0.0,0.0,0.0,0.0,0.0,0.0,0.0,0.0,0.0,0.0,-0.0151,-0.0958,-0.1211,-0.1465,-0.2548,-0.2639,-0.2526,-0.3108,-0.3126,-0.3248,-0.4241,-0.6146,-0.782,-0.8325,-0.8716,-0.8826,-0.8491,-0.8716,-0.8895,-0.8988,-0.9086,-0.9224,-0.9262,-0.931,-0.9381,-0.9381,-0.9415,-0.9439,-0.9439,-0.9473,-0.9493,-0.9493,-0.9493,-0.9425,-0.9333,-0.9326,-0.9198,-0.9052,-0.9052,-0.8959,-0.8885,-0.8885,-0.8885,-0.8885,-0.8885,-0.8885,0.0,0.0,0.0,0.0,0.0,0.0,0.0,0.0,0.0,0.0,0.0,0.0,0.0,0.0,0.0,0.0,0.0,0.0,0.0,0.0,0.0,0.0,0.0,0.0,0.0,0.0,0.0,0.0,0.0,0.014,0.0429,0.0656,0.0889,0.1098,0.141,0.1558,0.1483,0.1559,0.1588,0.1617,0.1617,0.1617,0.1617,0.1617,0.1314,0.0808,0.0808,0.0505,0.0,0.0,0.0,0.0,0.0,0.0,0.0,0.0,0.0,0.0,0.0,0.0,0.0,0.0,0.0,0.0,0.0,0.0,0.0,-0.0051,-0.0101,-0.0356,-0.1577,-0.1035,-0.0713,-0.289,-0.2599,-0.268,-0.5528,-0.6468,-0.6869,-0.7152,-0.81,-0.8546,-0.7376,-0.8156,-0.8984,-0.9176,-0.9204,-0.9262,-0.9351,-0.9374,-0.9381,-0.9381,-0.951,-0.9598,-0.9598,-0.972,-0.9798,-0.9798,-0.9798,-0.9734,-0.9591,-0.9585,-0.9513,-0.9361,-0.9357,-0.9222,-0.8885,-0.8885,-0.8885,-0.8885,-0.8885,-0.8885,0.0,0.0,0.0,0.0,0.0,0.0,0.0,0.0,0.0,0.0,0.0,0.0,0.0,0.0,0.0,0.0,0.0,0.0,0.0,0.0,0.0,0.0,0.0,0.0,0.0,0.0,0.0,0.0,0.0,0.0095,0.0374,0.0666,0.0916,0.1166,0.1468,0.1566,0.1555,0.1566,0.1577,0.1588,0.1588,0.1598,0.1617,0.1415,0.1162,0.0808,0.0606,0.0354,0.0,0.0,0.0,0.0,0.0,0.0,0.0,0.0,0.0,0.0,0.0,0.0,0.0,0.0,0.0,0.0,0.0,0.0,0.0,0.0,0.0,-0.0101,-0.0513,-0.0306,-0.0204,-0.1003,-0.0913,-0.1198,-0.3224,-0.4524,-0.5308,-0.5419,-0.5917,-0.6195,-0.575,-0.6253,-0.6682,-0.6734,-0.6812,-0.719,-0.8139,-0.8346,-0.8755,-0.9543,-0.971,-0.9744,-0.9744,-0.9791,-0.9822,-0.9822,-0.9822,-0.9758,-0.9615,-0.9608,-0.9537,-0.9384,-0.9381,-0.9279,-0.9076,-0.9076,-0.9028,-0.8885,-0.8885,-0.8885,-0.1618,0.0,0.0,0.0,0.0,0.0,0.0,0.0,0.0,0.0,0.0,0.0,0.0,0.0,0.0,0.0,0.0,0.0,0.0,0.0,0.0,0.0,0.0,0.0,0.0,0.0,0.0,0.0,0.0,0.0095,0.0278,0.0617,0.0969,0.1325,0.1464,0.1566,0.1586,0.1577,0.1577,0.1587,0.1587,0.1597,0.1617,0.1415,0.1162,0.0808,0.0606,0.0354,0.0,0.0,0.0,0.0,0.0,0.0,0.0,0.0,0.0,0.0,0.0,0.0,0.0,0.0,0.0,0.0,0.0,0.0,0.0,0.0,0.0,0.0,0.0,0.0,0.0,0.0,0.0,-0.0275,-0.1227,-0.2627,-0.3744,-0.3855,-0.4357,-0.4634,-0.4242,-0.4745,-0.5232,-0.535,-0.5478,-0.597,-0.688,-0.714,-0.7734,-0.9022,-0.9147,-0.9329,-0.9758,-0.9822,-0.9822,-0.9822,-0.9822,-0.9778,-0.9683,-0.968,-0.9632,-0.953,-0.953,-0.9456,-0.9306,-0.9313,-0.9181,-0.9086,-0.9035,-0.8984,0.0,0.0,0.0,0.0,0.0,0.0,0.0,0.0,0.0,0.0,0.0,0.0,0.0,0.0,0.0,0.0,0.0,0.0,0.0,0.0,0.0,0.0,0.0,0.0,0.0,0.0,0.0,0.0,0.0,0.0,0.0,0.0509,0.1037,0.1568,0.1543,0.1555,0.1613,0.1585,0.1586,0.1615,0.1615,0.1616,0.1617,0.1566,0.1313,0.0808,0.0808,0.0505,0.0,0.0,0.0,0.0,0.0,0.0,0.0,0.0,0.0,0.0,0.0,0.0,0.0,0.0,0.0,0.0,0.0,0.0,0.0,0.0,0.0,0.0,0.0,0.0,0.0,0.0,0.0,0.0,0.0,-0.1119,-0.2235,-0.2572,-0.3576,-0.4024,-0.2851,-0.3855,-0.4857,-0.502,-0.5282,-0.5523,-0.5813,-0.5835,-0.6326,-0.7734,-0.7917,-0.841,-0.9697,-0.9822,-0.9822,-0.9822,-0.9822,-0.9822,-0.9822,-0.9822,-0.9822,-0.9822,-0.9822,-0.9754,-0.9615,-0.9462,-0.9384,-0.9371,-0.9279,-0.9083,0.0,0.0,0.0,0.0,0.0,0.0,0.0,0.0,0.0,0.0,0.0,0.0,0.0,0.0,0.0,0.0,0.0,0.0,0.0,0.0,0.0,0.0,0.0,0.0,0.0,0.0,0.0,0.0,0.0,0.0,0.0,0.0516,0.0951,0.1298,0.1504,0.1556,0.1551,0.1565,0.1576,0.1584,0.1584,0.1596,0.1566,0.1212,0.096,0.0758,0.0404,0.0152,0.0,0.0,0.0,0.0,0.0,0.0,0.0,0.0,0.0,0.0,0.0,0.0,0.0,0.0,0.0,0.0,0.0,0.0,0.0,0.0,0.0,0.0,0.0,0.0,0.0,0.0,0.0,0.0,0.0,-0.0336,-0.0616,-0.0728,-0.1176,-0.1456,-0.112,-0.1584,-0.201,-0.2052,-0.2139,-0.2591,-0.3683,-0.4,-0.4979,-0.7301,-0.7731,-0.841,-0.9697,-0.9822,-0.9822,-0.9822,-0.9822,-0.9822,-0.9822,-0.9822,-0.9822,-0.9822,-0.9822,-0.9802,-0.9764,-0.9615,-0.9432,-0.9272,-0.9228,-0.9252,0.0,0.0,0.0,0.0,0.0,0.0,0.0,0.0,0.0,0.0,0.0,0.0,0.0,0.0,0.0,0.0,0.0,0.0,0.0,0.0,0.0,0.0,0.0,0.0,0.0,0.0,0.0,0.0,0.0,0.0046,0.0183,0.0559,0.0895,0.113,0.144,0.1544,0.1478,0.1543,0.1559,0.162,0.162,0.1581,0.1598,0.1258,0.1006,0.0799,0.0453,0.0202,0.0,0.0,0.0,0.0,0.0,0.0,0.0,0.0,0.0,0.0,0.0,0.0,0.0,0.0,0.0,0.0,0.0,0.0,0.0,0.0,0.0,0.0,0.0,0.0,0.0,0.0,0.0,0.0,0.0,0.0,0.0,0.0,-0.0112,-0.0224,-0.0224,-0.0512,-0.0694,-0.0705,-0.0836,-0.1213,-0.2031,-0.2281,-0.3264,-0.5468,-0.5898,-0.6815,-0.8839,-0.9022,-0.9207,-0.9758,-0.9822,-0.9822,-0.9822,-0.9822,-0.9822,-0.9822,-0.9822,-0.9822,-0.9822,-0.9737,-0.9578,-0.9344,-0.9405,-0.9459,0.0,0.0,0.0,0.0,0.0,0.0,0.0,0.0,0.0,0.0,0.0,0.0,0.0,0.0,0.0,0.0,0.0,0.0,0.0,0.0,0.0,0.0,0.0,0.0,0.0,0.0,0.0,0.0,0.0,0.009,0.0359,0.0639,0.0876,0.106,0.1364,0.1521,0.1521,0.1477,0.154,0.1566,0.1619,0.162,0.1622,0.1552,0.1252,0.0789,0.0752,0.0455,0.0,0.0,0.0,0.0,0.0,0.0,0.0,0.0,0.0,0.0,0.0,0.0,0.0,0.0,0.0,0.0,0.0,0.0,0.0,0.0,0.0,0.0,0.0,0.0,0.0,0.0,0.0,0.0,0.0,0.0,0.0,0.0,0.0,0.0,0.0,-0.0171,-0.0348,-0.0411,-0.0658,-0.0851,-0.0863,-0.0926,-0.1542,-0.3142,-0.3326,-0.449,-0.7368,-0.7734,-0.8285,-0.9329,-0.9636,-0.9761,-0.9576,-0.9697,-0.9822,-0.9822,-0.9822,-0.9822,-0.9822,-0.9805,-0.9741,-0.9635,-0.9747,-0.9666,0.0,0.0,0.0,0.0,0.0,0.0,0.0,0.0,0.0,0.0,0.0,0.0,0.0,0.0,0.0,0.0,0.0,0.0,0.0,0.0,0.0,0.0,0.0,0.0,0.0,0.0,0.0,0.0,0.0,0.0045,0.009,0.0495,0.0722,0.0767,0.1243,0.1489,0.1489,0.1514,0.1529,0.1535,0.156,0.162,0.1573,0.1152,0.0907,0.0754,0.0353,0.0101,0.0,0.0,0.0,0.0,0.0,0.0,0.0,0.0,0.0,0.0,0.0,0.0,0.0,0.0,0.0,0.0,0.0,0.0,0.0,0.0,0.0,0.0,0.0,0.0,0.0,0.0,0.0,0.0,0.0,0.0,0.0,0.0,0.0,0.0,0.0,-0.0057,-0.0059,-0.0118,-0.0121,-0.0185,-0.0185,-0.0432,-0.1111,-0.2524,-0.2894,-0.3754,-0.5716,-0.6874,-0.724,-0.6693,-0.8653,-0.9329,-0.8288,-0.9268,-0.9822,-0.9822,-0.9822,-0.9822,-0.9822,-0.9707,-0.9696,-0.9778,-0.969,-0.9683,0.0,0.0,0.0,0.0,0.0,0.0,0.0,0.0,0.0,0.0,0.0,0.0,0.0,0.0,0.0,0.0,0.0,0.0,0.0,0.0,0.0,0.0,0.0,0.0,0.0,0.0,0.0,0.0,0.0,0.0,0.0,0.0359,0.0583,0.0718,0.1087,0.1367,0.1458,0.1427,0.1488,0.1504,0.1519,0.1534,0.155,0.1185,0.0946,0.0797,0.0352,0.0101,0.0,0.0,0.0,0.0,0.0,0.0,0.0,0.0,0.0,0.0,0.0,0.0,0.0,0.0,0.0,0.0,0.0,0.0,0.0,0.0,0.0,0.0,0.0,0.0,0.0,0.0,0.0,0.0,0.0,0.0,0.0,0.0,0.0,0.0,0.0,0.0,0.0,0.0,0.0,0.0,0.0,-0.0123,-0.0555,-0.1418,-0.1603,-0.2341,-0.3999,-0.4918,-0.5469,-0.5653,-0.706,-0.7856,-0.7919,-0.8532,-0.9147,-0.9761,-0.9822,-0.9822,-0.9822,-0.9751,-0.9751,-0.9819,-0.9747,-0.9751,0.0,0.0,0.0,0.0,0.0,0.0,0.0,0.0,0.0,0.0,0.0,0.0,0.0,0.0,0.0,0.0,0.0,0.0,0.0,0.0,0.0,0.0,0.0,0.0,0.0,0.0,0.0,0.0,0.0,0.0,0.0,0.0269,0.0493,0.0673,0.0942,0.1211,0.1391,0.1391,0.1447,0.1472,0.1478,0.1493,0.1471,0.1258,0.1025,0.0782,0.0448,0.0201,0.0,0.0,0.0,0.0,0.0,0.0,0.0,0.0,0.0,0.0,0.0,0.0,0.0,0.0,0.0,0.0,0.0,0.0,0.0,0.0,0.0,0.0,0.0,0.0,0.0,0.0,0.0,0.0,0.0,0.0,0.0,0.0,0.0,0.0,0.0,0.0,0.0,0.0,0.0,0.0,0.0,0.0,-0.0123,-0.037,-0.0432,-0.0925,-0.2341,-0.2895,-0.3633,-0.4492,-0.5286,-0.608,-0.6999,-0.7612,-0.8471,-0.9758,-0.9822,-0.9822,-0.9822,-0.9822,-0.9822,-0.9822,-0.9822,-0.9822,0.0,0.0,0.0,0.0,0.0,0.0,0.0,0.0,0.0,0.0,0.0,0.0,0.0,0.0,0.0,0.0,0.0,0.0,0.0,0.0,0.0,0.0,0.0,0.0,0.0,0.0,0.0,0.0,0.0,0.0,0.0,0.0269,0.0493,0.0673,0.0942,0.1211,0.1391,0.1391,0.1392,0.1396,0.1468,0.1483,0.1487,0.1043,0.0813,0.0766,0.0244,0.0049,0.0,0.0,0.0,0.0,0.0,0.0,0.0,0.0,0.0,0.0,0.0,0.0,0.0,0.0,0.0,0.0,0.0,0.0,0.0,0.0,0.0,0.0,0.0,0.0,0.0,0.0,0.0,0.0,0.0,0.0,0.0,0.0,0.0,0.0,0.0,0.0,0.0,0.0,0.0,0.0,0.0,0.0,0.0,-0.0062,-0.0062,-0.0247,-0.0741,-0.191,-0.2279,-0.1542,-0.3692,-0.4673,-0.394,-0.6449,-0.8471,-0.9758,-0.9822,-0.9822,-0.9822,-0.9822,-0.9822,-0.9822,-0.9822,-0.9822,0.0,0.0,0.0,0.0,0.0,0.0,0.0,0.0,0.0,0.0,0.0,0.0,0.0,0.0,0.0,0.0,0.0,0.0,0.0,0.0,0.0,0.0,0.0,0.0,0.0,0.0,0.0,0.0,0.0,0.0,0.0,0.009,0.0314,0.0673,0.0807,0.1031,0.1391,0.1391,0.1391,0.1391,0.1448,0.1463,0.1481,0.098,0.0754,0.0763,0.024,0.0,0.0,0.0,0.0,0.0,0.0,0.0,0.0,0.0,0.0,0.0,0.0,0.0,0.0,0.0,0.0,0.0,0.0,0.0,0.0,0.0,0.0,0.0,0.0,0.0,0.0,0.0,0.0,0.0,0.0,0.0,0.0,0.0,0.0,0.0,0.0,0.0,0.0,0.0,0.0,0.0,0.0,0.0,0.0,0.0,0.0,-0.0062,-0.0185,-0.0925,-0.1172,-0.0741,-0.2772,-0.3816,-0.3388,-0.5531,-0.6999,-0.7548,-0.8285,-0.8714,-0.8714,-0.9454,-0.9822,-0.9822,-0.9822,-0.9822,0.0,0.0,0.0,0.0,0.0,0.0,0.0,0.0,0.0,0.0,0.0,0.0,0.0,0.0,0.0,0.0,0.0,0.0,0.0,0.0,0.0,0.0,0.0,0.0,0.0,0.0,0.0,0.0,0.0,0.0,0.0,0.0,0.0225,0.0724,0.0724,0.095,0.1403,0.1448,0.1399,0.1391,0.1391,0.1446,0.1468,0.0917,0.074,0.0751,0.0236,0.0,0.0,0.0,0.0,0.0,0.0,0.0,0.0,0.0,0.0,0.0,0.0,0.0,0.0,0.0,0.0,0.0,0.0,0.0,0.0,0.0,0.0,0.0,0.0,0.0,0.0,0.0,0.0,0.0,0.0,0.0,0.0,0.0,0.0,0.0,0.0,0.0,0.0,0.0,0.0,0.0,0.0,0.0,0.0,0.0,0.0,0.0,0.0,-0.0247,-0.037,-0.037,-0.1788,-0.2834,-0.3265,-0.4551,-0.5408,-0.5896,-0.6877,-0.7551,-0.7919,-0.8836,-0.9454,-0.9822,-0.9822,-0.9822,0.0,0.0,0.0,0.0,0.0,0.0,0.0,0.0,0.0,0.0,0.0,0.0,0.0,0.0,0.0,0.0,0.0,0.0,0.0,0.0,0.0,0.0,0.0,0.0,0.0,0.0,0.0,0.0,0.0,0.0,0.0,0.0,0.0227,0.0785,0.0786,0.1017,0.1479,0.1479,0.1464,0.1391,0.1391,0.1391,0.1392,0.0898,0.0719,0.0675,0.0184,0.0,0.0,0.0,0.0,0.0,0.0,0.0,0.0,0.0,0.0,0.0,0.0,0.0,0.0,0.0,0.0,0.0,0.0,0.0,0.0,0.0,0.0,0.0,0.0,0.0,0.0,0.0,0.0,0.0,0.0,0.0,0.0,0.0,0.0,0.0,0.0,0.0,0.0,0.0,0.0,0.0,0.0,0.0,0.0,0.0,0.0,0.0,0.0,0.0,0.0,0.0,-0.037,-0.1296,-0.2956,-0.3325,-0.4246,-0.5896,-0.5957,-0.6632,-0.7919,-0.7919,-0.8593,-0.9822,-0.9822,-0.9822,0.0045,0.0,0.0,0.0,0.0,0.0,0.0,0.0,0.0,0.0,0.0,0.0,0.0,0.0,0.0,0.0,0.0,0.0,0.0,0.0,0.0,0.0,0.0,0.0,0.0,0.0,0.0,0.0,0.0,0.0,0.0,0.0,0.018,0.0544,0.0544,0.077,0.1224,0.1224,0.131,0.1391,0.1391,0.1345,0.1211,0.0852,0.0628,0.0493,0.0136,0.0,0.0,0.0,0.0,0.0,0.0,0.0,0.0,0.0,0.0,0.0,0.0,0.0,0.0,0.0,0.0,0.0,0.0,0.0,0.0,0.0,0.0,0.0,0.0,0.0,0.0,0.0,0.0,0.0,0.0,0.0,0.0,0.0,0.0,0.0,0.0,0.0,0.0,0.0,0.0,0.0,0.0,0.0,0.0,0.0,0.0,0.0,0.0,0.0,0.0,0.0,-0.0309,-0.0741,-0.1295,-0.1666,-0.2097,-0.2648,-0.3693,-0.4492,-0.492,-0.602,-0.6815,-0.7243,-0.7243,-0.8163,0.0718,0.0404,0.0135,0.0045,0.0,0.0,0.0,0.0,0.0,0.0,0.0,0.0,0.0,0.0,0.0,0.0,0.0,0.0,0.0,0.0,0.0,0.0,0.0,0.0,0.0,0.0,0.0,0.0,0.0,0.0,0.0,0.0,0.0137,0.0413,0.0413,0.0596,0.1009,0.1047,0.113,0.1166,0.13,0.13,0.1076,0.0807,0.0628,0.0493,0.0135,0.0,0.0,0.0,0.0,0.0,0.0,0.0,0.0,0.0,0.0,0.0,0.0,0.0,0.0,0.0,0.0,0.0,0.0,0.0,0.0,0.0,0.0,0.0,0.0,0.0,0.0,0.0,0.0,0.0,0.0,0.0,0.0,0.0,0.0,0.0,0.0,0.0,0.0,0.0,0.0,0.0,0.0,0.0,0.0,0.0,0.0,0.0,0.0,0.0,0.0,0.0,-0.0185,-0.037,-0.0494,-0.0679,-0.0931,-0.1192,-0.2108,-0.2912,-0.3629,-0.4575,-0.5347,-0.5896,-0.5896,-0.6815]}]]